<?xml version='1.0' encoding='UTF-8'?><gpx version="1.1" creator="JPX - https://github.com/jenetics/jpx" xmlns="http://www.topografix.com/GPX/1/1"><trk><trkseg><trkpt lat="45.99492" lon="11.7596495"><ele>610.4</ele><time>2026-04-11T12:36:03.93Z</time></trkpt><trkpt lat="45.9950043" lon="11.7596554"><ele>616.8</ele><time>2026-04-11T12:36:16.662Z</time></trkpt><trkpt lat="45.9950491" lon="11.7595777"><ele>623.2</ele><time>2026-04-11T12:38:40.664Z</time></trkpt><trkpt lat="45.9950633" lon="11.7594761"><ele>629.6</ele><time>2026-04-11T12:38:42.636Z</time></trkpt><trkpt lat="45.9950704" lon="11.7593537"><ele>636.0</ele><time>2026-04-11T12:38:44.608Z</time></trkpt><trkpt lat="45.995057" lon="11.7598368"><ele>634.0</ele><time>2026-04-11T12:38:45.651Z</time></trkpt><trkpt lat="45.9950557" lon="11.760269"><ele>632.0</ele><time>2026-04-11T12:38:46.578Z</time></trkpt><trkpt lat="45.9950712" lon="11.7603907"><ele>630.0</ele><time>2026-04-11T12:38:47.624Z</time></trkpt><trkpt lat="45.995105" lon="11.7604823"><ele>630.0</ele><time>2026-04-11T12:38:48.666Z</time></trkpt><trkpt lat="45.9951374" lon="11.7605962"><ele>630.0</ele><time>2026-04-11T12:38:50.183Z</time></trkpt><trkpt lat="45.9951537" lon="11.7607057"><ele>630.0</ele><time>2026-04-11T12:38:51.565Z</time></trkpt><trkpt lat="45.9951657" lon="11.7608539"><ele>630.0</ele><time>2026-04-11T12:38:53.564Z</time></trkpt><trkpt lat="45.9951825" lon="11.7610192"><ele>630.0</ele><time>2026-04-11T12:38:55.564Z</time></trkpt><trkpt lat="45.9951867" lon="11.7611392"><ele>628.5</ele><time>2026-04-11T12:38:57.54Z</time></trkpt><trkpt lat="45.9952444" lon="11.7612185"><ele>627.0</ele><time>2026-04-11T12:39:01.564Z</time></trkpt><trkpt lat="45.9952999" lon="11.7613218"><ele>625.5</ele><time>2026-04-11T12:39:21.564Z</time></trkpt><trkpt lat="45.9953391" lon="11.7614052"><ele>624.0</ele><time>2026-04-11T12:39:22.565Z</time></trkpt><trkpt lat="45.9953764" lon="11.7615035"><ele>622.5</ele><time>2026-04-11T12:39:23.565Z</time></trkpt><trkpt lat="45.9954074" lon="11.7615928"><ele>621.0</ele><time>2026-04-11T12:39:24.564Z</time></trkpt><trkpt lat="45.9954715" lon="11.7616551"><ele>621.0</ele><time>2026-04-11T12:39:26.565Z</time></trkpt><trkpt lat="45.9955494" lon="11.7616725"><ele>621.0</ele><time>2026-04-11T12:39:28.564Z</time></trkpt><trkpt lat="45.9956226" lon="11.7617413"><ele>621.0</ele><time>2026-04-11T12:39:30.565Z</time></trkpt><trkpt lat="45.9956822" lon="11.7617827"><ele>621.0</ele><time>2026-04-11T12:39:33.565Z</time></trkpt><trkpt lat="45.9957468" lon="11.7617466"><ele>621.0</ele><time>2026-04-11T12:39:35.564Z</time></trkpt><trkpt lat="45.9958108" lon="11.7616772"><ele>621.0</ele><time>2026-04-11T12:39:38.564Z</time></trkpt><trkpt lat="45.9958245" lon="11.7615789"><ele>621.0</ele><time>2026-04-11T12:39:50.565Z</time></trkpt><trkpt lat="45.9958367" lon="11.7614684"><ele>621.0</ele><time>2026-04-11T12:39:52.565Z</time></trkpt><trkpt lat="45.9958457" lon="11.7613353"><ele>621.0</ele><time>2026-04-11T12:39:54.565Z</time></trkpt><trkpt lat="45.9958372" lon="11.761232"><ele>621.0</ele><time>2026-04-11T12:39:57.564Z</time></trkpt><trkpt lat="45.9959134" lon="11.761198"><ele>621.0</ele><time>2026-04-11T12:40:09.565Z</time></trkpt><trkpt lat="45.9959844" lon="11.7611717"><ele>621.0</ele><time>2026-04-11T12:40:11.565Z</time></trkpt><trkpt lat="45.9960514" lon="11.7611359"><ele>625.3333333333334</ele><time>2026-04-11T12:40:13.566Z</time></trkpt><trkpt lat="45.9961396" lon="11.7610861"><ele>629.6666666666666</ele><time>2026-04-11T12:40:15.565Z</time></trkpt><trkpt lat="45.9962047" lon="11.7610839"><ele>634.0</ele><time>2026-04-11T12:40:17.566Z</time></trkpt><trkpt lat="45.99626" lon="11.7611575"><ele>638.3333333333333</ele><time>2026-04-11T12:40:20.566Z</time></trkpt><trkpt lat="45.9963231" lon="11.7612032"><ele>642.6666666666666</ele><time>2026-04-11T12:40:23.566Z</time></trkpt><trkpt lat="45.9963326" lon="11.7613103"><ele>647.0</ele><time>2026-04-11T12:40:35.565Z</time></trkpt><trkpt lat="45.9963696" lon="11.7614427"><ele>647.0</ele><time>2026-04-11T12:40:37.566Z</time></trkpt><trkpt lat="45.9964504" lon="11.7616058"><ele>647.0</ele><time>2026-04-11T12:40:39.566Z</time></trkpt><trkpt lat="45.9964991" lon="11.7617076"><ele>647.0</ele><time>2026-04-11T12:40:40.565Z</time></trkpt><trkpt lat="45.9965494" lon="11.7618227"><ele>647.0</ele><time>2026-04-11T12:40:41.565Z</time></trkpt><trkpt lat="45.9965988" lon="11.7619401"><ele>647.0</ele><time>2026-04-11T12:40:42.566Z</time></trkpt><trkpt lat="45.9966409" lon="11.7620569"><ele>649.1666666666666</ele><time>2026-04-11T12:40:43.565Z</time></trkpt><trkpt lat="45.9966736" lon="11.7621705"><ele>651.3333333333333</ele><time>2026-04-11T12:40:44.566Z</time></trkpt><trkpt lat="45.9967042" lon="11.7622759"><ele>653.5</ele><time>2026-04-11T12:40:45.565Z</time></trkpt><trkpt lat="45.9967292" lon="11.7623677"><ele>655.6666666666666</ele><time>2026-04-11T12:40:46.565Z</time></trkpt><trkpt lat="45.9967693" lon="11.7625125"><ele>657.8333333333334</ele><time>2026-04-11T12:40:48.567Z</time></trkpt><trkpt lat="45.996803" lon="11.762615"><ele>660.0</ele><time>2026-04-11T12:40:50.566Z</time></trkpt><trkpt lat="45.9968279" lon="11.7626983"><ele>660.0</ele><time>2026-04-11T12:40:52.567Z</time></trkpt><trkpt lat="45.9968664" lon="11.7628279"><ele>660.0</ele><time>2026-04-11T12:40:58.566Z</time></trkpt><trkpt lat="45.9968931" lon="11.762977"><ele>660.0</ele><time>2026-04-11T12:41:00.565Z</time></trkpt><trkpt lat="45.9969145" lon="11.7630928"><ele>660.0</ele><time>2026-04-11T12:41:01.567Z</time></trkpt><trkpt lat="45.9969398" lon="11.7632292"><ele>660.0</ele><time>2026-04-11T12:41:02.566Z</time></trkpt><trkpt lat="45.9969604" lon="11.7633432"><ele>660.0</ele><time>2026-04-11T12:41:03.567Z</time></trkpt><trkpt lat="45.9969826" lon="11.7634308"><ele>660.0</ele><time>2026-04-11T12:41:04.565Z</time></trkpt><trkpt lat="45.9970446" lon="11.7634827"><ele>660.0</ele><time>2026-04-11T12:41:06.565Z</time></trkpt><trkpt lat="45.9970777" lon="11.7636142"><ele>660.0</ele><time>2026-04-11T12:41:33.566Z</time></trkpt><trkpt lat="45.9970791" lon="11.763743"><ele>660.0</ele><time>2026-04-11T12:41:35.567Z</time></trkpt><trkpt lat="45.9971022" lon="11.7639127"><ele>660.0</ele><time>2026-04-11T12:41:37.566Z</time></trkpt><trkpt lat="45.9971376" lon="11.7640224"><ele>657.8333333333334</ele><time>2026-04-11T12:41:38.566Z</time></trkpt><trkpt lat="45.9971684" lon="11.7641362"><ele>655.6666666666666</ele><time>2026-04-11T12:41:39.567Z</time></trkpt><trkpt lat="45.9971835" lon="11.7642349"><ele>653.5</ele><time>2026-04-11T12:41:40.567Z</time></trkpt><trkpt lat="45.9971994" lon="11.7643496"><ele>651.3333333333333</ele><time>2026-04-11T12:41:41.567Z</time></trkpt><trkpt lat="45.9972034" lon="11.7645399"><ele>649.1666666666666</ele><time>2026-04-11T12:41:43.566Z</time></trkpt><trkpt lat="45.9972063" lon="11.7646459"><ele>647.0</ele><time>2026-04-11T12:41:44.567Z</time></trkpt><trkpt lat="45.9972135" lon="11.7647619"><ele>645.6666666666666</ele><time>2026-04-11T12:41:45.567Z</time></trkpt><trkpt lat="45.9972187" lon="11.7648766"><ele>644.3333333333333</ele><time>2026-04-11T12:41:46.566Z</time></trkpt><trkpt lat="45.997222" lon="11.7649967"><ele>643.0</ele><time>2026-04-11T12:41:47.566Z</time></trkpt><trkpt lat="45.9972209" lon="11.7651239"><ele>641.6666666666666</ele><time>2026-04-11T12:41:48.566Z</time></trkpt><trkpt lat="45.997217" lon="11.7652486"><ele>640.3333333333334</ele><time>2026-04-11T12:41:49.567Z</time></trkpt><trkpt lat="45.9972139" lon="11.7653522"><ele>639.0</ele><time>2026-04-11T12:41:50.567Z</time></trkpt><trkpt lat="45.9972102" lon="11.765489"><ele>638.0</ele><time>2026-04-11T12:41:52.567Z</time></trkpt><trkpt lat="45.9971976" lon="11.7656114"><ele>637.0</ele><time>2026-04-11T12:41:55.567Z</time></trkpt><trkpt lat="45.9971846" lon="11.7657583"><ele>636.0</ele><time>2026-04-11T12:41:57.567Z</time></trkpt><trkpt lat="45.9972252" lon="11.7658363"><ele>635.0</ele><time>2026-04-11T12:42:01.566Z</time></trkpt><trkpt lat="45.9973001" lon="11.7657857"><ele>634.0</ele><time>2026-04-11T12:42:09.567Z</time></trkpt><trkpt lat="45.9974273" lon="11.7657249"><ele>634.0</ele><time>2026-04-11T12:42:11.567Z</time></trkpt><trkpt lat="45.9974956" lon="11.7656955"><ele>634.0</ele><time>2026-04-11T12:42:12.567Z</time></trkpt><trkpt lat="45.9975649" lon="11.765672"><ele>634.0</ele><time>2026-04-11T12:42:13.568Z</time></trkpt><trkpt lat="45.99764" lon="11.7656494"><ele>634.0</ele><time>2026-04-11T12:42:14.567Z</time></trkpt><trkpt lat="45.9977192" lon="11.7656216"><ele>634.0</ele><time>2026-04-11T12:42:15.567Z</time></trkpt><trkpt lat="45.9977913" lon="11.7655925"><ele>634.0</ele><time>2026-04-11T12:42:16.567Z</time></trkpt><trkpt lat="45.9978739" lon="11.765579"><ele>637.1666666666667</ele><time>2026-04-11T12:42:18.567Z</time></trkpt><trkpt lat="45.9979445" lon="11.7656324"><ele>640.3333333333334</ele><time>2026-04-11T12:42:20.567Z</time></trkpt><trkpt lat="45.9980089" lon="11.7656795"><ele>643.5</ele><time>2026-04-11T12:42:22.567Z</time></trkpt><trkpt lat="45.9980845" lon="11.7657189"><ele>646.6666666666666</ele><time>2026-04-11T12:42:25.568Z</time></trkpt><trkpt lat="45.9981539" lon="11.7657442"><ele>649.8333333333333</ele><time>2026-04-11T12:42:27.568Z</time></trkpt><trkpt lat="45.9982185" lon="11.7658"><ele>653.0</ele><time>2026-04-11T12:42:58.567Z</time></trkpt><trkpt lat="45.9983419" lon="11.7658746"><ele>656.5</ele><time>2026-04-11T12:43:00.568Z</time></trkpt><trkpt lat="45.998416" lon="11.7659111"><ele>660.0</ele><time>2026-04-11T12:43:01.567Z</time></trkpt><trkpt lat="45.9984953" lon="11.765936"><ele>663.5</ele><time>2026-04-11T12:43:02.567Z</time></trkpt><trkpt lat="45.9985669" lon="11.7659421"><ele>667.0</ele><time>2026-04-11T12:43:03.568Z</time></trkpt><trkpt lat="45.9986779" lon="11.7658718"><ele>670.5</ele><time>2026-04-11T12:43:05.567Z</time></trkpt><trkpt lat="45.9987265" lon="11.7658074"><ele>674.0</ele><time>2026-04-11T12:43:06.567Z</time></trkpt><trkpt lat="45.9988132" lon="11.7656982"><ele>674.0</ele><time>2026-04-11T12:43:08.568Z</time></trkpt><trkpt lat="45.998903" lon="11.7655879"><ele>674.0</ele><time>2026-04-11T12:43:10.568Z</time></trkpt><trkpt lat="45.9989521" lon="11.7655301"><ele>674.0</ele><time>2026-04-11T12:43:11.568Z</time></trkpt><trkpt lat="45.9990123" lon="11.7654688"><ele>674.0</ele><time>2026-04-11T12:43:12.568Z</time></trkpt><trkpt lat="45.9991069" lon="11.7653536"><ele>674.0</ele><time>2026-04-11T12:43:14.569Z</time></trkpt><trkpt lat="45.9992052" lon="11.7652687"><ele>678.4285714285714</ele><time>2026-04-11T12:43:16.568Z</time></trkpt><trkpt lat="45.9992671" lon="11.7652347"><ele>682.8571428571429</ele><time>2026-04-11T12:43:19.567Z</time></trkpt><trkpt lat="45.9993413" lon="11.765176"><ele>687.2857142857142</ele><time>2026-04-11T12:43:36.568Z</time></trkpt><trkpt lat="45.9994084" lon="11.7651451"><ele>691.7142857142858</ele><time>2026-04-11T12:43:41.569Z</time></trkpt><trkpt lat="45.999483" lon="11.7650796"><ele>696.1428571428571</ele><time>2026-04-11T12:43:44.568Z</time></trkpt><trkpt lat="45.9995401" lon="11.7650301"><ele>700.5714285714286</ele><time>2026-04-11T12:43:46.569Z</time></trkpt><trkpt lat="45.9996002" lon="11.7649904"><ele>705.0</ele><time>2026-04-11T12:43:48.569Z</time></trkpt><trkpt lat="45.9996715" lon="11.7649585"><ele>705.0</ele><time>2026-04-11T12:43:51.568Z</time></trkpt><trkpt lat="45.9997195" lon="11.7648986"><ele>705.0</ele><time>2026-04-11T12:43:54.568Z</time></trkpt><trkpt lat="45.9997858" lon="11.7647998"><ele>705.0</ele><time>2026-04-11T12:43:56.568Z</time></trkpt><trkpt lat="45.9998436" lon="11.7647284"><ele>705.0</ele><time>2026-04-11T12:43:58.568Z</time></trkpt><trkpt lat="45.9998986" lon="11.7646184"><ele>705.0</ele><time>2026-04-11T12:44:02.568Z</time></trkpt><trkpt lat="45.9999234" lon="11.7645273"><ele>705.0</ele><time>2026-04-11T12:44:04.568Z</time></trkpt><trkpt lat="45.9999541" lon="11.7644023"><ele>708.6666666666666</ele><time>2026-04-11T12:44:06.569Z</time></trkpt><trkpt lat="45.9999802" lon="11.7643166"><ele>712.3333333333334</ele><time>2026-04-11T12:44:07.568Z</time></trkpt><trkpt lat="46.0000244" lon="11.7641839"><ele>716.0</ele><time>2026-04-11T12:44:09.569Z</time></trkpt><trkpt lat="46.0001043" lon="11.7641295"><ele>719.6666666666667</ele><time>2026-04-11T12:44:11.568Z</time></trkpt><trkpt lat="46.0001314" lon="11.7640312"><ele>723.3333333333334</ele><time>2026-04-11T12:44:14.569Z</time></trkpt><trkpt lat="46.000061" lon="11.7639721"><ele>727.0</ele><time>2026-04-11T12:44:16.568Z</time></trkpt><trkpt lat="45.9999959" lon="11.7639429"><ele>727.0</ele><time>2026-04-11T12:44:18.569Z</time></trkpt><trkpt lat="45.9999465" lon="11.7638288"><ele>727.0</ele><time>2026-04-11T12:44:21.569Z</time></trkpt><trkpt lat="45.9999062" lon="11.7637077"><ele>727.0</ele><time>2026-04-11T12:44:23.569Z</time></trkpt><trkpt lat="45.9998754" lon="11.7636212"><ele>727.0</ele><time>2026-04-11T12:44:24.57Z</time></trkpt><trkpt lat="45.9998141" lon="11.7635082"><ele>727.0</ele><time>2026-04-11T12:44:26.569Z</time></trkpt><trkpt lat="45.9997697" lon="11.7634201"><ele>727.0</ele><time>2026-04-11T12:44:28.57Z</time></trkpt><trkpt lat="45.9997097" lon="11.7633123"><ele>733.4000000000001</ele><time>2026-04-11T12:44:30.569Z</time></trkpt><trkpt lat="45.9996617" lon="11.7632405"><ele>739.8000000000001</ele><time>2026-04-11T12:44:32.568Z</time></trkpt><trkpt lat="45.9995774" lon="11.7631407"><ele>746.2</ele><time>2026-04-11T12:44:36.569Z</time></trkpt><trkpt lat="45.9995436" lon="11.7630282"><ele>752.6</ele><time>2026-04-11T12:44:38.569Z</time></trkpt><trkpt lat="45.9994715" lon="11.7628753"><ele>759.0</ele><time>2026-04-11T12:44:40.569Z</time></trkpt><trkpt lat="45.9994251" lon="11.7627384"><ele>766.8000000000001</ele><time>2026-04-11T12:44:42.569Z</time></trkpt><trkpt lat="45.99939" lon="11.7626167"><ele>774.6</ele><time>2026-04-11T12:44:44.57Z</time></trkpt><trkpt lat="45.9993741" lon="11.762486"><ele>782.4</ele><time>2026-04-11T12:44:46.569Z</time></trkpt><trkpt lat="45.9993604" lon="11.7623566"><ele>790.2</ele><time>2026-04-11T12:44:49.569Z</time></trkpt><trkpt lat="45.9993695" lon="11.7622212"><ele>798.0</ele><time>2026-04-11T12:44:51.57Z</time></trkpt><trkpt lat="45.9993849" lon="11.7620871"><ele>798.0</ele><time>2026-04-11T12:44:53.569Z</time></trkpt><trkpt lat="45.9994149" lon="11.761911"><ele>798.0</ele><time>2026-04-11T12:44:55.57Z</time></trkpt><trkpt lat="45.9994371" lon="11.7618031"><ele>798.0</ele><time>2026-04-11T12:44:57.569Z</time></trkpt><trkpt lat="45.9994698" lon="11.7616887"><ele>798.0</ele><time>2026-04-11T12:44:59.569Z</time></trkpt><trkpt lat="45.9995009" lon="11.761597"><ele>798.0</ele><time>2026-04-11T12:45:02.569Z</time></trkpt><trkpt lat="45.9995155" lon="11.7614957"><ele>798.0</ele><time>2026-04-11T12:45:11.569Z</time></trkpt><trkpt lat="45.9995646" lon="11.7615788"><ele>798.0</ele><time>2026-04-11T12:45:38.569Z</time></trkpt><trkpt lat="45.999616" lon="11.7616799"><ele>798.0</ele><time>2026-04-11T12:45:40.57Z</time></trkpt><trkpt lat="45.9996775" lon="11.7617668"><ele>798.0</ele><time>2026-04-11T12:45:42.569Z</time></trkpt><trkpt lat="45.9997561" lon="11.7618333"><ele>798.0</ele><time>2026-04-11T12:45:44.57Z</time></trkpt><trkpt lat="45.9998457" lon="11.7618937"><ele>798.0</ele><time>2026-04-11T12:45:46.57Z</time></trkpt><trkpt lat="45.9999204" lon="11.761975"><ele>798.0</ele><time>2026-04-11T12:45:48.571Z</time></trkpt><trkpt lat="45.9999911" lon="11.7619711"><ele>798.0</ele><time>2026-04-11T12:45:51.57Z</time></trkpt><trkpt lat="45.9999851" lon="11.7618556"><ele>798.0</ele><time>2026-04-11T12:45:55.571Z</time></trkpt><trkpt lat="46.0000009" lon="11.7617533"><ele>798.0</ele><time>2026-04-11T12:45:58.571Z</time></trkpt><trkpt lat="46.0000638" lon="11.7617673"><ele>798.0</ele><time>2026-04-11T12:46:01.571Z</time></trkpt><trkpt lat="46.000104" lon="11.7616818"><ele>798.0</ele><time>2026-04-11T12:46:27.57Z</time></trkpt><trkpt lat="46.0001117" lon="11.7615762"><ele>798.0</ele><time>2026-04-11T12:46:30.571Z</time></trkpt><trkpt lat="46.0001098" lon="11.7614544"><ele>801.6666666666666</ele><time>2026-04-11T12:46:56.572Z</time></trkpt><trkpt lat="46.0001325" lon="11.761322"><ele>805.3333333333333</ele><time>2026-04-11T12:46:58.571Z</time></trkpt><trkpt lat="46.0001484" lon="11.7611968"><ele>809.0</ele><time>2026-04-11T12:47:00.571Z</time></trkpt><trkpt lat="46.000184" lon="11.7610907"><ele>812.6666666666666</ele><time>2026-04-11T12:47:02.572Z</time></trkpt><trkpt lat="46.0002004" lon="11.7609815"><ele>816.3333333333333</ele><time>2026-04-11T12:47:04.572Z</time></trkpt><trkpt lat="46.000216" lon="11.7608831"><ele>820.0</ele><time>2026-04-11T12:47:06.571Z</time></trkpt><trkpt lat="46.0002774" lon="11.7609355"><ele>819.9999999999999</ele><time>2026-04-11T12:47:10.572Z</time></trkpt><trkpt lat="46.0003197" lon="11.7610152"><ele>820.0</ele><time>2026-04-11T12:47:12.571Z</time></trkpt><trkpt lat="46.0003754" lon="11.7611143"><ele>820.0</ele><time>2026-04-11T12:47:14.571Z</time></trkpt><trkpt lat="46.000446" lon="11.7611937"><ele>820.0</ele><time>2026-04-11T12:47:16.571Z</time></trkpt><trkpt lat="46.0005218" lon="11.7612413"><ele>819.9999999999999</ele><time>2026-04-11T12:47:18.572Z</time></trkpt><trkpt lat="46.0006138" lon="11.7612701"><ele>820.0</ele><time>2026-04-11T12:47:20.571Z</time></trkpt><trkpt lat="46.0007113" lon="11.7612783"><ele>819.9999999999999</ele><time>2026-04-11T12:47:22.572Z</time></trkpt><trkpt lat="46.0007904" lon="11.761248"><ele>820.0</ele><time>2026-04-11T12:47:24.572Z</time></trkpt><trkpt lat="46.0008736" lon="11.7611638"><ele>820.0</ele><time>2026-04-11T12:47:26.572Z</time></trkpt><trkpt lat="46.0009461" lon="11.7610913"><ele>820.0</ele><time>2026-04-11T12:47:28.572Z</time></trkpt><trkpt lat="46.0009143" lon="11.7609792"><ele>819.9999999999999</ele><time>2026-04-11T12:47:31.571Z</time></trkpt><trkpt lat="46.0008958" lon="11.7608909"><ele>820.0</ele><time>2026-04-11T12:47:33.571Z</time></trkpt><trkpt lat="46.0009073" lon="11.7607939"><ele>829.1666666666666</ele><time>2026-04-11T12:47:36.572Z</time></trkpt><trkpt lat="46.0008775" lon="11.7606655"><ele>838.3333333333333</ele><time>2026-04-11T12:47:39.571Z</time></trkpt><trkpt lat="46.0008812" lon="11.7605349"><ele>847.5</ele><time>2026-04-11T12:47:41.571Z</time></trkpt><trkpt lat="46.0009028" lon="11.7604008"><ele>856.6666666666667</ele><time>2026-04-11T12:47:43.571Z</time></trkpt><trkpt lat="46.0009029" lon="11.7602915"><ele>865.8333333333334</ele><time>2026-04-11T12:47:45.572Z</time></trkpt><trkpt lat="46.0008973" lon="11.7601768"><ele>875.0</ele><time>2026-04-11T12:47:47.571Z</time></trkpt><trkpt lat="46.0009073" lon="11.7600332"><ele>873.8333333333334</ele><time>2026-04-11T12:47:49.572Z</time></trkpt><trkpt lat="46.0008917" lon="11.7599025"><ele>872.6666666666667</ele><time>2026-04-11T12:47:58.571Z</time></trkpt><trkpt lat="46.0008572" lon="11.7598124"><ele>871.5</ele><time>2026-04-11T12:48:02.573Z</time></trkpt><trkpt lat="46.0008241" lon="11.7597353"><ele>870.3333333333333</ele><time>2026-04-11T12:48:04.572Z</time></trkpt><trkpt lat="46.0007919" lon="11.7596433"><ele>869.1666666666666</ele><time>2026-04-11T12:48:06.573Z</time></trkpt><trkpt lat="46.0007115" lon="11.7595799"><ele>868.0</ele><time>2026-04-11T12:48:09.572Z</time></trkpt><trkpt lat="46.0006435" lon="11.7595629"><ele>867.9999999999999</ele><time>2026-04-11T12:48:11.572Z</time></trkpt><trkpt lat="46.0005527" lon="11.7595198"><ele>868.0</ele><time>2026-04-11T12:48:13.572Z</time></trkpt><trkpt lat="46.0004869" lon="11.7594638"><ele>868.0</ele><time>2026-04-11T12:48:16.572Z</time></trkpt><trkpt lat="46.0004286" lon="11.7594254"><ele>868.0</ele><time>2026-04-11T12:53:07.577Z</time></trkpt><trkpt lat="46.0003746" lon="11.7593675"><ele>867.9999999999999</ele><time>2026-04-11T12:53:10.577Z</time></trkpt><trkpt lat="46.0003312" lon="11.759278"><ele>868.0</ele><time>2026-04-11T12:53:14.578Z</time></trkpt><trkpt lat="46.0003335" lon="11.7590971"><ele>867.8571428571429</ele><time>2026-04-11T12:53:22.577Z</time></trkpt><trkpt lat="46.0003437" lon="11.7590074"><ele>867.7142857142858</ele><time>2026-04-11T12:53:23.576Z</time></trkpt><trkpt lat="46.00035" lon="11.7589053"><ele>867.5714285714286</ele><time>2026-04-11T12:53:24.577Z</time></trkpt><trkpt lat="46.0003654" lon="11.7588042"><ele>867.4285714285714</ele><time>2026-04-11T12:53:25.577Z</time></trkpt><trkpt lat="46.0003892" lon="11.7587013"><ele>867.2857142857143</ele><time>2026-04-11T12:53:26.576Z</time></trkpt><trkpt lat="46.0004206" lon="11.7586001"><ele>867.1428571428571</ele><time>2026-04-11T12:53:27.576Z</time></trkpt><trkpt lat="46.0004614" lon="11.7585009"><ele>867.0</ele><time>2026-04-11T12:53:28.578Z</time></trkpt><trkpt lat="46.0005034" lon="11.7584064"><ele>867.0</ele><time>2026-04-11T12:53:29.577Z</time></trkpt><trkpt lat="46.0005427" lon="11.7583217"><ele>867.0</ele><time>2026-04-11T12:53:30.576Z</time></trkpt><trkpt lat="46.0005749" lon="11.7582414"><ele>867.0</ele><time>2026-04-11T12:53:31.577Z</time></trkpt><trkpt lat="46.0006056" lon="11.7581567"><ele>867.0</ele><time>2026-04-11T12:53:32.577Z</time></trkpt><trkpt lat="46.0006292" lon="11.7580656"><ele>867.0</ele><time>2026-04-11T12:53:33.576Z</time></trkpt><trkpt lat="46.0006473" lon="11.7579635"><ele>867.0</ele><time>2026-04-11T12:53:34.578Z</time></trkpt><trkpt lat="46.0006596" lon="11.7578546"><ele>867.0</ele><time>2026-04-11T12:53:35.577Z</time></trkpt><trkpt lat="46.0006759" lon="11.7577533"><ele>869.3333333333334</ele><time>2026-04-11T12:53:36.577Z</time></trkpt><trkpt lat="46.0006905" lon="11.7576522"><ele>871.6666666666667</ele><time>2026-04-11T12:53:37.576Z</time></trkpt><trkpt lat="46.0007022" lon="11.7575516"><ele>874.0</ele><time>2026-04-11T12:53:38.577Z</time></trkpt><trkpt lat="46.0007156" lon="11.7574571"><ele>876.3333333333334</ele><time>2026-04-11T12:53:39.577Z</time></trkpt><trkpt lat="46.0007487" lon="11.757308"><ele>878.6666666666667</ele><time>2026-04-11T12:53:41.577Z</time></trkpt><trkpt lat="46.0007643" lon="11.7572166"><ele>881.0</ele><time>2026-04-11T12:53:44.577Z</time></trkpt><trkpt lat="46.000671" lon="11.7571729"><ele>881.0</ele><time>2026-04-11T12:53:47.577Z</time></trkpt><trkpt lat="46.0005501" lon="11.7571174"><ele>880.9999999999999</ele><time>2026-04-11T12:53:49.577Z</time></trkpt><trkpt lat="46.000445" lon="11.7570432"><ele>880.9999999999999</ele><time>2026-04-11T12:53:51.578Z</time></trkpt><trkpt lat="46.0003717" lon="11.7569785"><ele>881.0</ele><time>2026-04-11T12:53:52.578Z</time></trkpt><trkpt lat="46.000314" lon="11.7569273"><ele>881.0</ele><time>2026-04-11T12:53:53.577Z</time></trkpt><trkpt lat="46.0002587" lon="11.7568807"><ele>887.8</ele><time>2026-04-11T12:53:54.578Z</time></trkpt><trkpt lat="46.0002007" lon="11.756835"><ele>894.5999999999999</ele><time>2026-04-11T12:53:55.578Z</time></trkpt><trkpt lat="46.0001318" lon="11.7567788"><ele>901.4</ele><time>2026-04-11T12:53:56.578Z</time></trkpt><trkpt lat="46.0000574" lon="11.7566895"><ele>908.2</ele><time>2026-04-11T12:53:57.577Z</time></trkpt><trkpt lat="45.9999738" lon="11.7565885"><ele>915.0</ele><time>2026-04-11T12:53:58.578Z</time></trkpt><trkpt lat="45.9998862" lon="11.7564743"><ele>915.0</ele><time>2026-04-11T12:53:59.577Z</time></trkpt><trkpt lat="45.9998017" lon="11.7563689"><ele>915.0</ele><time>2026-04-11T12:54:00.577Z</time></trkpt><trkpt lat="45.9997273" lon="11.7562734"><ele>915.0</ele><time>2026-04-11T12:54:01.578Z</time></trkpt><trkpt lat="45.9996496" lon="11.756181"><ele>915.0</ele><time>2026-04-11T12:54:02.577Z</time></trkpt><trkpt lat="45.9995782" lon="11.7560993"><ele>915.0</ele><time>2026-04-11T12:54:03.579Z</time></trkpt><trkpt lat="45.9994941" lon="11.7560147"><ele>919.0</ele><time>2026-04-11T12:54:04.577Z</time></trkpt><trkpt lat="45.9994421" lon="11.7559319"><ele>923.0</ele><time>2026-04-11T12:54:05.577Z</time></trkpt><trkpt lat="45.9993711" lon="11.7558186"><ele>927.0</ele><time>2026-04-11T12:54:07.579Z</time></trkpt><trkpt lat="45.9994343" lon="11.7557714"><ele>931.0</ele><time>2026-04-11T12:54:12.577Z</time></trkpt><trkpt lat="45.9995432" lon="11.7558541"><ele>935.0</ele><time>2026-04-11T12:54:14.577Z</time></trkpt><trkpt lat="45.9996126" lon="11.7559062"><ele>935.0000000000001</ele><time>2026-04-11T12:54:15.577Z</time></trkpt><trkpt lat="45.9996803" lon="11.7559494"><ele>935.0</ele><time>2026-04-11T12:54:16.578Z</time></trkpt><trkpt lat="45.9997544" lon="11.7559809"><ele>935.0</ele><time>2026-04-11T12:54:17.579Z</time></trkpt><trkpt lat="45.9998297" lon="11.7560141"><ele>935.0</ele><time>2026-04-11T12:54:18.577Z</time></trkpt><trkpt lat="45.9999105" lon="11.7560304"><ele>935.0000000000001</ele><time>2026-04-11T12:54:19.579Z</time></trkpt><trkpt lat="45.9999811" lon="11.7560592"><ele>935.0</ele><time>2026-04-11T12:54:20.579Z</time></trkpt><trkpt lat="46.0000768" lon="11.7561185"><ele>931.0</ele><time>2026-04-11T12:54:22.577Z</time></trkpt><trkpt lat="46.0001811" lon="11.7561502"><ele>927.0</ele><time>2026-04-11T12:54:24.577Z</time></trkpt><trkpt lat="46.0002858" lon="11.7561615"><ele>923.0</ele><time>2026-04-11T12:54:26.577Z</time></trkpt><trkpt lat="46.0003924" lon="11.7562138"><ele>919.0</ele><time>2026-04-11T12:54:28.578Z</time></trkpt><trkpt lat="46.0004528" lon="11.7562649"><ele>915.0</ele><time>2026-04-11T12:54:29.577Z</time></trkpt><trkpt lat="46.0005134" lon="11.7563082"><ele>915.0</ele><time>2026-04-11T12:54:30.579Z</time></trkpt><trkpt lat="46.0005775" lon="11.7563605"><ele>915.0</ele><time>2026-04-11T12:54:31.578Z</time></trkpt><trkpt lat="46.0006553" lon="11.7564425"><ele>915.0</ele><time>2026-04-11T12:54:32.577Z</time></trkpt><trkpt lat="46.0007161" lon="11.756504"><ele>915.0</ele><time>2026-04-11T12:54:33.578Z</time></trkpt><trkpt lat="46.0007701" lon="11.7565892"><ele>915.0</ele><time>2026-04-11T12:54:34.578Z</time></trkpt><trkpt lat="46.0007927" lon="11.7564769"><ele>915.0</ele><time>2026-04-11T12:54:38.578Z</time></trkpt><trkpt lat="46.0007465" lon="11.7563939"><ele>915.0</ele><time>2026-04-11T12:54:39.578Z</time></trkpt><trkpt lat="46.0006834" lon="11.7562777"><ele>915.0</ele><time>2026-04-11T12:54:40.578Z</time></trkpt><trkpt lat="46.0006143" lon="11.7561291"><ele>915.0</ele><time>2026-04-11T12:54:41.579Z</time></trkpt><trkpt lat="46.0005551" lon="11.7559758"><ele>915.0</ele><time>2026-04-11T12:54:42.579Z</time></trkpt><trkpt lat="46.0005107" lon="11.7558438"><ele>919.0</ele><time>2026-04-11T12:54:43.578Z</time></trkpt><trkpt lat="46.000476" lon="11.755709"><ele>923.0</ele><time>2026-04-11T12:54:44.578Z</time></trkpt><trkpt lat="46.0004387" lon="11.7555744"><ele>927.0</ele><time>2026-04-11T12:54:45.578Z</time></trkpt><trkpt lat="46.0004046" lon="11.755458"><ele>931.0</ele><time>2026-04-11T12:54:46.578Z</time></trkpt><trkpt lat="46.0003875" lon="11.7553397"><ele>935.0</ele><time>2026-04-11T12:54:47.579Z</time></trkpt><trkpt lat="46.0003779" lon="11.7552106"><ele>935.1666666666667</ele><time>2026-04-11T12:54:48.578Z</time></trkpt><trkpt lat="46.0003802" lon="11.7550819"><ele>935.3333333333334</ele><time>2026-04-11T12:54:49.578Z</time></trkpt><trkpt lat="46.0003904" lon="11.7549782"><ele>935.5</ele><time>2026-04-11T12:54:50.578Z</time></trkpt><trkpt lat="46.0004143" lon="11.754862"><ele>935.6666666666667</ele><time>2026-04-11T12:54:51.578Z</time></trkpt><trkpt lat="46.0004389" lon="11.7547396"><ele>935.8333333333334</ele><time>2026-04-11T12:54:52.579Z</time></trkpt><trkpt lat="46.0004658" lon="11.754624"><ele>936.0</ele><time>2026-04-11T12:54:53.578Z</time></trkpt><trkpt lat="46.0004947" lon="11.754532"><ele>936.0</ele><time>2026-04-11T12:54:54.578Z</time></trkpt><trkpt lat="46.0005151" lon="11.7544394"><ele>936.0</ele><time>2026-04-11T12:54:55.578Z</time></trkpt><trkpt lat="46.000519" lon="11.754334"><ele>936.0</ele><time>2026-04-11T12:54:56.578Z</time></trkpt><trkpt lat="46.0005121" lon="11.7542322"><ele>936.0</ele><time>2026-04-11T12:54:57.579Z</time></trkpt><trkpt lat="46.0005039" lon="11.7541173"><ele>936.0</ele><time>2026-04-11T12:54:58.578Z</time></trkpt><trkpt lat="46.0005074" lon="11.7540222"><ele>936.0</ele><time>2026-04-11T12:54:59.578Z</time></trkpt><trkpt lat="46.0005409" lon="11.7538412"><ele>936.4</ele><time>2026-04-11T12:55:01.579Z</time></trkpt><trkpt lat="46.0005677" lon="11.7537385"><ele>936.8</ele><time>2026-04-11T12:55:02.579Z</time></trkpt><trkpt lat="46.0006006" lon="11.7536237"><ele>937.1999999999999</ele><time>2026-04-11T12:55:03.578Z</time></trkpt><trkpt lat="46.0006242" lon="11.7535096"><ele>937.5999999999999</ele><time>2026-04-11T12:55:04.578Z</time></trkpt><trkpt lat="46.0006564" lon="11.7533574"><ele>938.0</ele><time>2026-04-11T12:55:06.579Z</time></trkpt><trkpt lat="46.0006938" lon="11.7532325"><ele>938.0</ele><time>2026-04-11T12:55:08.578Z</time></trkpt><trkpt lat="46.0007809" lon="11.7531321"><ele>938.0</ele><time>2026-04-11T12:55:10.579Z</time></trkpt><trkpt lat="46.0008835" lon="11.7530196"><ele>938.0</ele><time>2026-04-11T12:55:12.579Z</time></trkpt><trkpt lat="46.0009522" lon="11.752924"><ele>938.0</ele><time>2026-04-11T12:55:13.579Z</time></trkpt><trkpt lat="46.0011118" lon="11.7527826"><ele>942.0</ele><time>2026-04-11T12:55:15.579Z</time></trkpt><trkpt lat="46.0011864" lon="11.7527094"><ele>946.0</ele><time>2026-04-11T12:55:16.578Z</time></trkpt><trkpt lat="46.0012656" lon="11.7526345"><ele>950.0</ele><time>2026-04-11T12:55:17.579Z</time></trkpt><trkpt lat="46.0013462" lon="11.7525541"><ele>954.0</ele><time>2026-04-11T12:55:18.579Z</time></trkpt><trkpt lat="46.0014268" lon="11.752478"><ele>958.0</ele><time>2026-04-11T12:55:19.579Z</time></trkpt><trkpt lat="46.0015134" lon="11.7523979"><ele>958.0</ele><time>2026-04-11T12:55:20.579Z</time></trkpt><trkpt lat="46.0016011" lon="11.7523202"><ele>958.0</ele><time>2026-04-11T12:55:21.578Z</time></trkpt><trkpt lat="46.0016946" lon="11.7522315"><ele>958.0</ele><time>2026-04-11T12:55:22.579Z</time></trkpt><trkpt lat="46.0017805" lon="11.7521582"><ele>958.0</ele><time>2026-04-11T12:55:23.579Z</time></trkpt><trkpt lat="46.0018569" lon="11.752101"><ele>958.0</ele><time>2026-04-11T12:55:24.579Z</time></trkpt><trkpt lat="46.0019232" lon="11.7520231"><ele>963.4</ele><time>2026-04-11T12:55:25.579Z</time></trkpt><trkpt lat="46.0019908" lon="11.7519611"><ele>968.8</ele><time>2026-04-11T12:55:27.579Z</time></trkpt><trkpt lat="46.0019764" lon="11.7520735"><ele>974.2</ele><time>2026-04-11T12:55:30.579Z</time></trkpt><trkpt lat="46.0018986" lon="11.7522161"><ele>979.6</ele><time>2026-04-11T12:55:32.578Z</time></trkpt><trkpt lat="46.001828" lon="11.752335"><ele>985.0</ele><time>2026-04-11T12:55:33.579Z</time></trkpt><trkpt lat="46.0017586" lon="11.7524652"><ele>985.0</ele><time>2026-04-11T12:55:34.579Z</time></trkpt><trkpt lat="46.0016941" lon="11.7526235"><ele>985.0</ele><time>2026-04-11T12:55:35.579Z</time></trkpt><trkpt lat="46.0016354" lon="11.752759"><ele>985.0</ele><time>2026-04-11T12:55:36.578Z</time></trkpt><trkpt lat="46.0015352" lon="11.7530174"><ele>985.0</ele><time>2026-04-11T12:55:38.578Z</time></trkpt><trkpt lat="46.0014977" lon="11.753145"><ele>982.6</ele><time>2026-04-11T12:55:39.579Z</time></trkpt><trkpt lat="46.0014728" lon="11.7532871"><ele>980.2</ele><time>2026-04-11T12:55:40.578Z</time></trkpt><trkpt lat="46.0014638" lon="11.7534284"><ele>977.8</ele><time>2026-04-11T12:55:41.578Z</time></trkpt><trkpt lat="46.0014586" lon="11.7535626"><ele>975.4</ele><time>2026-04-11T12:55:42.579Z</time></trkpt><trkpt lat="46.0014677" lon="11.7536973"><ele>973.0</ele><time>2026-04-11T12:55:43.579Z</time></trkpt><trkpt lat="46.0014815" lon="11.7538293"><ele>973.0</ele><time>2026-04-11T12:55:44.58Z</time></trkpt><trkpt lat="46.0014986" lon="11.7539624"><ele>973.0</ele><time>2026-04-11T12:55:45.579Z</time></trkpt><trkpt lat="46.0015217" lon="11.7540948"><ele>973.0</ele><time>2026-04-11T12:55:46.578Z</time></trkpt><trkpt lat="46.0015485" lon="11.7542362"><ele>973.0</ele><time>2026-04-11T12:55:47.58Z</time></trkpt><trkpt lat="46.0015739" lon="11.7543734"><ele>973.0</ele><time>2026-04-11T12:55:48.578Z</time></trkpt><trkpt lat="46.0016027" lon="11.7545036"><ele>972.2</ele><time>2026-04-11T12:55:49.579Z</time></trkpt><trkpt lat="46.0016342" lon="11.7546353"><ele>971.4</ele><time>2026-04-11T12:55:50.579Z</time></trkpt><trkpt lat="46.0016641" lon="11.7547627"><ele>970.6000000000001</ele><time>2026-04-11T12:55:51.578Z</time></trkpt><trkpt lat="46.0016968" lon="11.7548746"><ele>969.8000000000001</ele><time>2026-04-11T12:55:52.579Z</time></trkpt><trkpt lat="46.0017298" lon="11.7549685"><ele>969.0</ele><time>2026-04-11T12:55:53.58Z</time></trkpt><trkpt lat="46.0017763" lon="11.7551039"><ele>972.6666666666666</ele><time>2026-04-11T12:55:55.579Z</time></trkpt><trkpt lat="46.0017918" lon="11.7551928"><ele>976.3333333333333</ele><time>2026-04-11T12:55:57.578Z</time></trkpt><trkpt lat="46.001819" lon="11.7552951"><ele>980.0</ele><time>2026-04-11T12:55:59.579Z</time></trkpt><trkpt lat="46.0018602" lon="11.7554396"><ele>983.6666666666666</ele><time>2026-04-11T12:56:01.578Z</time></trkpt><trkpt lat="46.0018882" lon="11.7555318"><ele>987.3333333333333</ele><time>2026-04-11T12:56:02.579Z</time></trkpt><trkpt lat="46.0019279" lon="11.7556355"><ele>991.0</ele><time>2026-04-11T12:56:03.58Z</time></trkpt><trkpt lat="46.0019765" lon="11.7557767"><ele>991.0</ele><time>2026-04-11T12:56:04.58Z</time></trkpt><trkpt lat="46.002021" lon="11.7559062"><ele>991.0</ele><time>2026-04-11T12:56:05.579Z</time></trkpt><trkpt lat="46.0020745" lon="11.7560575"><ele>991.0</ele><time>2026-04-11T12:56:06.58Z</time></trkpt><trkpt lat="46.0021258" lon="11.7562111"><ele>991.0</ele><time>2026-04-11T12:56:07.58Z</time></trkpt><trkpt lat="46.0022098" lon="11.7564562"><ele>989.0000000000001</ele><time>2026-04-11T12:56:09.579Z</time></trkpt><trkpt lat="46.0022391" lon="11.7565528"><ele>987.0</ele><time>2026-04-11T12:56:10.58Z</time></trkpt><trkpt lat="46.0022719" lon="11.7566474"><ele>985.0000000000001</ele><time>2026-04-11T12:56:11.58Z</time></trkpt><trkpt lat="46.0023042" lon="11.7567356"><ele>983.0000000000001</ele><time>2026-04-11T12:56:12.58Z</time></trkpt><trkpt lat="46.002334" lon="11.7568237"><ele>981.0</ele><time>2026-04-11T12:56:13.58Z</time></trkpt><trkpt lat="46.0023545" lon="11.7569128"><ele>979.0000000000001</ele><time>2026-04-11T12:56:14.579Z</time></trkpt><trkpt lat="46.0023689" lon="11.7570043"><ele>977.0000000000001</ele><time>2026-04-11T12:56:15.58Z</time></trkpt><trkpt lat="46.0023854" lon="11.7570992"><ele>974.6666666666667</ele><time>2026-04-11T12:56:16.58Z</time></trkpt><trkpt lat="46.0024144" lon="11.7571832"><ele>972.3333333333334</ele><time>2026-04-11T12:56:17.579Z</time></trkpt><trkpt lat="46.002453" lon="11.757258"><ele>970.0</ele><time>2026-04-11T12:56:18.579Z</time></trkpt><trkpt lat="46.0025442" lon="11.7573837"><ele>967.6666666666667</ele><time>2026-04-11T12:56:20.58Z</time></trkpt><trkpt lat="46.0025985" lon="11.7574383"><ele>965.3333333333334</ele><time>2026-04-11T12:56:21.579Z</time></trkpt><trkpt lat="46.0026559" lon="11.7574878"><ele>963.0</ele><time>2026-04-11T12:56:22.58Z</time></trkpt><trkpt lat="46.0027204" lon="11.7575217"><ele>964.5714285714287</ele><time>2026-04-11T12:56:23.58Z</time></trkpt><trkpt lat="46.0027861" lon="11.7575506"><ele>966.1428571428571</ele><time>2026-04-11T12:56:24.58Z</time></trkpt><trkpt lat="46.0028519" lon="11.7575753"><ele>967.7142857142858</ele><time>2026-04-11T12:56:25.579Z</time></trkpt><trkpt lat="46.0029122" lon="11.7576044"><ele>969.2857142857143</ele><time>2026-04-11T12:56:26.58Z</time></trkpt><trkpt lat="46.0029757" lon="11.7576502"><ele>970.8571428571429</ele><time>2026-04-11T12:56:27.579Z</time></trkpt><trkpt lat="46.0030304" lon="11.7577303"><ele>972.4285714285714</ele><time>2026-04-11T12:56:28.579Z</time></trkpt><trkpt lat="46.003079" lon="11.7578335"><ele>974.0</ele><time>2026-04-11T12:56:29.579Z</time></trkpt><trkpt lat="46.0031246" lon="11.7579418"><ele>974.0</ele><time>2026-04-11T12:56:30.58Z</time></trkpt><trkpt lat="46.0031716" lon="11.7580537"><ele>974.0000000000001</ele><time>2026-04-11T12:56:31.58Z</time></trkpt><trkpt lat="46.0032226" lon="11.7581568"><ele>974.0000000000001</ele><time>2026-04-11T12:56:32.579Z</time></trkpt><trkpt lat="46.0032935" lon="11.7582653"><ele>974.0</ele><time>2026-04-11T12:56:33.58Z</time></trkpt><trkpt lat="46.0033707" lon="11.7583657"><ele>974.0</ele><time>2026-04-11T12:56:34.58Z</time></trkpt><trkpt lat="46.0034501" lon="11.7584609"><ele>975.8000000000001</ele><time>2026-04-11T12:56:35.58Z</time></trkpt><trkpt lat="46.0035197" lon="11.7585514"><ele>977.6000000000001</ele><time>2026-04-11T12:56:36.579Z</time></trkpt><trkpt lat="46.0035958" lon="11.7586393"><ele>979.4</ele><time>2026-04-11T12:56:37.58Z</time></trkpt><trkpt lat="46.0036642" lon="11.7587232"><ele>981.2</ele><time>2026-04-11T12:56:38.579Z</time></trkpt><trkpt lat="46.0037363" lon="11.7587959"><ele>983.0</ele><time>2026-04-11T12:56:39.581Z</time></trkpt><trkpt lat="46.0038074" lon="11.7588546"><ele>983.0000000000001</ele><time>2026-04-11T12:56:40.579Z</time></trkpt><trkpt lat="46.0038674" lon="11.7588887"><ele>983.0</ele><time>2026-04-11T12:56:41.581Z</time></trkpt><trkpt lat="46.0039386" lon="11.7589001"><ele>983.0</ele><time>2026-04-11T12:56:43.581Z</time></trkpt><trkpt lat="46.0039574" lon="11.7587617"><ele>983.0</ele><time>2026-04-11T12:56:47.579Z</time></trkpt><trkpt lat="46.0039329" lon="11.7586779"><ele>983.0000000000001</ele><time>2026-04-11T12:56:48.58Z</time></trkpt><trkpt lat="46.0038968" lon="11.7585807"><ele>983.0</ele><time>2026-04-11T12:56:49.58Z</time></trkpt><trkpt lat="46.0038435" lon="11.758449"><ele>987.4</ele><time>2026-04-11T12:56:50.58Z</time></trkpt><trkpt lat="46.0038014" lon="11.7582941"><ele>991.8</ele><time>2026-04-11T12:56:51.58Z</time></trkpt><trkpt lat="46.0037619" lon="11.7581464"><ele>996.2</ele><time>2026-04-11T12:56:52.581Z</time></trkpt><trkpt lat="46.0037224" lon="11.758003"><ele>1000.6</ele><time>2026-04-11T12:56:53.579Z</time></trkpt><trkpt lat="46.0036771" lon="11.7578705"><ele>1005.0</ele><time>2026-04-11T12:56:54.58Z</time></trkpt><trkpt lat="46.0036279" lon="11.7577467"><ele>1005.0</ele><time>2026-04-11T12:56:55.58Z</time></trkpt><trkpt lat="46.0035834" lon="11.7576743"><ele>1005.0</ele><time>2026-04-11T12:56:56.58Z</time></trkpt><trkpt lat="46.0036743" lon="11.7577268"><ele>1005.0</ele><time>2026-04-11T12:57:01.58Z</time></trkpt><trkpt lat="46.0037304" lon="11.7578088"><ele>1005.0</ele><time>2026-04-11T12:57:02.581Z</time></trkpt><trkpt lat="46.0038065" lon="11.7579083"><ele>1005.0</ele><time>2026-04-11T12:57:03.581Z</time></trkpt><trkpt lat="46.0038927" lon="11.7579614"><ele>1005.0</ele><time>2026-04-11T12:57:04.58Z</time></trkpt><trkpt lat="46.0039749" lon="11.7580208"><ele>1005.0</ele><time>2026-04-11T12:57:05.58Z</time></trkpt><trkpt lat="46.0040561" lon="11.7580844"><ele>1005.0</ele><time>2026-04-11T12:57:06.581Z</time></trkpt><trkpt lat="46.0041424" lon="11.7581549"><ele>1005.0</ele><time>2026-04-11T12:57:07.58Z</time></trkpt><trkpt lat="46.0042266" lon="11.758229"><ele>1005.0</ele><time>2026-04-11T12:57:08.579Z</time></trkpt><trkpt lat="46.0043059" lon="11.7583075"><ele>1005.0</ele><time>2026-04-11T12:57:09.581Z</time></trkpt><trkpt lat="46.0043847" lon="11.7583959"><ele>1007.2</ele><time>2026-04-11T12:57:10.579Z</time></trkpt><trkpt lat="46.0044611" lon="11.7584845"><ele>1009.4</ele><time>2026-04-11T12:57:11.58Z</time></trkpt><trkpt lat="46.004532" lon="11.7585771"><ele>1011.5999999999999</ele><time>2026-04-11T12:57:12.58Z</time></trkpt><trkpt lat="46.0045999" lon="11.7586692"><ele>1013.8</ele><time>2026-04-11T12:57:13.579Z</time></trkpt><trkpt lat="46.0046666" lon="11.7587691"><ele>1016.0</ele><time>2026-04-11T12:57:14.579Z</time></trkpt><trkpt lat="46.004715" lon="11.7588615"><ele>1016.0000000000001</ele><time>2026-04-11T12:57:15.581Z</time></trkpt><trkpt lat="46.0047625" lon="11.7589565"><ele>1016.0</ele><time>2026-04-11T12:57:16.58Z</time></trkpt><trkpt lat="46.0048035" lon="11.7590424"><ele>1016.0</ele><time>2026-04-11T12:57:17.581Z</time></trkpt><trkpt lat="46.0048438" lon="11.7591183"><ele>1016.0</ele><time>2026-04-11T12:57:18.581Z</time></trkpt><trkpt lat="46.0048962" lon="11.759237"><ele>1016.0000000000001</ele><time>2026-04-11T12:57:20.581Z</time></trkpt><trkpt lat="46.0049409" lon="11.7593072"><ele>1016.0</ele><time>2026-04-11T12:57:22.58Z</time></trkpt><trkpt lat="46.0049603" lon="11.7594469"><ele>1020.1999999999999</ele><time>2026-04-11T12:57:24.581Z</time></trkpt><trkpt lat="46.0049683" lon="11.7595723"><ele>1024.3999999999999</ele><time>2026-04-11T12:57:25.581Z</time></trkpt><trkpt lat="46.0049808" lon="11.7597293"><ele>1028.6</ele><time>2026-04-11T12:57:26.58Z</time></trkpt><trkpt lat="46.0049975" lon="11.7598888"><ele>1032.8</ele><time>2026-04-11T12:57:27.581Z</time></trkpt><trkpt lat="46.0050175" lon="11.76004"><ele>1037.0</ele><time>2026-04-11T12:57:28.58Z</time></trkpt><trkpt lat="46.0050346" lon="11.7601727"><ele>1034.8333333333335</ele><time>2026-04-11T12:57:29.581Z</time></trkpt><trkpt lat="46.00506" lon="11.7603241"><ele>1032.6666666666667</ele><time>2026-04-11T12:57:30.58Z</time></trkpt><trkpt lat="46.0050852" lon="11.7604668"><ele>1030.5</ele><time>2026-04-11T12:57:31.581Z</time></trkpt><trkpt lat="46.0051087" lon="11.7605893"><ele>1028.3333333333333</ele><time>2026-04-11T12:57:32.581Z</time></trkpt><trkpt lat="46.0051346" lon="11.7606728"><ele>1026.1666666666665</ele><time>2026-04-11T12:57:33.582Z</time></trkpt><trkpt lat="46.005187" lon="11.7607242"><ele>1024.0</ele><time>2026-04-11T12:57:41.58Z</time></trkpt><trkpt lat="46.0052123" lon="11.7608146"><ele>1024.0</ele><time>2026-04-11T12:57:52.581Z</time></trkpt><trkpt lat="46.0052105" lon="11.7607119"><ele>1024.0</ele><time>2026-04-11T12:58:22.58Z</time></trkpt><trkpt lat="46.0051731" lon="11.7606069"><ele>1024.0</ele><time>2026-04-11T13:07:27.588Z</time></trkpt><trkpt lat="46.0051412" lon="11.7604906"><ele>1024.0</ele><time>2026-04-11T13:07:29.588Z</time></trkpt><trkpt lat="46.0051061" lon="11.7603383"><ele>1024.0</ele><time>2026-04-11T13:07:31.589Z</time></trkpt><trkpt lat="46.0050786" lon="11.7601618"><ele>1025.857142857143</ele><time>2026-04-11T13:07:33.589Z</time></trkpt><trkpt lat="46.0050614" lon="11.7600663"><ele>1027.7142857142856</ele><time>2026-04-11T13:07:34.589Z</time></trkpt><trkpt lat="46.0050469" lon="11.7599718"><ele>1029.5714285714284</ele><time>2026-04-11T13:07:35.59Z</time></trkpt><trkpt lat="46.0050322" lon="11.7598704"><ele>1031.4285714285713</ele><time>2026-04-11T13:07:36.588Z</time></trkpt><trkpt lat="46.0050185" lon="11.7597705"><ele>1033.2857142857142</ele><time>2026-04-11T13:07:37.59Z</time></trkpt><trkpt lat="46.0050118" lon="11.7596719"><ele>1035.142857142857</ele><time>2026-04-11T13:07:38.589Z</time></trkpt><trkpt lat="46.0050017" lon="11.7595757"><ele>1037.0</ele><time>2026-04-11T13:07:39.589Z</time></trkpt><trkpt lat="46.0049889" lon="11.7594834"><ele>1034.0</ele><time>2026-04-11T13:07:40.59Z</time></trkpt><trkpt lat="46.0049788" lon="11.7593804"><ele>1031.0</ele><time>2026-04-11T13:07:41.589Z</time></trkpt><trkpt lat="46.0049652" lon="11.7592856"><ele>1028.0</ele><time>2026-04-11T13:07:42.589Z</time></trkpt><trkpt lat="46.0049417" lon="11.7591909"><ele>1025.0</ele><time>2026-04-11T13:07:43.589Z</time></trkpt><trkpt lat="46.0049145" lon="11.7590953"><ele>1022.0</ele><time>2026-04-11T13:07:44.59Z</time></trkpt><trkpt lat="46.0048909" lon="11.758998"><ele>1019.0</ele><time>2026-04-11T13:07:45.588Z</time></trkpt><trkpt lat="46.0048668" lon="11.7589006"><ele>1016.0</ele><time>2026-04-11T13:07:46.589Z</time></trkpt><trkpt lat="46.0048502" lon="11.7587999"><ele>1016.0000000000001</ele><time>2026-04-11T13:07:47.59Z</time></trkpt><trkpt lat="46.0048348" lon="11.7586979"><ele>1016.0</ele><time>2026-04-11T13:07:48.59Z</time></trkpt><trkpt lat="46.0048235" lon="11.7585949"><ele>1016.0</ele><time>2026-04-11T13:07:49.589Z</time></trkpt><trkpt lat="46.0048143" lon="11.7584914"><ele>1016.0</ele><time>2026-04-11T13:07:50.59Z</time></trkpt><trkpt lat="46.0048047" lon="11.7583955"><ele>1016.0000000000001</ele><time>2026-04-11T13:07:51.59Z</time></trkpt><trkpt lat="46.0047786" lon="11.7582095"><ele>1016.0</ele><time>2026-04-11T13:07:53.589Z</time></trkpt><trkpt lat="46.0047537" lon="11.7581097"><ele>1018.3333333333334</ele><time>2026-04-11T13:07:54.59Z</time></trkpt><trkpt lat="46.0047185" lon="11.7579911"><ele>1020.6666666666667</ele><time>2026-04-11T13:07:55.59Z</time></trkpt><trkpt lat="46.0046804" lon="11.7578676"><ele>1023.0</ele><time>2026-04-11T13:07:56.589Z</time></trkpt><trkpt lat="46.0046332" lon="11.7577504"><ele>1025.3333333333333</ele><time>2026-04-11T13:07:57.592Z</time></trkpt><trkpt lat="46.0045906" lon="11.7576415"><ele>1027.6666666666665</ele><time>2026-04-11T13:07:58.589Z</time></trkpt><trkpt lat="46.0045468" lon="11.7575489"><ele>1030.0</ele><time>2026-04-11T13:07:59.589Z</time></trkpt><trkpt lat="46.0045045" lon="11.7574799"><ele>1030.0</ele><time>2026-04-11T13:08:00.589Z</time></trkpt><trkpt lat="46.0044773" lon="11.757394"><ele>1030.0</ele><time>2026-04-11T13:08:02.59Z</time></trkpt><trkpt lat="46.0045491" lon="11.7573776"><ele>1030.0</ele><time>2026-04-11T13:08:05.589Z</time></trkpt><trkpt lat="46.004635" lon="11.7574382"><ele>1030.0</ele><time>2026-04-11T13:08:07.59Z</time></trkpt><trkpt lat="46.0046866" lon="11.7574932"><ele>1030.0</ele><time>2026-04-11T13:08:08.59Z</time></trkpt><trkpt lat="46.004743" lon="11.757557"><ele>1030.0</ele><time>2026-04-11T13:08:09.589Z</time></trkpt><trkpt lat="46.0048029" lon="11.7576312"><ele>1030.0</ele><time>2026-04-11T13:08:10.59Z</time></trkpt><trkpt lat="46.0048601" lon="11.7577098"><ele>1030.0</ele><time>2026-04-11T13:08:11.59Z</time></trkpt><trkpt lat="46.0049119" lon="11.7577919"><ele>1030.0</ele><time>2026-04-11T13:08:12.59Z</time></trkpt><trkpt lat="46.00496" lon="11.7578844"><ele>1030.0</ele><time>2026-04-11T13:08:13.589Z</time></trkpt><trkpt lat="46.0050065" lon="11.7579749"><ele>1030.0</ele><time>2026-04-11T13:08:14.59Z</time></trkpt><trkpt lat="46.0050534" lon="11.7580684"><ele>1030.0</ele><time>2026-04-11T13:08:15.589Z</time></trkpt><trkpt lat="46.0050971" lon="11.7581511"><ele>1030.0</ele><time>2026-04-11T13:08:16.589Z</time></trkpt><trkpt lat="46.0051403" lon="11.7582201"><ele>1034.4</ele><time>2026-04-11T13:08:17.59Z</time></trkpt><trkpt lat="46.0052257" lon="11.7583417"><ele>1038.8</ele><time>2026-04-11T13:08:19.59Z</time></trkpt><trkpt lat="46.0053103" lon="11.758481"><ele>1043.2</ele><time>2026-04-11T13:08:21.59Z</time></trkpt><trkpt lat="46.0053614" lon="11.758568"><ele>1047.6</ele><time>2026-04-11T13:08:22.59Z</time></trkpt><trkpt lat="46.0054117" lon="11.7586506"><ele>1052.0</ele><time>2026-04-11T13:08:23.59Z</time></trkpt><trkpt lat="46.005456" lon="11.758725"><ele>1052.0</ele><time>2026-04-11T13:08:24.589Z</time></trkpt><trkpt lat="46.0055183" lon="11.758824"><ele>1052.0</ele><time>2026-04-11T13:08:26.591Z</time></trkpt><trkpt lat="46.0055238" lon="11.7587228"><ele>1052.0</ele><time>2026-04-11T13:08:48.59Z</time></trkpt><trkpt lat="46.0054766" lon="11.758583"><ele>1052.0</ele><time>2026-04-11T13:08:50.589Z</time></trkpt><trkpt lat="46.0054203" lon="11.7584676"><ele>1052.0</ele><time>2026-04-11T13:08:52.591Z</time></trkpt><trkpt lat="46.0053984" lon="11.758375"><ele>1052.0</ele><time>2026-04-11T13:08:53.59Z</time></trkpt><trkpt lat="46.0053804" lon="11.7582581"><ele>1055.4</ele><time>2026-04-11T13:08:54.591Z</time></trkpt><trkpt lat="46.0053758" lon="11.7581448"><ele>1058.8000000000002</ele><time>2026-04-11T13:08:55.59Z</time></trkpt><trkpt lat="46.0053668" lon="11.7579977"><ele>1062.2</ele><time>2026-04-11T13:08:57.59Z</time></trkpt><trkpt lat="46.005364" lon="11.7578896"><ele>1065.6000000000001</ele><time>2026-04-11T13:08:59.59Z</time></trkpt><trkpt lat="46.0053552" lon="11.7577704"><ele>1069.0</ele><time>2026-04-11T13:09:01.591Z</time></trkpt><trkpt lat="46.0053538" lon="11.757576"><ele>1071.8</ele><time>2026-04-11T13:09:03.591Z</time></trkpt><trkpt lat="46.0053594" lon="11.7574697"><ele>1074.6000000000001</ele><time>2026-04-11T13:09:05.59Z</time></trkpt><trkpt lat="46.0053183" lon="11.757351"><ele>1077.4</ele><time>2026-04-11T13:09:27.59Z</time></trkpt><trkpt lat="46.0052657" lon="11.7571592"><ele>1080.2</ele><time>2026-04-11T13:09:29.59Z</time></trkpt><trkpt lat="46.0052364" lon="11.7570402"><ele>1083.0</ele><time>2026-04-11T13:09:30.591Z</time></trkpt><trkpt lat="46.005209" lon="11.756923"><ele>1086.5</ele><time>2026-04-11T13:09:31.59Z</time></trkpt><trkpt lat="46.0051962" lon="11.756795"><ele>1090.0</ele><time>2026-04-11T13:09:32.59Z</time></trkpt><trkpt lat="46.0051809" lon="11.7566859"><ele>1093.5</ele><time>2026-04-11T13:09:33.591Z</time></trkpt><trkpt lat="46.0051537" lon="11.7564996"><ele>1097.0</ele><time>2026-04-11T13:09:35.59Z</time></trkpt><trkpt lat="46.0051399" lon="11.7563965"><ele>1100.5</ele><time>2026-04-11T13:09:36.592Z</time></trkpt><trkpt lat="46.0051349" lon="11.7562979"><ele>1104.0</ele><time>2026-04-11T13:09:37.592Z</time></trkpt><trkpt lat="46.0051375" lon="11.7561988"><ele>1104.0</ele><time>2026-04-11T13:09:38.591Z</time></trkpt><trkpt lat="46.0051512" lon="11.7560514"><ele>1104.0</ele><time>2026-04-11T13:09:40.591Z</time></trkpt><trkpt lat="46.0051739" lon="11.7559429"><ele>1104.0</ele><time>2026-04-11T13:14:03.594Z</time></trkpt><trkpt lat="46.005192" lon="11.7558351"><ele>1104.0</ele><time>2026-04-11T13:14:05.595Z</time></trkpt><trkpt lat="46.0051994" lon="11.7556759"><ele>1104.0</ele><time>2026-04-11T13:14:07.595Z</time></trkpt><trkpt lat="46.0052002" lon="11.7555734"><ele>1104.0</ele><time>2026-04-11T13:14:08.595Z</time></trkpt><trkpt lat="46.0051815" lon="11.7554811"><ele>1106.5</ele><time>2026-04-11T13:14:09.595Z</time></trkpt><trkpt lat="46.0051577" lon="11.7553819"><ele>1109.0</ele><time>2026-04-11T13:14:10.596Z</time></trkpt><trkpt lat="46.005133" lon="11.7552662"><ele>1111.5</ele><time>2026-04-11T13:14:11.595Z</time></trkpt><trkpt lat="46.0050972" lon="11.7551478"><ele>1114.0</ele><time>2026-04-11T13:14:12.594Z</time></trkpt><trkpt lat="46.0050577" lon="11.7550552"><ele>1116.5</ele><time>2026-04-11T13:14:13.595Z</time></trkpt><trkpt lat="46.0050268" lon="11.7548973"><ele>1119.0</ele><time>2026-04-11T13:14:15.594Z</time></trkpt><trkpt lat="46.005059" lon="11.754742"><ele>1119.7142857142858</ele><time>2026-04-11T13:14:17.596Z</time></trkpt><trkpt lat="46.0050976" lon="11.7546681"><ele>1120.4285714285716</ele><time>2026-04-11T13:14:18.596Z</time></trkpt><trkpt lat="46.005136" lon="11.7545872"><ele>1121.1428571428573</ele><time>2026-04-11T13:14:19.594Z</time></trkpt><trkpt lat="46.0051736" lon="11.7545057"><ele>1121.857142857143</ele><time>2026-04-11T13:14:20.595Z</time></trkpt><trkpt lat="46.0052081" lon="11.7544227"><ele>1122.5714285714287</ele><time>2026-04-11T13:14:21.595Z</time></trkpt><trkpt lat="46.005242" lon="11.7543407"><ele>1123.2857142857144</ele><time>2026-04-11T13:14:22.595Z</time></trkpt><trkpt lat="46.0052742" lon="11.7542612"><ele>1124.0</ele><time>2026-04-11T13:14:23.595Z</time></trkpt><trkpt lat="46.0053454" lon="11.7541211"><ele>1124.8</ele><time>2026-04-11T13:14:25.595Z</time></trkpt><trkpt lat="46.0054473" lon="11.7540347"><ele>1125.6000000000001</ele><time>2026-04-11T13:14:27.596Z</time></trkpt><trkpt lat="46.0055574" lon="11.753998"><ele>1126.4</ele><time>2026-04-11T13:14:29.595Z</time></trkpt><trkpt lat="46.0056225" lon="11.7539955"><ele>1127.2</ele><time>2026-04-11T13:14:31.595Z</time></trkpt><trkpt lat="46.0057225" lon="11.7539804"><ele>1128.0</ele><time>2026-04-11T13:15:06.595Z</time></trkpt><trkpt lat="46.0058191" lon="11.7539667"><ele>1132.3333333333333</ele><time>2026-04-11T13:15:08.596Z</time></trkpt><trkpt lat="46.0059033" lon="11.7539315"><ele>1136.6666666666667</ele><time>2026-04-11T13:15:10.595Z</time></trkpt><trkpt lat="46.0059619" lon="11.7538716"><ele>1141.0</ele><time>2026-04-11T13:15:12.596Z</time></trkpt><trkpt lat="46.0060213" lon="11.7538146"><ele>1145.3333333333335</ele><time>2026-04-11T13:15:14.595Z</time></trkpt><trkpt lat="46.0061027" lon="11.7537421"><ele>1149.6666666666667</ele><time>2026-04-11T13:15:16.595Z</time></trkpt><trkpt lat="46.0061615" lon="11.7537063"><ele>1154.0</ele><time>2026-04-11T13:15:19.595Z</time></trkpt><trkpt lat="46.0060993" lon="11.753803"><ele>1154.0</ele><time>2026-04-11T13:15:24.597Z</time></trkpt><trkpt lat="46.0060284" lon="11.7539001"><ele>1154.0</ele><time>2026-04-11T13:15:26.595Z</time></trkpt><trkpt lat="46.0059657" lon="11.7540285"><ele>1154.0</ele><time>2026-04-11T13:15:28.596Z</time></trkpt><trkpt lat="46.0059066" lon="11.7541596"><ele>1154.0</ele><time>2026-04-11T13:15:30.596Z</time></trkpt><trkpt lat="46.0058718" lon="11.7542761"><ele>1154.0</ele><time>2026-04-11T13:15:32.596Z</time></trkpt><trkpt lat="46.0058709" lon="11.7544202"><ele>1154.6000000000001</ele><time>2026-04-11T13:15:34.595Z</time></trkpt><trkpt lat="46.0058927" lon="11.7545662"><ele>1155.2</ele><time>2026-04-11T13:15:36.596Z</time></trkpt><trkpt lat="46.0059237" lon="11.7547234"><ele>1155.8000000000002</ele><time>2026-04-11T13:15:38.596Z</time></trkpt><trkpt lat="46.0059582" lon="11.7548827"><ele>1156.4</ele><time>2026-04-11T13:15:40.596Z</time></trkpt><trkpt lat="46.0060024" lon="11.7550321"><ele>1157.0</ele><time>2026-04-11T13:15:42.595Z</time></trkpt><trkpt lat="46.0060479" lon="11.7551437"><ele>1155.6</ele><time>2026-04-11T13:15:44.596Z</time></trkpt><trkpt lat="46.0060946" lon="11.7552467"><ele>1154.2</ele><time>2026-04-11T13:15:46.596Z</time></trkpt><trkpt lat="46.0061757" lon="11.7554009"><ele>1152.8</ele><time>2026-04-11T13:15:48.597Z</time></trkpt><trkpt lat="46.0062201" lon="11.7555024"><ele>1151.4</ele><time>2026-04-11T13:15:49.596Z</time></trkpt><trkpt lat="46.0062614" lon="11.7556112"><ele>1150.0</ele><time>2026-04-11T13:15:50.597Z</time></trkpt><trkpt lat="46.0062976" lon="11.7557267"><ele>1150.0</ele><time>2026-04-11T13:15:51.595Z</time></trkpt><trkpt lat="46.0063306" lon="11.7558379"><ele>1150.0</ele><time>2026-04-11T13:15:52.597Z</time></trkpt><trkpt lat="46.0063613" lon="11.755948"><ele>1150.0</ele><time>2026-04-11T13:15:53.596Z</time></trkpt><trkpt lat="46.0063919" lon="11.7560541"><ele>1150.0</ele><time>2026-04-11T13:15:54.595Z</time></trkpt><trkpt lat="46.0064212" lon="11.7561548"><ele>1150.0</ele><time>2026-04-11T13:15:55.595Z</time></trkpt><trkpt lat="46.0064502" lon="11.7562537"><ele>1150.0</ele><time>2026-04-11T13:15:56.596Z</time></trkpt><trkpt lat="46.0064802" lon="11.756348"><ele>1148.5714285714284</ele><time>2026-04-11T13:15:57.597Z</time></trkpt><trkpt lat="46.0065112" lon="11.7564385"><ele>1147.142857142857</ele><time>2026-04-11T13:15:58.597Z</time></trkpt><trkpt lat="46.0065444" lon="11.7565267"><ele>1145.7142857142858</ele><time>2026-04-11T13:15:59.597Z</time></trkpt><trkpt lat="46.0065783" lon="11.7566126"><ele>1144.2857142857142</ele><time>2026-04-11T13:16:00.597Z</time></trkpt><trkpt lat="46.0066107" lon="11.7566998"><ele>1142.857142857143</ele><time>2026-04-11T13:16:01.596Z</time></trkpt><trkpt lat="46.0066405" lon="11.7567882"><ele>1141.4285714285713</ele><time>2026-04-11T13:16:02.596Z</time></trkpt><trkpt lat="46.00667" lon="11.7568807"><ele>1140.0</ele><time>2026-04-11T13:16:03.596Z</time></trkpt><trkpt lat="46.0066977" lon="11.7569782"><ele>1142.3333333333333</ele><time>2026-04-11T13:16:04.597Z</time></trkpt><trkpt lat="46.0067297" lon="11.757074"><ele>1144.6666666666667</ele><time>2026-04-11T13:16:05.597Z</time></trkpt><trkpt lat="46.0067552" lon="11.7571826"><ele>1147.0</ele><time>2026-04-11T13:16:06.597Z</time></trkpt><trkpt lat="46.0067755" lon="11.757311"><ele>1149.3333333333335</ele><time>2026-04-11T13:16:07.596Z</time></trkpt><trkpt lat="46.0067947" lon="11.7574398"><ele>1151.6666666666667</ele><time>2026-04-11T13:16:08.596Z</time></trkpt><trkpt lat="46.0068193" lon="11.7575742"><ele>1154.0</ele><time>2026-04-11T13:16:09.597Z</time></trkpt><trkpt lat="46.006854" lon="11.7577097"><ele>1154.0</ele><time>2026-04-11T13:16:10.597Z</time></trkpt><trkpt lat="46.0069031" lon="11.7578406"><ele>1154.0</ele><time>2026-04-11T13:16:11.597Z</time></trkpt><trkpt lat="46.0069639" lon="11.7579647"><ele>1154.0</ele><time>2026-04-11T13:16:12.596Z</time></trkpt><trkpt lat="46.0070347" lon="11.7580684"><ele>1154.0</ele><time>2026-04-11T13:16:13.597Z</time></trkpt><trkpt lat="46.0071147" lon="11.7581553"><ele>1154.0</ele><time>2026-04-11T13:16:14.597Z</time></trkpt><trkpt lat="46.0072088" lon="11.7582489"><ele>1154.0</ele><time>2026-04-11T13:16:15.596Z</time></trkpt><trkpt lat="46.0073142" lon="11.7583445"><ele>1154.0</ele><time>2026-04-11T13:16:16.597Z</time></trkpt><trkpt lat="46.0074345" lon="11.758441"><ele>1154.0</ele><time>2026-04-11T13:16:17.596Z</time></trkpt><trkpt lat="46.0075922" lon="11.7585483"><ele>1154.0</ele><time>2026-04-11T13:16:18.597Z</time></trkpt><trkpt lat="46.0077303" lon="11.7586578"><ele>1156.6000000000001</ele><time>2026-04-11T13:16:19.597Z</time></trkpt><trkpt lat="46.0078324" lon="11.7587583"><ele>1159.2</ele><time>2026-04-11T13:16:20.596Z</time></trkpt><trkpt lat="46.0078996" lon="11.7588468"><ele>1161.8000000000002</ele><time>2026-04-11T13:16:21.596Z</time></trkpt><trkpt lat="46.0079373" lon="11.7589278"><ele>1164.4</ele><time>2026-04-11T13:16:22.597Z</time></trkpt><trkpt lat="46.0079595" lon="11.7590915"><ele>1167.0</ele><time>2026-04-11T13:16:24.597Z</time></trkpt><trkpt lat="46.007991" lon="11.7592885"><ele>1164.8</ele><time>2026-04-11T13:16:26.597Z</time></trkpt><trkpt lat="46.0080333" lon="11.7594099"><ele>1162.6</ele><time>2026-04-11T13:16:27.596Z</time></trkpt><trkpt lat="46.008081" lon="11.7595209"><ele>1160.3999999999999</ele><time>2026-04-11T13:16:28.597Z</time></trkpt><trkpt lat="46.0081418" lon="11.7596279"><ele>1158.2</ele><time>2026-04-11T13:16:29.596Z</time></trkpt><trkpt lat="46.0082084" lon="11.7597229"><ele>1156.0</ele><time>2026-04-11T13:16:30.596Z</time></trkpt><trkpt lat="46.0082736" lon="11.7598105"><ele>1161.1666666666665</ele><time>2026-04-11T13:16:31.597Z</time></trkpt><trkpt lat="46.0083375" lon="11.7598928"><ele>1166.3333333333333</ele><time>2026-04-11T13:16:32.597Z</time></trkpt><trkpt lat="46.0083888" lon="11.7599556"><ele>1171.5</ele><time>2026-04-11T13:16:33.596Z</time></trkpt><trkpt lat="46.0084392" lon="11.76001"><ele>1176.6666666666667</ele><time>2026-04-11T13:16:34.596Z</time></trkpt><trkpt lat="46.0084971" lon="11.7600599"><ele>1181.8333333333335</ele><time>2026-04-11T13:16:35.597Z</time></trkpt><trkpt lat="46.0085836" lon="11.7601019"><ele>1187.0</ele><time>2026-04-11T13:16:36.596Z</time></trkpt><trkpt lat="46.0087022" lon="11.7601405"><ele>1187.0</ele><time>2026-04-11T13:16:37.597Z</time></trkpt><trkpt lat="46.0088232" lon="11.7601709"><ele>1187.0</ele><time>2026-04-11T13:16:38.597Z</time></trkpt><trkpt lat="46.0089148" lon="11.7601649"><ele>1187.0</ele><time>2026-04-11T13:16:39.598Z</time></trkpt><trkpt lat="46.0089794" lon="11.7601353"><ele>1187.0</ele><time>2026-04-11T13:16:40.597Z</time></trkpt><trkpt lat="46.0090498" lon="11.7600638"><ele>1187.0</ele><time>2026-04-11T13:16:41.596Z</time></trkpt><trkpt lat="46.0091144" lon="11.7599624"><ele>1190.0</ele><time>2026-04-11T13:16:42.596Z</time></trkpt><trkpt lat="46.0091755" lon="11.7598195"><ele>1193.0</ele><time>2026-04-11T13:16:43.599Z</time></trkpt><trkpt lat="46.0092269" lon="11.7596573"><ele>1196.0</ele><time>2026-04-11T13:16:44.596Z</time></trkpt><trkpt lat="46.0092739" lon="11.7594932"><ele>1199.0</ele><time>2026-04-11T13:16:45.596Z</time></trkpt><trkpt lat="46.0093211" lon="11.759334"><ele>1200.4</ele><time>2026-04-11T13:16:46.597Z</time></trkpt><trkpt lat="46.0093792" lon="11.7591866"><ele>1201.8000000000002</ele><time>2026-04-11T13:16:47.596Z</time></trkpt><trkpt lat="46.0094506" lon="11.7590473"><ele>1203.1999999999998</ele><time>2026-04-11T13:16:48.596Z</time></trkpt><trkpt lat="46.0095126" lon="11.7589192"><ele>1204.6</ele><time>2026-04-11T13:16:49.596Z</time></trkpt><trkpt lat="46.0095489" lon="11.7587995"><ele>1206.0</ele><time>2026-04-11T13:16:50.597Z</time></trkpt><trkpt lat="46.0095544" lon="11.7586949"><ele>1206.0</ele><time>2026-04-11T13:16:51.597Z</time></trkpt><trkpt lat="46.0095153" lon="11.7585621"><ele>1206.0</ele><time>2026-04-11T13:16:53.597Z</time></trkpt><trkpt lat="46.0094172" lon="11.7584724"><ele>1206.0</ele><time>2026-04-11T13:16:55.597Z</time></trkpt><trkpt lat="46.0093046" lon="11.7584117"><ele>1206.0</ele><time>2026-04-11T13:16:57.597Z</time></trkpt><trkpt lat="46.0091971" lon="11.758345"><ele>1205.8333333333333</ele><time>2026-04-11T13:16:59.597Z</time></trkpt><trkpt lat="46.0090938" lon="11.7582653"><ele>1205.6666666666667</ele><time>2026-04-11T13:17:01.597Z</time></trkpt><trkpt lat="46.0090371" lon="11.7582201"><ele>1205.5</ele><time>2026-04-11T13:17:02.598Z</time></trkpt><trkpt lat="46.0089701" lon="11.7581568"><ele>1205.3333333333335</ele><time>2026-04-11T13:17:03.597Z</time></trkpt><trkpt lat="46.0089052" lon="11.7580785"><ele>1205.1666666666667</ele><time>2026-04-11T13:17:04.598Z</time></trkpt><trkpt lat="46.0088411" lon="11.7580006"><ele>1205.0</ele><time>2026-04-11T13:17:05.598Z</time></trkpt><trkpt lat="46.0087758" lon="11.7579242"><ele>1205.0</ele><time>2026-04-11T13:17:06.597Z</time></trkpt><trkpt lat="46.0087133" lon="11.7578495"><ele>1205.0</ele><time>2026-04-11T13:17:07.596Z</time></trkpt><trkpt lat="46.008622" lon="11.7577543"><ele>1205.0</ele><time>2026-04-11T13:17:09.597Z</time></trkpt><trkpt lat="46.0085208" lon="11.7576778"><ele>1205.0</ele><time>2026-04-11T13:17:11.598Z</time></trkpt><trkpt lat="46.0084416" lon="11.7576248"><ele>1205.0</ele><time>2026-04-11T13:17:12.596Z</time></trkpt><trkpt lat="46.00837" lon="11.7575676"><ele>1204.6</ele><time>2026-04-11T13:17:13.598Z</time></trkpt><trkpt lat="46.0082873" lon="11.7575008"><ele>1204.2</ele><time>2026-04-11T13:17:14.598Z</time></trkpt><trkpt lat="46.0081917" lon="11.7574247"><ele>1203.8</ele><time>2026-04-11T13:17:15.598Z</time></trkpt><trkpt lat="46.0081008" lon="11.7573173"><ele>1203.4</ele><time>2026-04-11T13:17:16.597Z</time></trkpt><trkpt lat="46.0080206" lon="11.7572032"><ele>1203.0</ele><time>2026-04-11T13:17:17.597Z</time></trkpt><trkpt lat="46.0079579" lon="11.7570787"><ele>1203.0</ele><time>2026-04-11T13:17:18.597Z</time></trkpt><trkpt lat="46.0079002" lon="11.7569368"><ele>1203.0</ele><time>2026-04-11T13:17:19.598Z</time></trkpt><trkpt lat="46.0078405" lon="11.756766"><ele>1203.0</ele><time>2026-04-11T13:17:20.597Z</time></trkpt><trkpt lat="46.007778" lon="11.7565959"><ele>1203.0</ele><time>2026-04-11T13:17:21.598Z</time></trkpt><trkpt lat="46.0077159" lon="11.7564357"><ele>1206.0</ele><time>2026-04-11T13:17:22.598Z</time></trkpt><trkpt lat="46.0076559" lon="11.7562926"><ele>1209.0</ele><time>2026-04-11T13:17:23.598Z</time></trkpt><trkpt lat="46.0075978" lon="11.7561579"><ele>1212.0</ele><time>2026-04-11T13:17:24.597Z</time></trkpt><trkpt lat="46.0075542" lon="11.7560396"><ele>1215.0</ele><time>2026-04-11T13:17:25.597Z</time></trkpt><trkpt lat="46.0075269" lon="11.7559341"><ele>1218.0</ele><time>2026-04-11T13:17:26.598Z</time></trkpt><trkpt lat="46.0075169" lon="11.7558309"><ele>1219.3333333333333</ele><time>2026-04-11T13:17:27.598Z</time></trkpt><trkpt lat="46.0075232" lon="11.755729"><ele>1220.6666666666667</ele><time>2026-04-11T13:17:28.597Z</time></trkpt><trkpt lat="46.007539" lon="11.7556378"><ele>1222.0</ele><time>2026-04-11T13:17:29.597Z</time></trkpt><trkpt lat="46.0075841" lon="11.7555313"><ele>1223.3333333333335</ele><time>2026-04-11T13:17:31.597Z</time></trkpt><trkpt lat="46.0076443" lon="11.755449"><ele>1224.6666666666667</ele><time>2026-04-11T13:18:55.599Z</time></trkpt><trkpt lat="46.007707" lon="11.7553727"><ele>1226.0</ele><time>2026-04-11T13:18:56.599Z</time></trkpt><trkpt lat="46.0077897" lon="11.7553041"><ele>1226.0</ele><time>2026-04-11T13:18:57.598Z</time></trkpt><trkpt lat="46.0078682" lon="11.7552612"><ele>1226.0</ele><time>2026-04-11T13:18:58.6Z</time></trkpt><trkpt lat="46.0079403" lon="11.7552311"><ele>1226.0</ele><time>2026-04-11T13:18:59.598Z</time></trkpt><trkpt lat="46.0080083" lon="11.7552004"><ele>1226.0</ele><time>2026-04-11T13:19:00.6Z</time></trkpt><trkpt lat="46.0080805" lon="11.7551748"><ele>1226.0</ele><time>2026-04-11T13:19:01.599Z</time></trkpt><trkpt lat="46.0081586" lon="11.7551492"><ele>1226.0</ele><time>2026-04-11T13:19:02.599Z</time></trkpt><trkpt lat="46.0082493" lon="11.755114"><ele>1231.0</ele><time>2026-04-11T13:19:03.598Z</time></trkpt><trkpt lat="46.008373" lon="11.755082"><ele>1236.0</ele><time>2026-04-11T13:19:04.599Z</time></trkpt><trkpt lat="46.008491" lon="11.7550533"><ele>1241.0</ele><time>2026-04-11T13:19:05.599Z</time></trkpt><trkpt lat="46.0086038" lon="11.7550378"><ele>1246.0</ele><time>2026-04-11T13:19:06.6Z</time></trkpt><trkpt lat="46.0087025" lon="11.7550338"><ele>1246.0</ele><time>2026-04-11T13:19:07.599Z</time></trkpt><trkpt lat="46.0087798" lon="11.7550425"><ele>1246.0</ele><time>2026-04-11T13:19:08.599Z</time></trkpt><trkpt lat="46.0088582" lon="11.7550575"><ele>1246.0</ele><time>2026-04-11T13:19:09.599Z</time></trkpt><trkpt lat="46.0089296" lon="11.7550707"><ele>1246.0</ele><time>2026-04-11T13:19:10.599Z</time></trkpt><trkpt lat="46.0089956" lon="11.7550856"><ele>1246.0</ele><time>2026-04-11T13:19:11.6Z</time></trkpt><trkpt lat="46.0090644" lon="11.7551008"><ele>1246.0</ele><time>2026-04-11T13:19:12.599Z</time></trkpt><trkpt lat="46.0091375" lon="11.7551214"><ele>1246.0</ele><time>2026-04-11T13:19:13.598Z</time></trkpt><trkpt lat="46.0092091" lon="11.7551411"><ele>1247.3999999999999</ele><time>2026-04-11T13:19:14.599Z</time></trkpt><trkpt lat="46.0092867" lon="11.7551689"><ele>1248.8</ele><time>2026-04-11T13:19:15.598Z</time></trkpt><trkpt lat="46.0094607" lon="11.7552476"><ele>1250.1999999999998</ele><time>2026-04-11T13:19:17.599Z</time></trkpt><trkpt lat="46.0095436" lon="11.7552773"><ele>1251.6</ele><time>2026-04-11T13:19:18.598Z</time></trkpt><trkpt lat="46.0096406" lon="11.7552875"><ele>1253.0</ele><time>2026-04-11T13:19:20.599Z</time></trkpt><trkpt lat="46.0096979" lon="11.7553272"><ele>1253.3333333333335</ele><time>2026-04-11T13:19:22.599Z</time></trkpt><trkpt lat="46.0097518" lon="11.7553927"><ele>1253.6666666666667</ele><time>2026-04-11T13:19:24.599Z</time></trkpt><trkpt lat="46.0098811" lon="11.7554085"><ele>1254.0</ele><time>2026-04-11T13:19:26.6Z</time></trkpt><trkpt lat="46.0099804" lon="11.7554455"><ele>1254.3333333333333</ele><time>2026-04-11T13:19:28.6Z</time></trkpt><trkpt lat="46.0100554" lon="11.7554631"><ele>1254.6666666666665</ele><time>2026-04-11T13:19:30.599Z</time></trkpt><trkpt lat="46.0101229" lon="11.755472"><ele>1255.0</ele><time>2026-04-11T13:19:32.598Z</time></trkpt><trkpt lat="46.0102079" lon="11.7554372"><ele>1255.0</ele><time>2026-04-11T13:19:35.599Z</time></trkpt><trkpt lat="46.0103" lon="11.7553942"><ele>1255.0</ele><time>2026-04-11T13:19:38.599Z</time></trkpt><trkpt lat="46.0103641" lon="11.755361"><ele>1255.0</ele><time>2026-04-11T13:19:40.599Z</time></trkpt><trkpt lat="46.0104426" lon="11.7553186"><ele>1255.0</ele><time>2026-04-11T13:19:42.6Z</time></trkpt><trkpt lat="46.0105109" lon="11.7552738"><ele>1255.0</ele><time>2026-04-11T13:19:44.6Z</time></trkpt><trkpt lat="46.010569" lon="11.7552333"><ele>1255.0</ele><time>2026-04-11T13:19:46.6Z</time></trkpt><trkpt lat="46.0106416" lon="11.7551915"><ele>1253.6</ele><time>2026-04-11T13:19:49.6Z</time></trkpt><trkpt lat="46.010704" lon="11.755156"><ele>1252.2</ele><time>2026-04-11T13:19:51.6Z</time></trkpt><trkpt lat="46.0107797" lon="11.755089"><ele>1250.8</ele><time>2026-04-11T13:20:19.6Z</time></trkpt><trkpt lat="46.0108769" lon="11.755045"><ele>1249.4</ele><time>2026-04-11T13:20:22.599Z</time></trkpt><trkpt lat="46.0109645" lon="11.7549752"><ele>1248.0</ele><time>2026-04-11T13:20:24.599Z</time></trkpt><trkpt lat="46.0110756" lon="11.7548586"><ele>1248.0</ele><time>2026-04-11T13:20:26.6Z</time></trkpt><trkpt lat="46.0111409" lon="11.7547982"><ele>1248.0</ele><time>2026-04-11T13:20:27.6Z</time></trkpt><trkpt lat="46.0112195" lon="11.7547401"><ele>1248.0</ele><time>2026-04-11T13:20:28.601Z</time></trkpt><trkpt lat="46.0112944" lon="11.7546917"><ele>1248.0</ele><time>2026-04-11T13:20:29.6Z</time></trkpt><trkpt lat="46.0113784" lon="11.7546332"><ele>1248.0</ele><time>2026-04-11T13:20:30.6Z</time></trkpt><trkpt lat="46.0114866" lon="11.754602"><ele>1248.0</ele><time>2026-04-11T13:20:31.601Z</time></trkpt><trkpt lat="46.011601" lon="11.7545334"><ele>1248.0</ele><time>2026-04-11T13:20:32.599Z</time></trkpt><trkpt lat="46.0116881" lon="11.7544849"><ele>1248.0</ele><time>2026-04-11T13:20:33.6Z</time></trkpt><trkpt lat="46.0117696" lon="11.754419"><ele>1248.0</ele><time>2026-04-11T13:20:34.6Z</time></trkpt><trkpt lat="46.0118482" lon="11.7543364"><ele>1248.0</ele><time>2026-04-11T13:20:35.6Z</time></trkpt><trkpt lat="46.0119268" lon="11.754244"><ele>1241.6</ele><time>2026-04-11T13:20:36.6Z</time></trkpt><trkpt lat="46.0120075" lon="11.7541492"><ele>1235.1999999999998</ele><time>2026-04-11T13:20:37.6Z</time></trkpt><trkpt lat="46.0120918" lon="11.7540497"><ele>1228.8</ele><time>2026-04-11T13:20:38.6Z</time></trkpt><trkpt lat="46.0121718" lon="11.7539392"><ele>1222.3999999999999</ele><time>2026-04-11T13:20:39.6Z</time></trkpt><trkpt lat="46.0122536" lon="11.7538287"><ele>1216.0</ele><time>2026-04-11T13:20:40.601Z</time></trkpt><trkpt lat="46.0123249" lon="11.753729"><ele>1216.0</ele><time>2026-04-11T13:20:41.6Z</time></trkpt><trkpt lat="46.0123815" lon="11.7536301"><ele>1216.0</ele><time>2026-04-11T13:20:42.601Z</time></trkpt><trkpt lat="46.0124358" lon="11.7535321"><ele>1216.0</ele><time>2026-04-11T13:20:43.599Z</time></trkpt><trkpt lat="46.0124844" lon="11.7534322"><ele>1216.0</ele><time>2026-04-11T13:20:44.6Z</time></trkpt><trkpt lat="46.0125233" lon="11.7533596"><ele>1216.0</ele><time>2026-04-11T13:20:45.6Z</time></trkpt><trkpt lat="46.0125776" lon="11.7532996"><ele>1216.0</ele><time>2026-04-11T13:20:46.6Z</time></trkpt><trkpt lat="46.0126348" lon="11.7532358"><ele>1214.3333333333333</ele><time>2026-04-11T13:20:47.601Z</time></trkpt><trkpt lat="46.0126983" lon="11.7531622"><ele>1212.6666666666665</ele><time>2026-04-11T13:20:48.601Z</time></trkpt><trkpt lat="46.0127656" lon="11.7530878"><ele>1211.0</ele><time>2026-04-11T13:20:49.601Z</time></trkpt><trkpt lat="46.0128249" lon="11.7530253"><ele>1209.3333333333333</ele><time>2026-04-11T13:20:51.601Z</time></trkpt><trkpt lat="46.01289" lon="11.7529674"><ele>1207.6666666666667</ele><time>2026-04-11T13:20:55.601Z</time></trkpt><trkpt lat="46.0129776" lon="11.7529644"><ele>1206.0</ele><time>2026-04-11T13:21:13.6Z</time></trkpt><trkpt lat="46.0130263" lon="11.7530337"><ele>1206.0</ele><time>2026-04-11T13:21:15.6Z</time></trkpt><trkpt lat="46.0131351" lon="11.7530879"><ele>1206.0</ele><time>2026-04-11T13:21:17.6Z</time></trkpt><trkpt lat="46.013209" lon="11.7530781"><ele>1206.0</ele><time>2026-04-11T13:21:18.6Z</time></trkpt><trkpt lat="46.0133063" lon="11.7529955"><ele>1206.0</ele><time>2026-04-11T13:21:20.601Z</time></trkpt><trkpt lat="46.013354" lon="11.75292"><ele>1206.0</ele><time>2026-04-11T13:21:21.6Z</time></trkpt><trkpt lat="46.0134183" lon="11.7528343"><ele>1204.0</ele><time>2026-04-11T13:21:22.6Z</time></trkpt><trkpt lat="46.013504" lon="11.7527273"><ele>1202.0</ele><time>2026-04-11T13:21:23.6Z</time></trkpt><trkpt lat="46.0135963" lon="11.7526041"><ele>1200.0</ele><time>2026-04-11T13:21:24.602Z</time></trkpt><trkpt lat="46.0136793" lon="11.7524827"><ele>1198.0</ele><time>2026-04-11T13:21:25.601Z</time></trkpt><trkpt lat="46.0137474" lon="11.7523752"><ele>1196.6666666666665</ele><time>2026-04-11T13:21:26.6Z</time></trkpt><trkpt lat="46.0137926" lon="11.7522869"><ele>1195.3333333333333</ele><time>2026-04-11T13:21:27.601Z</time></trkpt><trkpt lat="46.0138329" lon="11.7522072"><ele>1194.0</ele><time>2026-04-11T13:21:28.602Z</time></trkpt><trkpt lat="46.0139323" lon="11.7520907"><ele>1192.6666666666667</ele><time>2026-04-11T13:21:30.602Z</time></trkpt><trkpt lat="46.0140221" lon="11.7520144"><ele>1191.3333333333335</ele><time>2026-04-11T13:21:32.602Z</time></trkpt><trkpt lat="46.0140838" lon="11.7519739"><ele>1190.0</ele><time>2026-04-11T13:21:34.6Z</time></trkpt><trkpt lat="46.0141506" lon="11.7518859"><ele>1187.3333333333335</ele><time>2026-04-11T13:21:37.6Z</time></trkpt><trkpt lat="46.0141815" lon="11.7517941"><ele>1184.6666666666667</ele><time>2026-04-11T13:21:40.601Z</time></trkpt><trkpt lat="46.0142056" lon="11.7516323"><ele>1182.0</ele><time>2026-04-11T13:21:42.6Z</time></trkpt><trkpt lat="46.0141798" lon="11.751539"><ele>1179.3333333333333</ele><time>2026-04-11T13:21:44.601Z</time></trkpt><trkpt lat="46.0141288" lon="11.7514831"><ele>1176.6666666666665</ele><time>2026-04-11T13:21:46.6Z</time></trkpt><trkpt lat="46.0141642" lon="11.7513299"><ele>1174.0</ele><time>2026-04-11T13:22:27.602Z</time></trkpt><trkpt lat="46.0141887" lon="11.7512291"><ele>1172.5</ele><time>2026-04-11T13:22:28.602Z</time></trkpt><trkpt lat="46.0142013" lon="11.7511109"><ele>1171.0</ele><time>2026-04-11T13:22:29.602Z</time></trkpt><trkpt lat="46.0141995" lon="11.7509929"><ele>1169.5</ele><time>2026-04-11T13:22:30.601Z</time></trkpt><trkpt lat="46.0141828" lon="11.7508832"><ele>1168.0</ele><time>2026-04-11T13:22:31.602Z</time></trkpt><trkpt lat="46.0141606" lon="11.7507746"><ele>1166.5</ele><time>2026-04-11T13:22:32.601Z</time></trkpt><trkpt lat="46.0141445" lon="11.7506268"><ele>1165.0</ele><time>2026-04-11T13:22:34.602Z</time></trkpt><trkpt lat="46.0142008" lon="11.7505192"><ele>1162.8333333333333</ele><time>2026-04-11T13:22:36.601Z</time></trkpt><trkpt lat="46.0142975" lon="11.7503907"><ele>1160.6666666666665</ele><time>2026-04-11T13:22:38.603Z</time></trkpt><trkpt lat="46.0143447" lon="11.7503173"><ele>1158.5</ele><time>2026-04-11T13:22:39.601Z</time></trkpt><trkpt lat="46.0143898" lon="11.7502374"><ele>1156.3333333333333</ele><time>2026-04-11T13:22:40.602Z</time></trkpt><trkpt lat="46.0144325" lon="11.7501434"><ele>1154.1666666666667</ele><time>2026-04-11T13:22:41.602Z</time></trkpt><trkpt lat="46.0144749" lon="11.7500619"><ele>1152.0</ele><time>2026-04-11T13:22:42.602Z</time></trkpt><trkpt lat="46.0145489" lon="11.7499199"><ele>1149.5</ele><time>2026-04-11T13:22:44.603Z</time></trkpt><trkpt lat="46.0146479" lon="11.7498095"><ele>1147.0</ele><time>2026-04-11T13:22:46.603Z</time></trkpt><trkpt lat="46.0147074" lon="11.7497495"><ele>1144.5</ele><time>2026-04-11T13:22:47.603Z</time></trkpt><trkpt lat="46.0147568" lon="11.7496851"><ele>1142.0</ele><time>2026-04-11T13:22:48.602Z</time></trkpt><trkpt lat="46.0148127" lon="11.7496185"><ele>1139.5</ele><time>2026-04-11T13:22:49.602Z</time></trkpt><trkpt lat="46.0148742" lon="11.7495573"><ele>1137.0</ele><time>2026-04-11T13:22:50.602Z</time></trkpt><trkpt lat="46.0149333" lon="11.7494895"><ele>1136.6666666666667</ele><time>2026-04-11T13:22:51.601Z</time></trkpt><trkpt lat="46.0149998" lon="11.7494148"><ele>1136.3333333333333</ele><time>2026-04-11T13:22:52.603Z</time></trkpt><trkpt lat="46.0150644" lon="11.7493336"><ele>1136.0</ele><time>2026-04-11T13:22:53.602Z</time></trkpt><trkpt lat="46.0151201" lon="11.7492516"><ele>1135.6666666666665</ele><time>2026-04-11T13:22:54.603Z</time></trkpt><trkpt lat="46.0151918" lon="11.7491047"><ele>1135.3333333333333</ele><time>2026-04-11T13:22:56.602Z</time></trkpt><trkpt lat="46.0152328" lon="11.7490174"><ele>1135.0</ele><time>2026-04-11T13:22:57.602Z</time></trkpt><trkpt lat="46.0152807" lon="11.748927"><ele>1134.1666666666665</ele><time>2026-04-11T13:22:58.603Z</time></trkpt><trkpt lat="46.0153365" lon="11.7488344"><ele>1133.3333333333333</ele><time>2026-04-11T13:22:59.602Z</time></trkpt><trkpt lat="46.0153922" lon="11.748735"><ele>1132.5</ele><time>2026-04-11T13:23:00.602Z</time></trkpt><trkpt lat="46.015446" lon="11.7486388"><ele>1131.6666666666667</ele><time>2026-04-11T13:23:01.603Z</time></trkpt><trkpt lat="46.0155079" lon="11.7485471"><ele>1130.8333333333335</ele><time>2026-04-11T13:23:02.603Z</time></trkpt><trkpt lat="46.015567" lon="11.7484446"><ele>1130.0</ele><time>2026-04-11T13:23:03.602Z</time></trkpt><trkpt lat="46.0156195" lon="11.7483418"><ele>1127.1666666666667</ele><time>2026-04-11T13:23:04.601Z</time></trkpt><trkpt lat="46.0156624" lon="11.7482457"><ele>1124.3333333333335</ele><time>2026-04-11T13:23:05.603Z</time></trkpt><trkpt lat="46.0156771" lon="11.7481558"><ele>1121.5</ele><time>2026-04-11T13:23:07.603Z</time></trkpt><trkpt lat="46.0156829" lon="11.7480632"><ele>1118.6666666666667</ele><time>2026-04-11T13:23:47.602Z</time></trkpt><trkpt lat="46.01573" lon="11.74794"><ele>1115.8333333333333</ele><time>2026-04-11T13:23:49.603Z</time></trkpt><trkpt lat="46.0158052" lon="11.7478083"><ele>1113.0</ele><time>2026-04-11T13:23:51.602Z</time></trkpt><trkpt lat="46.0159077" lon="11.7476498"><ele>1111.2</ele><time>2026-04-11T13:23:53.602Z</time></trkpt><trkpt lat="46.0159731" lon="11.747546"><ele>1109.4</ele><time>2026-04-11T13:23:54.603Z</time></trkpt><trkpt lat="46.0160381" lon="11.7474448"><ele>1107.6000000000001</ele><time>2026-04-11T13:23:55.603Z</time></trkpt><trkpt lat="46.0161094" lon="11.7473516"><ele>1105.8</ele><time>2026-04-11T13:23:56.603Z</time></trkpt><trkpt lat="46.016177" lon="11.7472538"><ele>1104.0</ele><time>2026-04-11T13:23:57.603Z</time></trkpt><trkpt lat="46.0162296" lon="11.7471564"><ele>1104.0</ele><time>2026-04-11T13:23:58.602Z</time></trkpt><trkpt lat="46.0162727" lon="11.7470554"><ele>1104.0</ele><time>2026-04-11T13:23:59.604Z</time></trkpt><trkpt lat="46.0162982" lon="11.7469431"><ele>1104.0</ele><time>2026-04-11T13:24:00.604Z</time></trkpt><trkpt lat="46.0163253" lon="11.7468251"><ele>1104.0</ele><time>2026-04-11T13:24:01.603Z</time></trkpt><trkpt lat="46.0163483" lon="11.7467002"><ele>1104.0</ele><time>2026-04-11T13:24:02.602Z</time></trkpt><trkpt lat="46.0163654" lon="11.7465759"><ele>1104.0</ele><time>2026-04-11T13:24:03.604Z</time></trkpt><trkpt lat="46.0163754" lon="11.7464355"><ele>1101.1666666666667</ele><time>2026-04-11T13:24:04.604Z</time></trkpt><trkpt lat="46.0163694" lon="11.7463088"><ele>1098.3333333333333</ele><time>2026-04-11T13:24:05.603Z</time></trkpt><trkpt lat="46.0163501" lon="11.7461837"><ele>1095.5</ele><time>2026-04-11T13:24:06.604Z</time></trkpt><trkpt lat="46.0163053" lon="11.7460787"><ele>1092.6666666666665</ele><time>2026-04-11T13:24:07.603Z</time></trkpt><trkpt lat="46.0162789" lon="11.7459839"><ele>1089.8333333333333</ele><time>2026-04-11T13:24:08.602Z</time></trkpt><trkpt lat="46.0162604" lon="11.7458896"><ele>1087.0</ele><time>2026-04-11T13:24:09.604Z</time></trkpt><trkpt lat="46.0162466" lon="11.7457798"><ele>1081.75</ele><time>2026-04-11T13:24:10.602Z</time></trkpt><trkpt lat="46.0162356" lon="11.7456518"><ele>1076.5</ele><time>2026-04-11T13:24:11.603Z</time></trkpt><trkpt lat="46.016227" lon="11.745488"><ele>1071.25</ele><time>2026-04-11T13:24:12.603Z</time></trkpt><trkpt lat="46.0162183" lon="11.745301"><ele>1066.0</ele><time>2026-04-11T13:24:13.603Z</time></trkpt><trkpt lat="46.0162011" lon="11.7451138"><ele>1064.0</ele><time>2026-04-11T13:24:14.602Z</time></trkpt><trkpt lat="46.0161669" lon="11.744955"><ele>1062.0</ele><time>2026-04-11T13:24:15.604Z</time></trkpt><trkpt lat="46.0161348" lon="11.744818"><ele>1060.0</ele><time>2026-04-11T13:24:16.604Z</time></trkpt><trkpt lat="46.0160999" lon="11.7446853"><ele>1058.0</ele><time>2026-04-11T13:24:17.603Z</time></trkpt><trkpt lat="46.016064" lon="11.744551"><ele>1056.0</ele><time>2026-04-11T13:24:18.603Z</time></trkpt><trkpt lat="46.0160303" lon="11.7444133"><ele>1056.0</ele><time>2026-04-11T13:24:19.603Z</time></trkpt><trkpt lat="46.0159942" lon="11.7442784"><ele>1056.0</ele><time>2026-04-11T13:24:20.603Z</time></trkpt><trkpt lat="46.0159544" lon="11.7441461"><ele>1056.0</ele><time>2026-04-11T13:24:21.603Z</time></trkpt><trkpt lat="46.0159148" lon="11.7440165"><ele>1056.0</ele><time>2026-04-11T13:24:22.603Z</time></trkpt><trkpt lat="46.0158801" lon="11.7438922"><ele>1056.0</ele><time>2026-04-11T13:24:23.603Z</time></trkpt><trkpt lat="46.0158429" lon="11.7437699"><ele>1051.8</ele><time>2026-04-11T13:24:24.604Z</time></trkpt><trkpt lat="46.0157992" lon="11.7436431"><ele>1047.6</ele><time>2026-04-11T13:24:25.604Z</time></trkpt><trkpt lat="46.015754" lon="11.7435102"><ele>1043.4</ele><time>2026-04-11T13:24:26.603Z</time></trkpt><trkpt lat="46.0157046" lon="11.7433725"><ele>1039.2</ele><time>2026-04-11T13:24:27.604Z</time></trkpt><trkpt lat="46.0156549" lon="11.7432323"><ele>1035.0</ele><time>2026-04-11T13:24:28.603Z</time></trkpt><trkpt lat="46.0156049" lon="11.7430962"><ele>1035.0</ele><time>2026-04-11T13:24:29.604Z</time></trkpt><trkpt lat="46.0155555" lon="11.7429668"><ele>1035.0</ele><time>2026-04-11T13:24:30.604Z</time></trkpt><trkpt lat="46.0155093" lon="11.7428594"><ele>1035.0</ele><time>2026-04-11T13:24:31.603Z</time></trkpt><trkpt lat="46.0154722" lon="11.7427662"><ele>1035.0</ele><time>2026-04-11T13:24:32.603Z</time></trkpt><trkpt lat="46.0154419" lon="11.7426683"><ele>1035.0</ele><time>2026-04-11T13:24:33.603Z</time></trkpt><trkpt lat="46.0154197" lon="11.742553"><ele>1035.0</ele><time>2026-04-11T13:24:34.604Z</time></trkpt><trkpt lat="46.0154013" lon="11.7424362"><ele>1036.0</ele><time>2026-04-11T13:24:35.603Z</time></trkpt><trkpt lat="46.0153799" lon="11.7423212"><ele>1037.0</ele><time>2026-04-11T13:24:36.603Z</time></trkpt><trkpt lat="46.015349" lon="11.7422156"><ele>1038.0</ele><time>2026-04-11T13:24:37.603Z</time></trkpt><trkpt lat="46.0153086" lon="11.7421311"><ele>1039.0</ele><time>2026-04-11T13:24:38.603Z</time></trkpt><trkpt lat="46.0152552" lon="11.7420731"><ele>1040.0</ele><time>2026-04-11T13:24:39.604Z</time></trkpt><trkpt lat="46.0151882" lon="11.7420416"><ele>1041.0</ele><time>2026-04-11T13:24:40.604Z</time></trkpt><trkpt lat="46.0151077" lon="11.7420453"><ele>1041.0</ele><time>2026-04-11T13:24:41.603Z</time></trkpt><trkpt lat="46.0150273" lon="11.7420727"><ele>1041.0</ele><time>2026-04-11T13:24:42.604Z</time></trkpt><trkpt lat="46.0149505" lon="11.7421033"><ele>1041.0</ele><time>2026-04-11T13:24:43.604Z</time></trkpt><trkpt lat="46.0148747" lon="11.7421213"><ele>1041.0</ele><time>2026-04-11T13:24:44.603Z</time></trkpt><trkpt lat="46.0147949" lon="11.7421398"><ele>1041.0</ele><time>2026-04-11T13:24:45.603Z</time></trkpt><trkpt lat="46.014719" lon="11.7421522"><ele>1041.0</ele><time>2026-04-11T13:24:46.604Z</time></trkpt><trkpt lat="46.0146063" lon="11.7421201"><ele>1040.2</ele><time>2026-04-11T13:24:48.604Z</time></trkpt><trkpt lat="46.0145053" lon="11.7419981"><ele>1039.3999999999999</ele><time>2026-04-11T13:24:50.604Z</time></trkpt><trkpt lat="46.0144563" lon="11.7419106"><ele>1038.6</ele><time>2026-04-11T13:24:51.603Z</time></trkpt><trkpt lat="46.0144028" lon="11.7418157"><ele>1037.8</ele><time>2026-04-11T13:24:52.603Z</time></trkpt><trkpt lat="46.0143428" lon="11.7417295"><ele>1037.0</ele><time>2026-04-11T13:24:53.603Z</time></trkpt><trkpt lat="46.0142795" lon="11.7416496"><ele>1037.0</ele><time>2026-04-11T13:24:54.605Z</time></trkpt><trkpt lat="46.0142207" lon="11.7415765"><ele>1037.0</ele><time>2026-04-11T13:24:55.605Z</time></trkpt><trkpt lat="46.0141687" lon="11.7414926"><ele>1037.0</ele><time>2026-04-11T13:24:56.603Z</time></trkpt><trkpt lat="46.0141356" lon="11.7413914"><ele>1037.0</ele><time>2026-04-11T13:24:57.604Z</time></trkpt><trkpt lat="46.0141203" lon="11.7412916"><ele>1037.0</ele><time>2026-04-11T13:24:58.604Z</time></trkpt><trkpt lat="46.0141157" lon="11.7411884"><ele>1037.0</ele><time>2026-04-11T13:24:59.604Z</time></trkpt><trkpt lat="46.0141142" lon="11.7410845"><ele>1037.0</ele><time>2026-04-11T13:25:00.604Z</time></trkpt><trkpt lat="46.0141085" lon="11.7409771"><ele>1036.4</ele><time>2026-04-11T13:25:01.604Z</time></trkpt><trkpt lat="46.0140955" lon="11.740839"><ele>1035.8000000000002</ele><time>2026-04-11T13:25:02.605Z</time></trkpt><trkpt lat="46.0140607" lon="11.7406696"><ele>1035.2</ele><time>2026-04-11T13:25:03.604Z</time></trkpt><trkpt lat="46.014014" lon="11.7405366"><ele>1034.6000000000001</ele><time>2026-04-11T13:25:04.603Z</time></trkpt><trkpt lat="46.0139536" lon="11.740459"><ele>1034.0</ele><time>2026-04-11T13:25:05.604Z</time></trkpt><trkpt lat="46.0138639" lon="11.7404121"><ele>1034.0</ele><time>2026-04-11T13:25:06.604Z</time></trkpt><trkpt lat="46.0137567" lon="11.7403967"><ele>1034.0</ele><time>2026-04-11T13:25:07.604Z</time></trkpt><trkpt lat="46.0136389" lon="11.7403962"><ele>1034.0</ele><time>2026-04-11T13:25:08.604Z</time></trkpt><trkpt lat="46.0135095" lon="11.7404233"><ele>1034.0</ele><time>2026-04-11T13:25:09.604Z</time></trkpt><trkpt lat="46.0133838" lon="11.7404722"><ele>1032.0</ele><time>2026-04-11T13:25:10.605Z</time></trkpt><trkpt lat="46.0132722" lon="11.7405439"><ele>1030.0</ele><time>2026-04-11T13:25:11.604Z</time></trkpt><trkpt lat="46.0131738" lon="11.7406173"><ele>1028.0</ele><time>2026-04-11T13:25:12.604Z</time></trkpt><trkpt lat="46.0130902" lon="11.7406591"><ele>1026.0</ele><time>2026-04-11T13:25:13.603Z</time></trkpt><trkpt lat="46.0130139" lon="11.7406597"><ele>1024.0</ele><time>2026-04-11T13:25:14.604Z</time></trkpt><trkpt lat="46.0129396" lon="11.7406192"><ele>1023.9999999999999</ele><time>2026-04-11T13:25:15.604Z</time></trkpt><trkpt lat="46.0128721" lon="11.7405528"><ele>1024.0</ele><time>2026-04-11T13:25:16.604Z</time></trkpt><trkpt lat="46.0128154" lon="11.7404762"><ele>1024.0</ele><time>2026-04-11T13:25:17.603Z</time></trkpt><trkpt lat="46.0127637" lon="11.7404028"><ele>1024.0</ele><time>2026-04-11T13:25:18.603Z</time></trkpt><trkpt lat="46.0127107" lon="11.7403347"><ele>1023.9999999999999</ele><time>2026-04-11T13:25:19.604Z</time></trkpt><trkpt lat="46.0126504" lon="11.7402732"><ele>1024.0</ele><time>2026-04-11T13:25:20.604Z</time></trkpt><trkpt lat="46.0125875" lon="11.7402196"><ele>1022.9999999999999</ele><time>2026-04-11T13:25:21.604Z</time></trkpt><trkpt lat="46.0125249" lon="11.7401637"><ele>1022.0</ele><time>2026-04-11T13:25:22.604Z</time></trkpt><trkpt lat="46.0124589" lon="11.7401054"><ele>1021.0</ele><time>2026-04-11T13:25:23.604Z</time></trkpt><trkpt lat="46.0123839" lon="11.7400352"><ele>1020.0</ele><time>2026-04-11T13:25:24.604Z</time></trkpt><trkpt lat="46.0123111" lon="11.739954"><ele>1018.9999999999999</ele><time>2026-04-11T13:25:25.605Z</time></trkpt><trkpt lat="46.0122528" lon="11.7398634"><ele>1018.0</ele><time>2026-04-11T13:25:26.604Z</time></trkpt><trkpt lat="46.0122144" lon="11.7397552"><ele>1017.9999999999999</ele><time>2026-04-11T13:25:27.604Z</time></trkpt><trkpt lat="46.0121883" lon="11.7396281"><ele>1018.0</ele><time>2026-04-11T13:25:28.605Z</time></trkpt><trkpt lat="46.0121669" lon="11.7395036"><ele>1018.0</ele><time>2026-04-11T13:25:29.605Z</time></trkpt><trkpt lat="46.0121477" lon="11.7393855"><ele>1018.0</ele><time>2026-04-11T13:25:30.605Z</time></trkpt><trkpt lat="46.0121266" lon="11.7392717"><ele>1017.9999999999999</ele><time>2026-04-11T13:25:31.605Z</time></trkpt><trkpt lat="46.0121027" lon="11.7391645"><ele>1018.0</ele><time>2026-04-11T13:25:32.604Z</time></trkpt><trkpt lat="46.0120769" lon="11.7390637"><ele>1018.2857142857142</ele><time>2026-04-11T13:25:33.605Z</time></trkpt><trkpt lat="46.0120473" lon="11.7389702"><ele>1018.5714285714286</ele><time>2026-04-11T13:25:34.604Z</time></trkpt><trkpt lat="46.0120062" lon="11.7388883"><ele>1018.8571428571429</ele><time>2026-04-11T13:25:35.604Z</time></trkpt><trkpt lat="46.0119567" lon="11.7388198"><ele>1019.1428571428571</ele><time>2026-04-11T13:25:36.604Z</time></trkpt><trkpt lat="46.0119027" lon="11.7387583"><ele>1019.4285714285716</ele><time>2026-04-11T13:25:37.604Z</time></trkpt><trkpt lat="46.0118509" lon="11.7386939"><ele>1019.7142857142858</ele><time>2026-04-11T13:25:38.605Z</time></trkpt><trkpt lat="46.0118017" lon="11.7386294"><ele>1020.0</ele><time>2026-04-11T13:25:39.604Z</time></trkpt><trkpt lat="46.0117029" lon="11.7385107"><ele>1020.7142857142858</ele><time>2026-04-11T13:25:41.604Z</time></trkpt><trkpt lat="46.0116519" lon="11.7384342"><ele>1021.4285714285716</ele><time>2026-04-11T13:25:42.605Z</time></trkpt><trkpt lat="46.0116053" lon="11.7383561"><ele>1022.1428571428571</ele><time>2026-04-11T13:25:43.606Z</time></trkpt><trkpt lat="46.0115508" lon="11.7382859"><ele>1022.8571428571429</ele><time>2026-04-11T13:25:44.604Z</time></trkpt><trkpt lat="46.0114952" lon="11.7382186"><ele>1023.5714285714286</ele><time>2026-04-11T13:25:45.604Z</time></trkpt><trkpt lat="46.0114443" lon="11.7381493"><ele>1024.2857142857142</ele><time>2026-04-11T13:25:46.605Z</time></trkpt><trkpt lat="46.0113965" lon="11.7380765"><ele>1025.0</ele><time>2026-04-11T13:25:47.605Z</time></trkpt><trkpt lat="46.0113421" lon="11.7380019"><ele>1025.0</ele><time>2026-04-11T13:25:48.604Z</time></trkpt><trkpt lat="46.0112759" lon="11.7379206"><ele>1025.0</ele><time>2026-04-11T13:25:49.605Z</time></trkpt><trkpt lat="46.0112039" lon="11.7378279"><ele>1025.0</ele><time>2026-04-11T13:25:50.604Z</time></trkpt><trkpt lat="46.01114" lon="11.7377367"><ele>1025.0</ele><time>2026-04-11T13:25:51.604Z</time></trkpt><trkpt lat="46.0110862" lon="11.7376529"><ele>1025.0</ele><time>2026-04-11T13:25:52.604Z</time></trkpt><trkpt lat="46.0110342" lon="11.7375755"><ele>1025.0</ele><time>2026-04-11T13:25:53.604Z</time></trkpt><trkpt lat="46.0109789" lon="11.7374939"><ele>1024.6666666666667</ele><time>2026-04-11T13:25:54.604Z</time></trkpt><trkpt lat="46.0109185" lon="11.737408"><ele>1024.3333333333335</ele><time>2026-04-11T13:25:55.605Z</time></trkpt><trkpt lat="46.0108539" lon="11.7373384"><ele>1024.0</ele><time>2026-04-11T13:25:56.605Z</time></trkpt><trkpt lat="46.0107768" lon="11.7372792"><ele>1023.6666666666667</ele><time>2026-04-11T13:25:57.605Z</time></trkpt><trkpt lat="46.010695" lon="11.7372314"><ele>1023.3333333333334</ele><time>2026-04-11T13:25:58.605Z</time></trkpt><trkpt lat="46.0106105" lon="11.7371956"><ele>1023.0</ele><time>2026-04-11T13:25:59.604Z</time></trkpt><trkpt lat="46.0105328" lon="11.7371674"><ele>1021.6666666666666</ele><time>2026-04-11T13:26:00.605Z</time></trkpt><trkpt lat="46.0104637" lon="11.7371401"><ele>1020.3333333333333</ele><time>2026-04-11T13:26:01.605Z</time></trkpt><trkpt lat="46.0103983" lon="11.7370919"><ele>1019.0</ele><time>2026-04-11T13:26:02.605Z</time></trkpt><trkpt lat="46.0103374" lon="11.7370125"><ele>1017.6666666666666</ele><time>2026-04-11T13:26:03.605Z</time></trkpt><trkpt lat="46.0102876" lon="11.7369157"><ele>1016.3333333333333</ele><time>2026-04-11T13:26:04.605Z</time></trkpt><trkpt lat="46.0102514" lon="11.736807"><ele>1015.0</ele><time>2026-04-11T13:26:05.606Z</time></trkpt><trkpt lat="46.0102313" lon="11.7366927"><ele>1014.4999999999999</ele><time>2026-04-11T13:26:06.604Z</time></trkpt><trkpt lat="46.0102251" lon="11.7365769"><ele>1014.0</ele><time>2026-04-11T13:26:07.605Z</time></trkpt><trkpt lat="46.0102208" lon="11.7364544"><ele>1013.5</ele><time>2026-04-11T13:26:08.606Z</time></trkpt><trkpt lat="46.010219" lon="11.7363388"><ele>1013.0</ele><time>2026-04-11T13:26:09.605Z</time></trkpt><trkpt lat="46.0102126" lon="11.7362269"><ele>1012.4999999999999</ele><time>2026-04-11T13:26:10.605Z</time></trkpt><trkpt lat="46.0101999" lon="11.7360908"><ele>1012.0</ele><time>2026-04-11T13:26:11.606Z</time></trkpt><trkpt lat="46.0101707" lon="11.7359208"><ele>1012.0</ele><time>2026-04-11T13:26:12.605Z</time></trkpt><trkpt lat="46.0101323" lon="11.7357738"><ele>1012.0</ele><time>2026-04-11T13:26:13.604Z</time></trkpt><trkpt lat="46.0101107" lon="11.7356786"><ele>1012.0</ele><time>2026-04-11T13:26:14.605Z</time></trkpt><trkpt lat="46.0101018" lon="11.7354893"><ele>1012.0</ele><time>2026-04-11T13:26:16.606Z</time></trkpt><trkpt lat="46.0101239" lon="11.7353846"><ele>1012.0</ele><time>2026-04-11T13:26:17.604Z</time></trkpt><trkpt lat="46.0101607" lon="11.7352596"><ele>1011.8333333333333</ele><time>2026-04-11T13:26:18.605Z</time></trkpt><trkpt lat="46.0101936" lon="11.7351386"><ele>1011.6666666666666</ele><time>2026-04-11T13:26:19.605Z</time></trkpt><trkpt lat="46.0102048" lon="11.7350271"><ele>1011.5</ele><time>2026-04-11T13:26:20.605Z</time></trkpt><trkpt lat="46.0101949" lon="11.7349236"><ele>1011.3333333333333</ele><time>2026-04-11T13:26:21.606Z</time></trkpt><trkpt lat="46.0101651" lon="11.7348276"><ele>1011.1666666666666</ele><time>2026-04-11T13:26:22.605Z</time></trkpt><trkpt lat="46.010126" lon="11.734736"><ele>1011.0</ele><time>2026-04-11T13:26:23.606Z</time></trkpt><trkpt lat="46.0100931" lon="11.7346404"><ele>1010.9999999999999</ele><time>2026-04-11T13:26:24.605Z</time></trkpt><trkpt lat="46.0100682" lon="11.7345398"><ele>1011.0</ele><time>2026-04-11T13:26:25.605Z</time></trkpt><trkpt lat="46.0100507" lon="11.734433"><ele>1010.9999999999999</ele><time>2026-04-11T13:26:26.605Z</time></trkpt><trkpt lat="46.0100397" lon="11.7343226"><ele>1010.9999999999999</ele><time>2026-04-11T13:26:27.606Z</time></trkpt><trkpt lat="46.0100294" lon="11.7342139"><ele>1011.0</ele><time>2026-04-11T13:26:28.605Z</time></trkpt><trkpt lat="46.0100162" lon="11.7341123"><ele>1010.9999999999999</ele><time>2026-04-11T13:26:29.604Z</time></trkpt><trkpt lat="46.0100036" lon="11.7340103"><ele>1010.9999999999999</ele><time>2026-04-11T13:26:30.605Z</time></trkpt><trkpt lat="46.0099854" lon="11.733898"><ele>1010.6666666666666</ele><time>2026-04-11T13:26:31.605Z</time></trkpt><trkpt lat="46.0099712" lon="11.7337914"><ele>1010.3333333333333</ele><time>2026-04-11T13:26:32.605Z</time></trkpt><trkpt lat="46.0099524" lon="11.7336816"><ele>1010.0</ele><time>2026-04-11T13:26:33.605Z</time></trkpt><trkpt lat="46.0099298" lon="11.7335682"><ele>1009.6666666666666</ele><time>2026-04-11T13:26:34.606Z</time></trkpt><trkpt lat="46.0099037" lon="11.7334556"><ele>1009.3333333333333</ele><time>2026-04-11T13:26:35.605Z</time></trkpt><trkpt lat="46.0098773" lon="11.7333448"><ele>1009.0</ele><time>2026-04-11T13:26:36.605Z</time></trkpt><trkpt lat="46.0098547" lon="11.7332441"><ele>1008.9999999999999</ele><time>2026-04-11T13:26:37.605Z</time></trkpt><trkpt lat="46.0098367" lon="11.7331563"><ele>1009.0</ele><time>2026-04-11T13:26:38.606Z</time></trkpt><trkpt lat="46.0098073" lon="11.7329952"><ele>1009.0</ele><time>2026-04-11T13:26:40.605Z</time></trkpt><trkpt lat="46.0097756" lon="11.7328584"><ele>1009.0</ele><time>2026-04-11T13:26:42.605Z</time></trkpt><trkpt lat="46.0097525" lon="11.7327624"><ele>1008.9999999999999</ele><time>2026-04-11T13:26:44.606Z</time></trkpt><trkpt lat="46.0097198" lon="11.7326744"><ele>1009.0</ele><time>2026-04-11T13:30:11.609Z</time></trkpt><trkpt lat="46.0097267" lon="11.7325696"><ele>1010.9999999999999</ele><time>2026-04-11T13:30:13.609Z</time></trkpt><trkpt lat="46.0097952" lon="11.7324017"><ele>1013.0</ele><time>2026-04-11T13:30:15.609Z</time></trkpt><trkpt lat="46.0098262" lon="11.732308"><ele>1015.0</ele><time>2026-04-11T13:30:16.609Z</time></trkpt><trkpt lat="46.0098538" lon="11.7322121"><ele>1017.0</ele><time>2026-04-11T13:30:17.609Z</time></trkpt><trkpt lat="46.009881" lon="11.7321259"><ele>1018.9999999999999</ele><time>2026-04-11T13:30:18.608Z</time></trkpt><trkpt lat="46.0099136" lon="11.7320394"><ele>1021.0</ele><time>2026-04-11T13:30:19.609Z</time></trkpt><trkpt lat="46.0099503" lon="11.7319512"><ele>1021.3333333333333</ele><time>2026-04-11T13:30:20.608Z</time></trkpt><trkpt lat="46.0099896" lon="11.7318535"><ele>1021.6666666666666</ele><time>2026-04-11T13:30:21.608Z</time></trkpt><trkpt lat="46.0100299" lon="11.7317498"><ele>1022.0</ele><time>2026-04-11T13:30:22.609Z</time></trkpt><trkpt lat="46.0100697" lon="11.7316494"><ele>1022.3333333333333</ele><time>2026-04-11T13:30:23.609Z</time></trkpt><trkpt lat="46.0101117" lon="11.7315484"><ele>1022.6666666666666</ele><time>2026-04-11T13:30:24.609Z</time></trkpt><trkpt lat="46.0101554" lon="11.7314398"><ele>1023.0</ele><time>2026-04-11T13:30:25.608Z</time></trkpt><trkpt lat="46.0101996" lon="11.7313307"><ele>1023.0</ele><time>2026-04-11T13:30:26.608Z</time></trkpt><trkpt lat="46.0102466" lon="11.731209"><ele>1023.0</ele><time>2026-04-11T13:30:27.609Z</time></trkpt><trkpt lat="46.0102949" lon="11.7310928"><ele>1023.0</ele><time>2026-04-11T13:30:28.609Z</time></trkpt><trkpt lat="46.0103415" lon="11.7310099"><ele>1023.0</ele><time>2026-04-11T13:30:29.609Z</time></trkpt><trkpt lat="46.0103965" lon="11.7309505"><ele>1023.0</ele><time>2026-04-11T13:30:30.609Z</time></trkpt><trkpt lat="46.0104664" lon="11.7309152"><ele>1023.0</ele><time>2026-04-11T13:30:31.608Z</time></trkpt><trkpt lat="46.0105659" lon="11.7308957"><ele>1024.4</ele><time>2026-04-11T13:30:32.609Z</time></trkpt><trkpt lat="46.0106594" lon="11.7308593"><ele>1025.8</ele><time>2026-04-11T13:30:33.608Z</time></trkpt><trkpt lat="46.0107335" lon="11.7307887"><ele>1027.2</ele><time>2026-04-11T13:30:34.608Z</time></trkpt><trkpt lat="46.0107953" lon="11.7306832"><ele>1028.6</ele><time>2026-04-11T13:30:35.609Z</time></trkpt><trkpt lat="46.0108354" lon="11.7305586"><ele>1030.0</ele><time>2026-04-11T13:30:36.609Z</time></trkpt><trkpt lat="46.010851" lon="11.730419"><ele>1029.8</ele><time>2026-04-11T13:30:37.609Z</time></trkpt><trkpt lat="46.010828" lon="11.7302733"><ele>1029.6</ele><time>2026-04-11T13:30:38.608Z</time></trkpt><trkpt lat="46.0107869" lon="11.7300928"><ele>1029.4</ele><time>2026-04-11T13:30:39.609Z</time></trkpt><trkpt lat="46.0107634" lon="11.7299718"><ele>1029.2</ele><time>2026-04-11T13:30:40.608Z</time></trkpt><trkpt lat="46.0107837" lon="11.7298468"><ele>1029.0</ele><time>2026-04-11T13:30:42.608Z</time></trkpt><trkpt lat="46.0108933" lon="11.7297668"><ele>1029.0</ele><time>2026-04-11T13:30:44.61Z</time></trkpt><trkpt lat="46.0109959" lon="11.7297266"><ele>1029.0</ele><time>2026-04-11T13:30:45.609Z</time></trkpt><trkpt lat="46.0111245" lon="11.7296885"><ele>1029.0</ele><time>2026-04-11T13:30:46.609Z</time></trkpt><trkpt lat="46.0112678" lon="11.7296847"><ele>1029.0</ele><time>2026-04-11T13:30:47.61Z</time></trkpt><trkpt lat="46.0113909" lon="11.7296772"><ele>1029.0</ele><time>2026-04-11T13:30:48.608Z</time></trkpt><trkpt lat="46.011487" lon="11.7296539"><ele>1029.0</ele><time>2026-04-11T13:30:49.608Z</time></trkpt><trkpt lat="46.0116025" lon="11.7295731"><ele>1029.0</ele><time>2026-04-11T13:30:50.609Z</time></trkpt><trkpt lat="46.0117145" lon="11.7294627"><ele>1029.0</ele><time>2026-04-11T13:30:51.609Z</time></trkpt><trkpt lat="46.0118393" lon="11.729336"><ele>1031.6666666666667</ele><time>2026-04-11T13:30:52.609Z</time></trkpt><trkpt lat="46.0119963" lon="11.7291958"><ele>1034.3333333333335</ele><time>2026-04-11T13:30:53.608Z</time></trkpt><trkpt lat="46.0121666" lon="11.7290537"><ele>1037.0</ele><time>2026-04-11T13:30:54.609Z</time></trkpt><trkpt lat="46.0123073" lon="11.7289379"><ele>1037.0</ele><time>2026-04-11T13:30:55.608Z</time></trkpt><trkpt lat="46.0123988" lon="11.7288546"><ele>1037.0</ele><time>2026-04-11T13:30:56.608Z</time></trkpt><trkpt lat="46.012462" lon="11.728781"><ele>1037.0</ele><time>2026-04-11T13:30:57.609Z</time></trkpt><trkpt lat="46.012525" lon="11.7286735"><ele>1037.0</ele><time>2026-04-11T13:30:58.61Z</time></trkpt><trkpt lat="46.0125926" lon="11.7285365"><ele>1037.0</ele><time>2026-04-11T13:30:59.608Z</time></trkpt><trkpt lat="46.0126642" lon="11.7283956"><ele>1036.6</ele><time>2026-04-11T13:31:00.608Z</time></trkpt><trkpt lat="46.0127396" lon="11.7282444"><ele>1036.2</ele><time>2026-04-11T13:31:01.609Z</time></trkpt><trkpt lat="46.0128114" lon="11.7281165"><ele>1035.8</ele><time>2026-04-11T13:31:02.608Z</time></trkpt><trkpt lat="46.0128776" lon="11.7280024"><ele>1035.4</ele><time>2026-04-11T13:31:03.609Z</time></trkpt><trkpt lat="46.0129372" lon="11.7279245"><ele>1035.0</ele><time>2026-04-11T13:31:04.609Z</time></trkpt><trkpt lat="46.0129984" lon="11.7278825"><ele>1035.0</ele><time>2026-04-11T13:31:05.61Z</time></trkpt><trkpt lat="46.0130602" lon="11.7278558"><ele>1035.0</ele><time>2026-04-11T13:31:06.609Z</time></trkpt><trkpt lat="46.0131363" lon="11.7278513"><ele>1035.0</ele><time>2026-04-11T13:31:07.609Z</time></trkpt><trkpt lat="46.0132153" lon="11.7278552"><ele>1035.0</ele><time>2026-04-11T13:31:08.608Z</time></trkpt><trkpt lat="46.0133166" lon="11.7278655"><ele>1035.0</ele><time>2026-04-11T13:31:09.61Z</time></trkpt><trkpt lat="46.0134474" lon="11.7278586"><ele>1035.0</ele><time>2026-04-11T13:31:10.609Z</time></trkpt><trkpt lat="46.0135567" lon="11.727793"><ele>1035.0</ele><time>2026-04-11T13:31:11.609Z</time></trkpt><trkpt lat="46.0136404" lon="11.7277204"><ele>1035.0</ele><time>2026-04-11T13:31:12.61Z</time></trkpt><trkpt lat="46.0137205" lon="11.7276229"><ele>1035.0</ele><time>2026-04-11T13:31:13.61Z</time></trkpt><trkpt lat="46.0137757" lon="11.7275111"><ele>1035.0</ele><time>2026-04-11T13:31:14.61Z</time></trkpt><trkpt lat="46.0138194" lon="11.727387"><ele>1035.0</ele><time>2026-04-11T13:31:15.609Z</time></trkpt><trkpt lat="46.013858" lon="11.7272202"><ele>1035.0</ele><time>2026-04-11T13:31:16.61Z</time></trkpt><trkpt lat="46.0138956" lon="11.7270426"><ele>1035.0</ele><time>2026-04-11T13:31:17.609Z</time></trkpt><trkpt lat="46.0139394" lon="11.7268836"><ele>1035.0</ele><time>2026-04-11T13:31:18.61Z</time></trkpt><trkpt lat="46.0139892" lon="11.7267328"><ele>1037.4</ele><time>2026-04-11T13:31:19.61Z</time></trkpt><trkpt lat="46.0140419" lon="11.7266196"><ele>1039.8</ele><time>2026-04-11T13:31:20.61Z</time></trkpt><trkpt lat="46.0140777" lon="11.7265196"><ele>1042.2</ele><time>2026-04-11T13:31:21.61Z</time></trkpt><trkpt lat="46.0140892" lon="11.7263347"><ele>1044.6</ele><time>2026-04-11T13:31:23.61Z</time></trkpt><trkpt lat="46.0140705" lon="11.726227"><ele>1047.0</ele><time>2026-04-11T13:31:24.61Z</time></trkpt><trkpt lat="46.0140343" lon="11.7260936"><ele>1047.6666666666667</ele><time>2026-04-11T13:31:25.609Z</time></trkpt><trkpt lat="46.013994" lon="11.7259497"><ele>1048.3333333333333</ele><time>2026-04-11T13:31:26.609Z</time></trkpt><trkpt lat="46.0139573" lon="11.7258183"><ele>1049.0</ele><time>2026-04-11T13:31:27.609Z</time></trkpt><trkpt lat="46.0139249" lon="11.7257178"><ele>1049.6666666666665</ele><time>2026-04-11T13:31:28.609Z</time></trkpt><trkpt lat="46.0138829" lon="11.7256254"><ele>1050.3333333333333</ele><time>2026-04-11T13:31:29.609Z</time></trkpt><trkpt lat="46.0138287" lon="11.7255287"><ele>1051.0</ele><time>2026-04-11T13:31:30.61Z</time></trkpt><trkpt lat="46.0137816" lon="11.7254296"><ele>1051.0</ele><time>2026-04-11T13:31:31.61Z</time></trkpt><trkpt lat="46.013752" lon="11.7253488"><ele>1051.0</ele><time>2026-04-11T13:31:32.609Z</time></trkpt><trkpt lat="46.0137758" lon="11.7252216"><ele>1051.0</ele><time>2026-04-11T13:31:34.609Z</time></trkpt><trkpt lat="46.0138756" lon="11.7251492"><ele>1051.0</ele><time>2026-04-11T13:31:36.61Z</time></trkpt><trkpt lat="46.0139395" lon="11.7251387"><ele>1051.0</ele><time>2026-04-11T13:31:37.609Z</time></trkpt><trkpt lat="46.0140056" lon="11.725129"><ele>1051.0</ele><time>2026-04-11T13:31:38.61Z</time></trkpt><trkpt lat="46.0140909" lon="11.7251169"><ele>1046.2</ele><time>2026-04-11T13:31:39.609Z</time></trkpt><trkpt lat="46.0141882" lon="11.7250904"><ele>1041.3999999999999</ele><time>2026-04-11T13:31:40.61Z</time></trkpt><trkpt lat="46.0142808" lon="11.7250332"><ele>1036.6</ele><time>2026-04-11T13:31:41.609Z</time></trkpt><trkpt lat="46.0143528" lon="11.7249499"><ele>1031.8</ele><time>2026-04-11T13:31:42.609Z</time></trkpt><trkpt lat="46.0144032" lon="11.7248516"><ele>1027.0</ele><time>2026-04-11T13:31:43.609Z</time></trkpt><trkpt lat="46.0144328" lon="11.7247384"><ele>1027.0</ele><time>2026-04-11T13:31:44.61Z</time></trkpt><trkpt lat="46.0144538" lon="11.7246109"><ele>1027.0</ele><time>2026-04-11T13:31:45.609Z</time></trkpt><trkpt lat="46.0144643" lon="11.7244646"><ele>1027.0</ele><time>2026-04-11T13:31:46.609Z</time></trkpt><trkpt lat="46.0144778" lon="11.7243159"><ele>1027.0</ele><time>2026-04-11T13:31:47.609Z</time></trkpt><trkpt lat="46.0144917" lon="11.7241741"><ele>1027.0</ele><time>2026-04-11T13:31:48.609Z</time></trkpt><trkpt lat="46.0145032" lon="11.7240411"><ele>1029.2</ele><time>2026-04-11T13:31:49.61Z</time></trkpt><trkpt lat="46.0145025" lon="11.7239039"><ele>1031.4</ele><time>2026-04-11T13:31:50.61Z</time></trkpt><trkpt lat="46.0144769" lon="11.7237571"><ele>1033.6</ele><time>2026-04-11T13:31:51.61Z</time></trkpt><trkpt lat="46.0144354" lon="11.7236008"><ele>1035.8</ele><time>2026-04-11T13:31:52.611Z</time></trkpt><trkpt lat="46.0143897" lon="11.7234669"><ele>1038.0</ele><time>2026-04-11T13:31:53.61Z</time></trkpt><trkpt lat="46.0143531" lon="11.7233765"><ele>1038.0</ele><time>2026-04-11T13:31:54.61Z</time></trkpt><trkpt lat="46.01437" lon="11.7232706"><ele>1038.0</ele><time>2026-04-11T13:31:56.61Z</time></trkpt><trkpt lat="46.0144246" lon="11.7232163"><ele>1038.0</ele><time>2026-04-11T13:31:57.611Z</time></trkpt><trkpt lat="46.0145195" lon="11.7231516"><ele>1038.0</ele><time>2026-04-11T13:31:58.61Z</time></trkpt><trkpt lat="46.0145992" lon="11.7230617"><ele>1038.0</ele><time>2026-04-11T13:31:59.609Z</time></trkpt><trkpt lat="46.0146516" lon="11.7229446"><ele>1038.0</ele><time>2026-04-11T13:32:00.611Z</time></trkpt><trkpt lat="46.0146893" lon="11.7228042"><ele>1039.0</ele><time>2026-04-11T13:32:01.609Z</time></trkpt><trkpt lat="46.0147054" lon="11.7226442"><ele>1040.0</ele><time>2026-04-11T13:32:02.611Z</time></trkpt><trkpt lat="46.0147163" lon="11.7224838"><ele>1041.0</ele><time>2026-04-11T13:32:03.61Z</time></trkpt><trkpt lat="46.0147184" lon="11.7223364"><ele>1042.0</ele><time>2026-04-11T13:32:04.611Z</time></trkpt><trkpt lat="46.0147088" lon="11.7222316"><ele>1043.0</ele><time>2026-04-11T13:32:05.611Z</time></trkpt><trkpt lat="46.0146618" lon="11.7221574"><ele>1043.0</ele><time>2026-04-11T13:32:07.611Z</time></trkpt><trkpt lat="46.0145538" lon="11.7221213"><ele>1043.0</ele><time>2026-04-11T13:32:09.609Z</time></trkpt><trkpt lat="46.0144811" lon="11.7221264"><ele>1043.0</ele><time>2026-04-11T13:32:10.611Z</time></trkpt><trkpt lat="46.0144097" lon="11.7221295"><ele>1043.0</ele><time>2026-04-11T13:32:11.61Z</time></trkpt><trkpt lat="46.014346" lon="11.7221161"><ele>1043.0</ele><time>2026-04-11T13:32:12.61Z</time></trkpt><trkpt lat="46.0142347" lon="11.7220456"><ele>1043.0</ele><time>2026-04-11T13:32:14.61Z</time></trkpt><trkpt lat="46.0142057" lon="11.7219105"><ele>1042.8</ele><time>2026-04-11T13:32:16.61Z</time></trkpt><trkpt lat="46.0142323" lon="11.7218207"><ele>1042.6</ele><time>2026-04-11T13:32:17.609Z</time></trkpt><trkpt lat="46.0142755" lon="11.7216656"><ele>1042.4</ele><time>2026-04-11T13:32:18.61Z</time></trkpt><trkpt lat="46.0143078" lon="11.7215103"><ele>1042.2</ele><time>2026-04-11T13:32:19.611Z</time></trkpt><trkpt lat="46.0143318" lon="11.7213654"><ele>1042.0</ele><time>2026-04-11T13:32:20.61Z</time></trkpt><trkpt lat="46.014362" lon="11.7212779"><ele>1042.0</ele><time>2026-04-11T13:32:21.61Z</time></trkpt><trkpt lat="46.0144258" lon="11.7212126"><ele>1042.0</ele><time>2026-04-11T13:32:22.61Z</time></trkpt><trkpt lat="46.0144993" lon="11.721145"><ele>1042.0</ele><time>2026-04-11T13:32:23.611Z</time></trkpt><trkpt lat="46.0145756" lon="11.7210632"><ele>1042.0</ele><time>2026-04-11T13:32:24.611Z</time></trkpt><trkpt lat="46.0146394" lon="11.7209428"><ele>1042.0</ele><time>2026-04-11T13:32:25.611Z</time></trkpt><trkpt lat="46.0146988" lon="11.7208158"><ele>1042.0</ele><time>2026-04-11T13:32:26.611Z</time></trkpt><trkpt lat="46.0147405" lon="11.7206773"><ele>1042.0</ele><time>2026-04-11T13:32:27.611Z</time></trkpt><trkpt lat="46.0147651" lon="11.7205478"><ele>1042.0</ele><time>2026-04-11T13:32:28.611Z</time></trkpt><trkpt lat="46.014773" lon="11.7204324"><ele>1042.0</ele><time>2026-04-11T13:32:29.611Z</time></trkpt><trkpt lat="46.0147635" lon="11.7203359"><ele>1042.0</ele><time>2026-04-11T13:32:30.611Z</time></trkpt><trkpt lat="46.0146881" lon="11.720205"><ele>1041.3333333333333</ele><time>2026-04-11T13:32:32.61Z</time></trkpt><trkpt lat="46.014619" lon="11.7201589"><ele>1040.6666666666665</ele><time>2026-04-11T13:32:33.611Z</time></trkpt><trkpt lat="46.0145449" lon="11.7201168"><ele>1040.0</ele><time>2026-04-11T13:32:34.61Z</time></trkpt><trkpt lat="46.0144795" lon="11.7200634"><ele>1039.3333333333333</ele><time>2026-04-11T13:32:35.612Z</time></trkpt><trkpt lat="46.0144308" lon="11.7200003"><ele>1038.6666666666667</ele><time>2026-04-11T13:32:36.611Z</time></trkpt><trkpt lat="46.0143914" lon="11.7198615"><ele>1038.0</ele><time>2026-04-11T13:32:38.61Z</time></trkpt><trkpt lat="46.014409" lon="11.719771"><ele>1038.0</ele><time>2026-04-11T13:32:39.61Z</time></trkpt><trkpt lat="46.0144441" lon="11.7196745"><ele>1038.0</ele><time>2026-04-11T13:32:40.611Z</time></trkpt><trkpt lat="46.014484" lon="11.7195725"><ele>1038.0</ele><time>2026-04-11T13:32:41.611Z</time></trkpt><trkpt lat="46.0145298" lon="11.7194611"><ele>1038.0</ele><time>2026-04-11T13:32:42.61Z</time></trkpt><trkpt lat="46.014563" lon="11.7193324"><ele>1038.0</ele><time>2026-04-11T13:32:43.611Z</time></trkpt><trkpt lat="46.0145925" lon="11.7191949"><ele>1038.0</ele><time>2026-04-11T13:32:44.61Z</time></trkpt><trkpt lat="46.0146118" lon="11.7190691"><ele>1037.5</ele><time>2026-04-11T13:32:45.611Z</time></trkpt><trkpt lat="46.0146211" lon="11.7189454"><ele>1037.0</ele><time>2026-04-11T13:32:46.612Z</time></trkpt><trkpt lat="46.0146209" lon="11.7188227"><ele>1036.5</ele><time>2026-04-11T13:32:47.611Z</time></trkpt><trkpt lat="46.014611" lon="11.7186967"><ele>1036.0</ele><time>2026-04-11T13:32:48.61Z</time></trkpt><trkpt lat="46.0145912" lon="11.7185673"><ele>1035.5</ele><time>2026-04-11T13:32:49.61Z</time></trkpt><trkpt lat="46.0145641" lon="11.7184358"><ele>1035.0</ele><time>2026-04-11T13:32:50.611Z</time></trkpt><trkpt lat="46.014536" lon="11.7183105"><ele>1034.8333333333333</ele><time>2026-04-11T13:32:51.611Z</time></trkpt><trkpt lat="46.0145064" lon="11.7181911"><ele>1034.6666666666667</ele><time>2026-04-11T13:32:52.61Z</time></trkpt><trkpt lat="46.0144758" lon="11.718077"><ele>1034.5</ele><time>2026-04-11T13:32:53.611Z</time></trkpt><trkpt lat="46.0144412" lon="11.7179632"><ele>1034.3333333333335</ele><time>2026-04-11T13:32:54.61Z</time></trkpt><trkpt lat="46.0144041" lon="11.7178539"><ele>1034.1666666666667</ele><time>2026-04-11T13:32:55.61Z</time></trkpt><trkpt lat="46.0143645" lon="11.7177495"><ele>1034.0</ele><time>2026-04-11T13:32:56.611Z</time></trkpt><trkpt lat="46.0143192" lon="11.7176501"><ele>1032.6666666666667</ele><time>2026-04-11T13:32:57.612Z</time></trkpt><trkpt lat="46.0142574" lon="11.7175699"><ele>1031.3333333333335</ele><time>2026-04-11T13:32:58.61Z</time></trkpt><trkpt lat="46.014184" lon="11.7175081"><ele>1030.0</ele><time>2026-04-11T13:32:59.611Z</time></trkpt><trkpt lat="46.0141073" lon="11.7174561"><ele>1028.6666666666667</ele><time>2026-04-11T13:33:00.611Z</time></trkpt><trkpt lat="46.0140345" lon="11.7174154"><ele>1027.3333333333333</ele><time>2026-04-11T13:33:01.61Z</time></trkpt><trkpt lat="46.0139564" lon="11.7173784"><ele>1026.0</ele><time>2026-04-11T13:33:02.612Z</time></trkpt><trkpt lat="46.0138746" lon="11.7173331"><ele>1031.5</ele><time>2026-04-11T13:33:03.611Z</time></trkpt><trkpt lat="46.013793" lon="11.7172977"><ele>1037.0</ele><time>2026-04-11T13:33:04.611Z</time></trkpt><trkpt lat="46.0137318" lon="11.7172605"><ele>1042.5</ele><time>2026-04-11T13:33:05.611Z</time></trkpt><trkpt lat="46.0136464" lon="11.717185"><ele>1048.0</ele><time>2026-04-11T13:33:07.612Z</time></trkpt><trkpt lat="46.0136204" lon="11.7170951"><ele>1053.5</ele><time>2026-04-11T13:33:09.61Z</time></trkpt><trkpt lat="46.0136384" lon="11.7169834"><ele>1059.0</ele><time>2026-04-11T13:33:11.61Z</time></trkpt><trkpt lat="46.0137117" lon="11.716884"><ele>1060.0</ele><time>2026-04-11T13:33:13.611Z</time></trkpt><trkpt lat="46.0137741" lon="11.716817"><ele>1061.0</ele><time>2026-04-11T13:33:14.611Z</time></trkpt><trkpt lat="46.0138752" lon="11.7167264"><ele>1062.0</ele><time>2026-04-11T13:33:15.611Z</time></trkpt><trkpt lat="46.0139706" lon="11.7166468"><ele>1063.0</ele><time>2026-04-11T13:33:16.612Z</time></trkpt><trkpt lat="46.0140406" lon="11.7165644"><ele>1064.0</ele><time>2026-04-11T13:33:17.611Z</time></trkpt><trkpt lat="46.0141032" lon="11.7164496"><ele>1064.0</ele><time>2026-04-11T13:33:18.612Z</time></trkpt><trkpt lat="46.0141496" lon="11.7163389"><ele>1064.0</ele><time>2026-04-11T13:33:19.612Z</time></trkpt><trkpt lat="46.0141897" lon="11.7162239"><ele>1064.0</ele><time>2026-04-11T13:33:20.612Z</time></trkpt><trkpt lat="46.0142195" lon="11.7161033"><ele>1064.0</ele><time>2026-04-11T13:33:21.611Z</time></trkpt><trkpt lat="46.0142312" lon="11.7159633"><ele>1064.0</ele><time>2026-04-11T13:33:22.611Z</time></trkpt><trkpt lat="46.0142235" lon="11.7158201"><ele>1064.2</ele><time>2026-04-11T13:33:23.611Z</time></trkpt><trkpt lat="46.0142085" lon="11.7156771"><ele>1064.4</ele><time>2026-04-11T13:33:24.612Z</time></trkpt><trkpt lat="46.0141831" lon="11.7155268"><ele>1064.6</ele><time>2026-04-11T13:33:25.611Z</time></trkpt><trkpt lat="46.0141538" lon="11.7153479"><ele>1064.8</ele><time>2026-04-11T13:33:26.611Z</time></trkpt><trkpt lat="46.0141118" lon="11.7152047"><ele>1065.0</ele><time>2026-04-11T13:33:27.611Z</time></trkpt><trkpt lat="46.0140609" lon="11.7150765"><ele>1063.8</ele><time>2026-04-11T13:33:28.612Z</time></trkpt><trkpt lat="46.0140029" lon="11.7149534"><ele>1062.6</ele><time>2026-04-11T13:33:29.612Z</time></trkpt><trkpt lat="46.0139381" lon="11.7148244"><ele>1061.4</ele><time>2026-04-11T13:33:30.611Z</time></trkpt><trkpt lat="46.0138844" lon="11.7146926"><ele>1060.2</ele><time>2026-04-11T13:33:31.611Z</time></trkpt><trkpt lat="46.0138571" lon="11.7145745"><ele>1059.0</ele><time>2026-04-11T13:33:32.612Z</time></trkpt><trkpt lat="46.0138359" lon="11.7144674"><ele>1057.5714285714284</ele><time>2026-04-11T13:33:33.612Z</time></trkpt><trkpt lat="46.0138411" lon="11.7143668"><ele>1056.142857142857</ele><time>2026-04-11T13:33:34.612Z</time></trkpt><trkpt lat="46.013859" lon="11.7142654"><ele>1054.7142857142858</ele><time>2026-04-11T13:33:35.611Z</time></trkpt><trkpt lat="46.0138852" lon="11.714163"><ele>1053.2857142857142</ele><time>2026-04-11T13:33:36.611Z</time></trkpt><trkpt lat="46.0139042" lon="11.7140613"><ele>1051.857142857143</ele><time>2026-04-11T13:33:37.612Z</time></trkpt><trkpt lat="46.0139032" lon="11.7139699"><ele>1050.4285714285713</ele><time>2026-04-11T13:33:38.611Z</time></trkpt><trkpt lat="46.0138739" lon="11.7138645"><ele>1049.0</ele><time>2026-04-11T13:33:39.612Z</time></trkpt><trkpt lat="46.013819" lon="11.7137734"><ele>1049.0</ele><time>2026-04-11T13:33:40.612Z</time></trkpt><trkpt lat="46.0137572" lon="11.7136706"><ele>1049.0</ele><time>2026-04-11T13:33:41.612Z</time></trkpt><trkpt lat="46.0136798" lon="11.7135878"><ele>1049.0</ele><time>2026-04-11T13:33:42.612Z</time></trkpt><trkpt lat="46.0136039" lon="11.713502"><ele>1049.0</ele><time>2026-04-11T13:33:43.612Z</time></trkpt><trkpt lat="46.0135341" lon="11.7133983"><ele>1049.0</ele><time>2026-04-11T13:33:44.611Z</time></trkpt><trkpt lat="46.0134739" lon="11.7132944"><ele>1050.0</ele><time>2026-04-11T13:33:45.612Z</time></trkpt><trkpt lat="46.0134144" lon="11.7132116"><ele>1051.0</ele><time>2026-04-11T13:33:46.611Z</time></trkpt><trkpt lat="46.013341" lon="11.7131445"><ele>1052.0</ele><time>2026-04-11T13:33:47.611Z</time></trkpt><trkpt lat="46.0132595" lon="11.7130847"><ele>1053.0</ele><time>2026-04-11T13:33:48.612Z</time></trkpt><trkpt lat="46.0131762" lon="11.7130265"><ele>1054.0</ele><time>2026-04-11T13:33:49.611Z</time></trkpt><trkpt lat="46.013078" lon="11.7129649"><ele>1054.0</ele><time>2026-04-11T13:33:50.612Z</time></trkpt><trkpt lat="46.0129788" lon="11.7129143"><ele>1054.0</ele><time>2026-04-11T13:33:51.612Z</time></trkpt><trkpt lat="46.0128757" lon="11.7128672"><ele>1054.0</ele><time>2026-04-11T13:33:52.612Z</time></trkpt><trkpt lat="46.012775" lon="11.7128111"><ele>1054.0</ele><time>2026-04-11T13:33:53.612Z</time></trkpt><trkpt lat="46.0126796" lon="11.712761"><ele>1054.0</ele><time>2026-04-11T13:33:54.611Z</time></trkpt><trkpt lat="46.0125779" lon="11.7127037"><ele>1047.75</ele><time>2026-04-11T13:33:55.611Z</time></trkpt><trkpt lat="46.0124782" lon="11.7126509"><ele>1041.5</ele><time>2026-04-11T13:33:56.612Z</time></trkpt><trkpt lat="46.0123627" lon="11.7125988"><ele>1035.25</ele><time>2026-04-11T13:33:57.612Z</time></trkpt><trkpt lat="46.012251" lon="11.7125557"><ele>1029.0</ele><time>2026-04-11T13:33:58.611Z</time></trkpt><trkpt lat="46.0121358" lon="11.7125156"><ele>1029.0</ele><time>2026-04-11T13:33:59.611Z</time></trkpt><trkpt lat="46.0120171" lon="11.712472"><ele>1029.0</ele><time>2026-04-11T13:34:00.611Z</time></trkpt><trkpt lat="46.0119018" lon="11.7124246"><ele>1029.0</ele><time>2026-04-11T13:34:01.612Z</time></trkpt><trkpt lat="46.011796" lon="11.7123781"><ele>1029.0</ele><time>2026-04-11T13:34:02.611Z</time></trkpt><trkpt lat="46.0116977" lon="11.7123373"><ele>1029.8</ele><time>2026-04-11T13:34:03.612Z</time></trkpt><trkpt lat="46.0115966" lon="11.7123043"><ele>1030.6000000000001</ele><time>2026-04-11T13:34:04.612Z</time></trkpt><trkpt lat="46.011496" lon="11.7123047"><ele>1031.4</ele><time>2026-04-11T13:34:05.612Z</time></trkpt><trkpt lat="46.0113931" lon="11.712313"><ele>1032.2</ele><time>2026-04-11T13:34:06.613Z</time></trkpt><trkpt lat="46.0112874" lon="11.7123208"><ele>1033.0</ele><time>2026-04-11T13:34:07.612Z</time></trkpt><trkpt lat="46.0111725" lon="11.7123321"><ele>1033.0</ele><time>2026-04-11T13:34:08.612Z</time></trkpt><trkpt lat="46.0110688" lon="11.7123475"><ele>1033.0</ele><time>2026-04-11T13:34:09.612Z</time></trkpt><trkpt lat="46.0109569" lon="11.7123597"><ele>1033.0</ele><time>2026-04-11T13:34:10.611Z</time></trkpt><trkpt lat="46.0108455" lon="11.7123884"><ele>1033.0</ele><time>2026-04-11T13:34:11.613Z</time></trkpt><trkpt lat="46.0107379" lon="11.7124101"><ele>1033.0</ele><time>2026-04-11T13:34:12.611Z</time></trkpt><trkpt lat="46.0106524" lon="11.7124"><ele>1034.8333333333333</ele><time>2026-04-11T13:34:13.611Z</time></trkpt><trkpt lat="46.0105436" lon="11.7123714"><ele>1036.6666666666665</ele><time>2026-04-11T13:34:15.613Z</time></trkpt><trkpt lat="46.0104749" lon="11.7123645"><ele>1038.5</ele><time>2026-04-11T13:34:17.613Z</time></trkpt><trkpt lat="46.0104362" lon="11.71227"><ele>1040.3333333333333</ele><time>2026-04-11T13:34:31.611Z</time></trkpt><trkpt lat="46.0105106" lon="11.712153"><ele>1042.1666666666667</ele><time>2026-04-11T13:34:33.612Z</time></trkpt><trkpt lat="46.0105681" lon="11.7120732"><ele>1044.0</ele><time>2026-04-11T13:34:34.612Z</time></trkpt><trkpt lat="46.0106301" lon="11.7119892"><ele>1044.0</ele><time>2026-04-11T13:34:35.613Z</time></trkpt><trkpt lat="46.010696" lon="11.7119082"><ele>1044.0</ele><time>2026-04-11T13:34:36.612Z</time></trkpt><trkpt lat="46.0107639" lon="11.7118218"><ele>1044.0</ele><time>2026-04-11T13:34:37.613Z</time></trkpt><trkpt lat="46.0108431" lon="11.7117312"><ele>1044.0</ele><time>2026-04-11T13:34:38.613Z</time></trkpt><trkpt lat="46.0109151" lon="11.711637"><ele>1044.0</ele><time>2026-04-11T13:34:39.613Z</time></trkpt><trkpt lat="46.0109916" lon="11.7115496"><ele>1046.0</ele><time>2026-04-11T13:34:40.612Z</time></trkpt><trkpt lat="46.0110642" lon="11.7114616"><ele>1048.0</ele><time>2026-04-11T13:34:41.612Z</time></trkpt><trkpt lat="46.0111292" lon="11.7113845"><ele>1050.0</ele><time>2026-04-11T13:34:42.613Z</time></trkpt><trkpt lat="46.0111835" lon="11.7113175"><ele>1052.0</ele><time>2026-04-11T13:34:43.612Z</time></trkpt><trkpt lat="46.0112457" lon="11.7111831"><ele>1054.0</ele><time>2026-04-11T13:34:45.612Z</time></trkpt><trkpt lat="46.0112564" lon="11.7110036"><ele>1054.0</ele><time>2026-04-11T13:34:47.612Z</time></trkpt><trkpt lat="46.0112584" lon="11.7109055"><ele>1054.0</ele><time>2026-04-11T13:34:48.613Z</time></trkpt><trkpt lat="46.0112959" lon="11.7107431"><ele>1054.0</ele><time>2026-04-11T13:34:50.612Z</time></trkpt><trkpt lat="46.0113305" lon="11.7106664"><ele>1054.0</ele><time>2026-04-11T13:34:51.612Z</time></trkpt><trkpt lat="46.0113696" lon="11.7105919"><ele>1054.0</ele><time>2026-04-11T13:34:52.612Z</time></trkpt><trkpt lat="46.0114086" lon="11.7105176"><ele>1054.0</ele><time>2026-04-11T13:34:53.612Z</time></trkpt><trkpt lat="46.0114794" lon="11.7104252"><ele>1054.0</ele><time>2026-04-11T13:34:55.612Z</time></trkpt><trkpt lat="46.011538" lon="11.7103853"><ele>1054.0</ele><time>2026-04-11T13:34:57.614Z</time></trkpt><trkpt lat="46.0116131" lon="11.7103908"><ele>1054.0</ele><time>2026-04-11T13:34:59.613Z</time></trkpt><trkpt lat="46.011704" lon="11.710468"><ele>1054.0</ele><time>2026-04-11T13:35:01.613Z</time></trkpt><trkpt lat="46.0117582" lon="11.7105501"><ele>1054.0</ele><time>2026-04-11T13:35:02.612Z</time></trkpt><trkpt lat="46.0118122" lon="11.7106278"><ele>1054.0</ele><time>2026-04-11T13:35:03.613Z</time></trkpt><trkpt lat="46.0118696" lon="11.7106927"><ele>1049.6666666666665</ele><time>2026-04-11T13:35:04.612Z</time></trkpt><trkpt lat="46.0119278" lon="11.7107565"><ele>1045.3333333333333</ele><time>2026-04-11T13:35:05.613Z</time></trkpt><trkpt lat="46.0119942" lon="11.7108186"><ele>1041.0</ele><time>2026-04-11T13:35:06.612Z</time></trkpt><trkpt lat="46.012076" lon="11.7108685"><ele>1036.6666666666667</ele><time>2026-04-11T13:35:07.613Z</time></trkpt><trkpt lat="46.0121561" lon="11.7108956"><ele>1032.3333333333335</ele><time>2026-04-11T13:35:08.613Z</time></trkpt><trkpt lat="46.0122339" lon="11.7108983"><ele>1028.0</ele><time>2026-04-11T13:35:09.613Z</time></trkpt><trkpt lat="46.0123092" lon="11.7108953"><ele>1028.0</ele><time>2026-04-11T13:35:10.612Z</time></trkpt><trkpt lat="46.0123933" lon="11.7108946"><ele>1028.0</ele><time>2026-04-11T13:35:11.614Z</time></trkpt><trkpt lat="46.0124733" lon="11.710898"><ele>1028.0</ele><time>2026-04-11T13:35:12.612Z</time></trkpt><trkpt lat="46.0125503" lon="11.7109046"><ele>1028.0</ele><time>2026-04-11T13:35:13.612Z</time></trkpt><trkpt lat="46.0126286" lon="11.710918"><ele>1028.0</ele><time>2026-04-11T13:35:14.612Z</time></trkpt><trkpt lat="46.0127064" lon="11.7109245"><ele>1028.0</ele><time>2026-04-11T13:35:15.612Z</time></trkpt><trkpt lat="46.0127828" lon="11.7109324"><ele>1028.3333333333335</ele><time>2026-04-11T13:35:16.612Z</time></trkpt><trkpt lat="46.0128573" lon="11.7109371"><ele>1028.6666666666667</ele><time>2026-04-11T13:35:17.612Z</time></trkpt><trkpt lat="46.012928" lon="11.7109474"><ele>1029.0</ele><time>2026-04-11T13:35:18.613Z</time></trkpt><trkpt lat="46.0130012" lon="11.7109616"><ele>1029.3333333333333</ele><time>2026-04-11T13:35:19.612Z</time></trkpt><trkpt lat="46.0130776" lon="11.7109729"><ele>1029.6666666666665</ele><time>2026-04-11T13:35:20.614Z</time></trkpt><trkpt lat="46.0131559" lon="11.7109835"><ele>1030.0</ele><time>2026-04-11T13:35:21.612Z</time></trkpt><trkpt lat="46.0132383" lon="11.7109948"><ele>1030.0</ele><time>2026-04-11T13:35:22.614Z</time></trkpt><trkpt lat="46.0133219" lon="11.7109997"><ele>1030.0</ele><time>2026-04-11T13:35:23.612Z</time></trkpt><trkpt lat="46.0134174" lon="11.7109943"><ele>1030.0</ele><time>2026-04-11T13:35:24.614Z</time></trkpt><trkpt lat="46.0135097" lon="11.7109909"><ele>1030.0</ele><time>2026-04-11T13:35:25.614Z</time></trkpt><trkpt lat="46.0135999" lon="11.7109911"><ele>1030.0</ele><time>2026-04-11T13:35:26.612Z</time></trkpt><trkpt lat="46.0136916" lon="11.7109869"><ele>1031.6666666666665</ele><time>2026-04-11T13:35:27.613Z</time></trkpt><trkpt lat="46.0137772" lon="11.7109709"><ele>1033.3333333333333</ele><time>2026-04-11T13:35:28.613Z</time></trkpt><trkpt lat="46.013856" lon="11.7109448"><ele>1035.0</ele><time>2026-04-11T13:35:29.613Z</time></trkpt><trkpt lat="46.0139379" lon="11.7108973"><ele>1036.6666666666667</ele><time>2026-04-11T13:35:30.612Z</time></trkpt><trkpt lat="46.0140123" lon="11.7108506"><ele>1038.3333333333335</ele><time>2026-04-11T13:35:31.612Z</time></trkpt><trkpt lat="46.0140746" lon="11.7108115"><ele>1040.0</ele><time>2026-04-11T13:35:32.613Z</time></trkpt><trkpt lat="46.0141629" lon="11.7108165"><ele>1041.0</ele><time>2026-04-11T13:35:34.612Z</time></trkpt><trkpt lat="46.0142145" lon="11.7108731"><ele>1042.0</ele><time>2026-04-11T13:35:35.614Z</time></trkpt><trkpt lat="46.0142827" lon="11.7109426"><ele>1043.0</ele><time>2026-04-11T13:35:36.612Z</time></trkpt><trkpt lat="46.0143606" lon="11.7110138"><ele>1044.0</ele><time>2026-04-11T13:35:37.613Z</time></trkpt><trkpt lat="46.0144511" lon="11.7110853"><ele>1045.0</ele><time>2026-04-11T13:35:38.614Z</time></trkpt><trkpt lat="46.0145461" lon="11.7111281"><ele>1046.0</ele><time>2026-04-11T13:35:39.612Z</time></trkpt><trkpt lat="46.014642" lon="11.7111642"><ele>1043.0</ele><time>2026-04-11T13:35:40.613Z</time></trkpt><trkpt lat="46.0147344" lon="11.7111951"><ele>1040.0</ele><time>2026-04-11T13:35:41.614Z</time></trkpt><trkpt lat="46.0148146" lon="11.7112208"><ele>1037.0</ele><time>2026-04-11T13:35:42.613Z</time></trkpt><trkpt lat="46.0148812" lon="11.7112547"><ele>1034.0</ele><time>2026-04-11T13:35:43.613Z</time></trkpt><trkpt lat="46.0149532" lon="11.7112879"><ele>1031.0</ele><time>2026-04-11T13:35:44.613Z</time></trkpt><trkpt lat="46.0150183" lon="11.7113382"><ele>1028.0</ele><time>2026-04-11T13:35:45.614Z</time></trkpt><trkpt lat="46.0150857" lon="11.7113828"><ele>1028.0</ele><time>2026-04-11T13:35:46.614Z</time></trkpt><trkpt lat="46.0151465" lon="11.7114255"><ele>1028.0</ele><time>2026-04-11T13:35:47.614Z</time></trkpt><trkpt lat="46.0152124" lon="11.7114683"><ele>1028.0</ele><time>2026-04-11T13:35:48.613Z</time></trkpt><trkpt lat="46.0152729" lon="11.7115059"><ele>1028.0</ele><time>2026-04-11T13:35:49.613Z</time></trkpt><trkpt lat="46.0153331" lon="11.7115509"><ele>1028.0</ele><time>2026-04-11T13:35:50.614Z</time></trkpt><trkpt lat="46.0153904" lon="11.7115907"><ele>1028.0</ele><time>2026-04-11T13:35:51.613Z</time></trkpt><trkpt lat="46.0154521" lon="11.7116387"><ele>1028.0</ele><time>2026-04-11T13:35:52.614Z</time></trkpt><trkpt lat="46.0155179" lon="11.7116822"><ele>1028.0</ele><time>2026-04-11T13:35:53.614Z</time></trkpt><trkpt lat="46.0155834" lon="11.7117207"><ele>1028.0</ele><time>2026-04-11T13:35:54.613Z</time></trkpt><trkpt lat="46.0156684" lon="11.7117679"><ele>1028.0</ele><time>2026-04-11T13:35:55.613Z</time></trkpt><trkpt lat="46.0157494" lon="11.7118282"><ele>1028.0</ele><time>2026-04-11T13:35:56.613Z</time></trkpt><trkpt lat="46.0158309" lon="11.7118874"><ele>1028.0</ele><time>2026-04-11T13:35:57.614Z</time></trkpt><trkpt lat="46.0159197" lon="11.7119236"><ele>1028.0</ele><time>2026-04-11T13:35:59.613Z</time></trkpt><trkpt lat="46.0160165" lon="11.711843"><ele>1031.5</ele><time>2026-04-11T13:36:02.613Z</time></trkpt><trkpt lat="46.0160784" lon="11.7117834"><ele>1035.0</ele><time>2026-04-11T13:36:03.613Z</time></trkpt><trkpt lat="46.0161363" lon="11.7117038"><ele>1038.5</ele><time>2026-04-11T13:36:04.613Z</time></trkpt><trkpt lat="46.0161891" lon="11.7116055"><ele>1042.0</ele><time>2026-04-11T13:36:05.613Z</time></trkpt><trkpt lat="46.0162345" lon="11.711505"><ele>1045.5</ele><time>2026-04-11T13:36:06.614Z</time></trkpt><trkpt lat="46.0162796" lon="11.7114012"><ele>1049.0</ele><time>2026-04-11T13:36:07.615Z</time></trkpt><trkpt lat="46.016325" lon="11.711298"><ele>1049.0</ele><time>2026-04-11T13:36:08.613Z</time></trkpt><trkpt lat="46.0163781" lon="11.7111883"><ele>1049.0</ele><time>2026-04-11T13:36:09.613Z</time></trkpt><trkpt lat="46.0164371" lon="11.7110745"><ele>1049.0</ele><time>2026-04-11T13:36:10.613Z</time></trkpt><trkpt lat="46.0164963" lon="11.7109677"><ele>1049.0</ele><time>2026-04-11T13:36:11.614Z</time></trkpt><trkpt lat="46.0165506" lon="11.7108641"><ele>1049.0</ele><time>2026-04-11T13:36:12.614Z</time></trkpt><trkpt lat="46.0165999" lon="11.7107557"><ele>1051.5</ele><time>2026-04-11T13:36:13.614Z</time></trkpt><trkpt lat="46.0166485" lon="11.7106584"><ele>1054.0</ele><time>2026-04-11T13:36:14.613Z</time></trkpt><trkpt lat="46.0167008" lon="11.7105549"><ele>1056.5</ele><time>2026-04-11T13:36:15.613Z</time></trkpt><trkpt lat="46.0167388" lon="11.7104598"><ele>1059.0</ele><time>2026-04-11T13:36:16.614Z</time></trkpt><trkpt lat="46.0167477" lon="11.7103388"><ele>1061.5</ele><time>2026-04-11T13:36:17.614Z</time></trkpt><trkpt lat="46.0167378" lon="11.7102086"><ele>1064.0</ele><time>2026-04-11T13:36:18.613Z</time></trkpt><trkpt lat="46.016725" lon="11.7100763"><ele>1065.4</ele><time>2026-04-11T13:36:19.614Z</time></trkpt><trkpt lat="46.0167134" lon="11.7099453"><ele>1066.8000000000002</ele><time>2026-04-11T13:36:20.614Z</time></trkpt><trkpt lat="46.0166949" lon="11.7098166"><ele>1068.1999999999998</ele><time>2026-04-11T13:36:21.613Z</time></trkpt><trkpt lat="46.0166734" lon="11.7096784"><ele>1069.6</ele><time>2026-04-11T13:36:22.613Z</time></trkpt><trkpt lat="46.0166552" lon="11.7095081"><ele>1071.0</ele><time>2026-04-11T13:36:23.614Z</time></trkpt><trkpt lat="46.016639" lon="11.7093503"><ele>1076.0</ele><time>2026-04-11T13:36:24.614Z</time></trkpt><trkpt lat="46.0166074" lon="11.7091851"><ele>1081.0</ele><time>2026-04-11T13:36:25.613Z</time></trkpt><trkpt lat="46.0165797" lon="11.7090336"><ele>1086.0</ele><time>2026-04-11T13:36:26.614Z</time></trkpt><trkpt lat="46.0165622" lon="11.7088783"><ele>1091.0</ele><time>2026-04-11T13:36:27.615Z</time></trkpt><trkpt lat="46.0165483" lon="11.7087227"><ele>1096.0</ele><time>2026-04-11T13:36:28.613Z</time></trkpt><trkpt lat="46.0165377" lon="11.7085689"><ele>1096.0</ele><time>2026-04-11T13:36:29.615Z</time></trkpt><trkpt lat="46.016529" lon="11.7084105"><ele>1096.0</ele><time>2026-04-11T13:36:30.614Z</time></trkpt><trkpt lat="46.0165178" lon="11.7082463"><ele>1096.0</ele><time>2026-04-11T13:36:31.613Z</time></trkpt><trkpt lat="46.0165021" lon="11.7080759"><ele>1096.0</ele><time>2026-04-11T13:36:32.613Z</time></trkpt><trkpt lat="46.0164816" lon="11.7079134"><ele>1096.0</ele><time>2026-04-11T13:36:33.615Z</time></trkpt><trkpt lat="46.0164532" lon="11.7077516"><ele>1096.0</ele><time>2026-04-11T13:36:34.615Z</time></trkpt><trkpt lat="46.0164194" lon="11.7075953"><ele>1096.0</ele><time>2026-04-11T13:36:35.615Z</time></trkpt><trkpt lat="46.0163867" lon="11.7074418"><ele>1096.0</ele><time>2026-04-11T13:36:36.613Z</time></trkpt><trkpt lat="46.0163557" lon="11.7072929"><ele>1096.0</ele><time>2026-04-11T13:36:37.614Z</time></trkpt><trkpt lat="46.0163247" lon="11.7071688"><ele>1096.0</ele><time>2026-04-11T13:36:38.615Z</time></trkpt><trkpt lat="46.0163101" lon="11.7070536"><ele>1096.0</ele><time>2026-04-11T13:36:39.615Z</time></trkpt><trkpt lat="46.0163259" lon="11.7069618"><ele>1096.0</ele><time>2026-04-11T13:36:40.613Z</time></trkpt><trkpt lat="46.0163512" lon="11.7068647"><ele>1096.0</ele><time>2026-04-11T13:36:41.615Z</time></trkpt><trkpt lat="46.0163951" lon="11.7067654"><ele>1096.0</ele><time>2026-04-11T13:36:42.613Z</time></trkpt><trkpt lat="46.0164486" lon="11.7066511"><ele>1096.0</ele><time>2026-04-11T13:36:43.613Z</time></trkpt><trkpt lat="46.0164845" lon="11.7065323"><ele>1096.3333333333333</ele><time>2026-04-11T13:36:44.613Z</time></trkpt><trkpt lat="46.0164984" lon="11.706411"><ele>1096.6666666666665</ele><time>2026-04-11T13:36:45.615Z</time></trkpt><trkpt lat="46.0164959" lon="11.7063054"><ele>1097.0</ele><time>2026-04-11T13:36:46.615Z</time></trkpt><trkpt lat="46.0164758" lon="11.7062097"><ele>1097.3333333333333</ele><time>2026-04-11T13:36:47.614Z</time></trkpt><trkpt lat="46.0164111" lon="11.7060751"><ele>1097.6666666666667</ele><time>2026-04-11T13:36:49.614Z</time></trkpt><trkpt lat="46.0163613" lon="11.7059993"><ele>1098.0</ele><time>2026-04-11T13:36:50.615Z</time></trkpt><trkpt lat="46.0163057" lon="11.7059205"><ele>1096.4</ele><time>2026-04-11T13:36:51.615Z</time></trkpt><trkpt lat="46.0162387" lon="11.7058408"><ele>1094.8</ele><time>2026-04-11T13:36:52.615Z</time></trkpt><trkpt lat="46.0161697" lon="11.7057564"><ele>1093.2</ele><time>2026-04-11T13:36:53.614Z</time></trkpt><trkpt lat="46.0161133" lon="11.7056734"><ele>1091.6</ele><time>2026-04-11T13:36:54.614Z</time></trkpt><trkpt lat="46.0160635" lon="11.7055081"><ele>1090.0</ele><time>2026-04-11T13:36:56.615Z</time></trkpt><trkpt lat="46.0160574" lon="11.7053925"><ele>1090.0</ele><time>2026-04-11T13:36:57.615Z</time></trkpt><trkpt lat="46.016049" lon="11.7052728"><ele>1090.0</ele><time>2026-04-11T13:36:58.614Z</time></trkpt><trkpt lat="46.0160319" lon="11.7051735"><ele>1090.0</ele><time>2026-04-11T13:36:59.615Z</time></trkpt><trkpt lat="46.0159946" lon="11.7050878"><ele>1090.0</ele><time>2026-04-11T13:37:00.614Z</time></trkpt><trkpt lat="46.0159358" lon="11.7050036"><ele>1090.0</ele><time>2026-04-11T13:37:01.615Z</time></trkpt><trkpt lat="46.0158681" lon="11.704903"><ele>1090.0</ele><time>2026-04-11T13:37:02.615Z</time></trkpt><trkpt lat="46.0158087" lon="11.7047991"><ele>1089.0</ele><time>2026-04-11T13:37:03.614Z</time></trkpt><trkpt lat="46.0157792" lon="11.7046173"><ele>1088.0</ele><time>2026-04-11T13:37:05.614Z</time></trkpt><trkpt lat="46.0158416" lon="11.7044577"><ele>1087.0</ele><time>2026-04-11T13:37:07.615Z</time></trkpt><trkpt lat="46.0158851" lon="11.7043891"><ele>1086.0</ele><time>2026-04-11T13:37:08.615Z</time></trkpt><trkpt lat="46.0159383" lon="11.7043143"><ele>1085.0</ele><time>2026-04-11T13:37:09.614Z</time></trkpt><trkpt lat="46.0159798" lon="11.7042355"><ele>1085.0</ele><time>2026-04-11T13:37:10.614Z</time></trkpt><trkpt lat="46.016002" lon="11.7041494"><ele>1085.0</ele><time>2026-04-11T13:37:11.614Z</time></trkpt><trkpt lat="46.0160087" lon="11.7039703"><ele>1085.0</ele><time>2026-04-11T13:37:13.615Z</time></trkpt><trkpt lat="46.0159965" lon="11.7038794"><ele>1085.0</ele><time>2026-04-11T13:37:14.615Z</time></trkpt><trkpt lat="46.0159754" lon="11.7037723"><ele>1085.0</ele><time>2026-04-11T13:37:15.614Z</time></trkpt><trkpt lat="46.0159262" lon="11.7036473"><ele>1085.0</ele><time>2026-04-11T13:37:16.615Z</time></trkpt><trkpt lat="46.0158865" lon="11.703543"><ele>1086.2</ele><time>2026-04-11T13:37:17.615Z</time></trkpt><trkpt lat="46.0158693" lon="11.7033943"><ele>1087.4</ele><time>2026-04-11T13:37:19.614Z</time></trkpt><trkpt lat="46.0159343" lon="11.7032408"><ele>1088.6</ele><time>2026-04-11T13:37:21.615Z</time></trkpt><trkpt lat="46.0159951" lon="11.7031425"><ele>1089.8</ele><time>2026-04-11T13:37:22.614Z</time></trkpt><trkpt lat="46.016073" lon="11.7030411"><ele>1091.0</ele><time>2026-04-11T13:37:23.615Z</time></trkpt><trkpt lat="46.016149" lon="11.7029465"><ele>1091.0</ele><time>2026-04-11T13:37:24.615Z</time></trkpt><trkpt lat="46.0161945" lon="11.7028794"><ele>1091.0</ele><time>2026-04-11T13:37:25.614Z</time></trkpt><trkpt lat="46.0162251" lon="11.7027313"><ele>1091.0</ele><time>2026-04-11T13:37:27.614Z</time></trkpt><trkpt lat="46.0161796" lon="11.702588"><ele>1091.0</ele><time>2026-04-11T13:37:29.615Z</time></trkpt><trkpt lat="46.0161385" lon="11.7024983"><ele>1091.0</ele><time>2026-04-11T13:37:30.615Z</time></trkpt><trkpt lat="46.0160954" lon="11.7023994"><ele>1091.0</ele><time>2026-04-11T13:37:31.614Z</time></trkpt><trkpt lat="46.0160594" lon="11.7023092"><ele>1091.6666666666667</ele><time>2026-04-11T13:37:32.614Z</time></trkpt><trkpt lat="46.016038" lon="11.7021993"><ele>1092.3333333333335</ele><time>2026-04-11T13:37:33.614Z</time></trkpt><trkpt lat="46.0160323" lon="11.7020709"><ele>1093.0</ele><time>2026-04-11T13:37:34.616Z</time></trkpt><trkpt lat="46.0160455" lon="11.7019392"><ele>1093.6666666666667</ele><time>2026-04-11T13:37:35.616Z</time></trkpt><trkpt lat="46.0160519" lon="11.7018317"><ele>1094.3333333333333</ele><time>2026-04-11T13:37:36.614Z</time></trkpt><trkpt lat="46.0160625" lon="11.7017391"><ele>1095.0</ele><time>2026-04-11T13:37:37.615Z</time></trkpt><trkpt lat="46.0160354" lon="11.701639"><ele>1095.0</ele><time>2026-04-11T13:37:39.614Z</time></trkpt><trkpt lat="46.0159797" lon="11.7015051"><ele>1095.0</ele><time>2026-04-11T13:37:41.616Z</time></trkpt><trkpt lat="46.0159446" lon="11.7014272"><ele>1095.0</ele><time>2026-04-11T13:37:42.614Z</time></trkpt><trkpt lat="46.0158937" lon="11.7013164"><ele>1095.0</ele><time>2026-04-11T13:37:43.615Z</time></trkpt><trkpt lat="46.015837" lon="11.7011938"><ele>1095.0</ele><time>2026-04-11T13:37:44.615Z</time></trkpt><trkpt lat="46.0157897" lon="11.7010928"><ele>1094.8</ele><time>2026-04-11T13:37:45.615Z</time></trkpt><trkpt lat="46.0157647" lon="11.7009653"><ele>1094.6</ele><time>2026-04-11T13:37:47.616Z</time></trkpt><trkpt lat="46.0158491" lon="11.7009067"><ele>1094.4</ele><time>2026-04-11T13:37:49.616Z</time></trkpt><trkpt lat="46.0159071" lon="11.7008672"><ele>1094.2</ele><time>2026-04-11T13:37:50.615Z</time></trkpt><trkpt lat="46.0160085" lon="11.7007215"><ele>1094.0</ele><time>2026-04-11T13:37:52.615Z</time></trkpt><trkpt lat="46.0160512" lon="11.7006172"><ele>1094.0</ele><time>2026-04-11T13:37:53.616Z</time></trkpt><trkpt lat="46.0160908" lon="11.7005073"><ele>1094.0</ele><time>2026-04-11T13:37:54.616Z</time></trkpt><trkpt lat="46.0161318" lon="11.7003735"><ele>1094.0</ele><time>2026-04-11T13:37:55.616Z</time></trkpt><trkpt lat="46.0161738" lon="11.7002313"><ele>1094.0</ele><time>2026-04-11T13:37:56.615Z</time></trkpt><trkpt lat="46.0162085" lon="11.7000577"><ele>1094.0</ele><time>2026-04-11T13:37:57.615Z</time></trkpt><trkpt lat="46.0162406" lon="11.6998959"><ele>1094.1666666666667</ele><time>2026-04-11T13:37:58.616Z</time></trkpt><trkpt lat="46.016266" lon="11.6997677"><ele>1094.3333333333335</ele><time>2026-04-11T13:37:59.616Z</time></trkpt><trkpt lat="46.0162693" lon="11.6996339"><ele>1094.5</ele><time>2026-04-11T13:38:01.616Z</time></trkpt><trkpt lat="46.0162292" lon="11.6995532"><ele>1094.6666666666667</ele><time>2026-04-11T13:38:03.616Z</time></trkpt><trkpt lat="46.0161587" lon="11.6994615"><ele>1094.8333333333333</ele><time>2026-04-11T13:38:05.616Z</time></trkpt><trkpt lat="46.0160977" lon="11.6994049"><ele>1095.0</ele><time>2026-04-11T13:38:06.615Z</time></trkpt><trkpt lat="46.0160259" lon="11.699361"><ele>1095.0</ele><time>2026-04-11T13:38:07.616Z</time></trkpt><trkpt lat="46.0159478" lon="11.6993368"><ele>1095.0</ele><time>2026-04-11T13:38:08.616Z</time></trkpt><trkpt lat="46.0158648" lon="11.6993233"><ele>1095.0</ele><time>2026-04-11T13:38:09.617Z</time></trkpt><trkpt lat="46.015768" lon="11.6993177"><ele>1095.0</ele><time>2026-04-11T13:38:10.616Z</time></trkpt><trkpt lat="46.0156766" lon="11.6993063"><ele>1095.0</ele><time>2026-04-11T13:38:11.616Z</time></trkpt><trkpt lat="46.0155738" lon="11.6992944"><ele>1102.6</ele><time>2026-04-11T13:38:12.616Z</time></trkpt><trkpt lat="46.015491" lon="11.6992637"><ele>1110.2</ele><time>2026-04-11T13:38:13.615Z</time></trkpt><trkpt lat="46.0154204" lon="11.6992049"><ele>1117.8</ele><time>2026-04-11T13:38:15.615Z</time></trkpt><trkpt lat="46.015503" lon="11.6991656"><ele>1125.4</ele><time>2026-04-11T13:38:19.615Z</time></trkpt><trkpt lat="46.0155763" lon="11.6990644"><ele>1133.0</ele><time>2026-04-11T13:38:21.616Z</time></trkpt><trkpt lat="46.0156776" lon="11.6989372"><ele>1133.0</ele><time>2026-04-11T13:38:23.615Z</time></trkpt><trkpt lat="46.0157066" lon="11.6988451"><ele>1133.0</ele><time>2026-04-11T13:38:24.616Z</time></trkpt><trkpt lat="46.0157559" lon="11.698735"><ele>1133.0</ele><time>2026-04-11T13:38:25.615Z</time></trkpt><trkpt lat="46.0157933" lon="11.6986026"><ele>1133.0</ele><time>2026-04-11T13:38:26.615Z</time></trkpt><trkpt lat="46.0158237" lon="11.6984968"><ele>1133.0</ele><time>2026-04-11T13:38:27.615Z</time></trkpt><trkpt lat="46.0158544" lon="11.6983878"><ele>1133.0</ele><time>2026-04-11T13:38:28.615Z</time></trkpt><trkpt lat="46.0158696" lon="11.698255"><ele>1133.8</ele><time>2026-04-11T13:38:30.616Z</time></trkpt><trkpt lat="46.0158529" lon="11.6981445"><ele>1134.6</ele><time>2026-04-11T13:39:13.617Z</time></trkpt><trkpt lat="46.0157904" lon="11.6979858"><ele>1135.4</ele><time>2026-04-11T13:39:16.616Z</time></trkpt><trkpt lat="46.0157448" lon="11.6979029"><ele>1136.2</ele><time>2026-04-11T13:39:17.616Z</time></trkpt><trkpt lat="46.0156886" lon="11.6978071"><ele>1137.0</ele><time>2026-04-11T13:39:18.617Z</time></trkpt><trkpt lat="46.0156282" lon="11.6977125"><ele>1134.8</ele><time>2026-04-11T13:39:19.617Z</time></trkpt><trkpt lat="46.01555" lon="11.6976077"><ele>1132.6</ele><time>2026-04-11T13:39:20.617Z</time></trkpt><trkpt lat="46.0154684" lon="11.6975075"><ele>1130.3999999999999</ele><time>2026-04-11T13:39:21.616Z</time></trkpt><trkpt lat="46.0154028" lon="11.6974077"><ele>1128.2</ele><time>2026-04-11T13:39:22.617Z</time></trkpt><trkpt lat="46.0153503" lon="11.6972895"><ele>1126.0</ele><time>2026-04-11T13:39:23.616Z</time></trkpt><trkpt lat="46.0152933" lon="11.6971743"><ele>1126.0</ele><time>2026-04-11T13:39:24.616Z</time></trkpt><trkpt lat="46.0152314" lon="11.6970569"><ele>1126.0</ele><time>2026-04-11T13:39:25.617Z</time></trkpt><trkpt lat="46.0151671" lon="11.6969388"><ele>1126.0</ele><time>2026-04-11T13:39:26.616Z</time></trkpt><trkpt lat="46.0151142" lon="11.6968308"><ele>1126.0</ele><time>2026-04-11T13:39:27.618Z</time></trkpt><trkpt lat="46.0150581" lon="11.6967114"><ele>1126.0</ele><time>2026-04-11T13:39:28.616Z</time></trkpt><trkpt lat="46.0150044" lon="11.6965905"><ele>1128.8333333333333</ele><time>2026-04-11T13:39:29.616Z</time></trkpt><trkpt lat="46.0149522" lon="11.696483"><ele>1131.6666666666665</ele><time>2026-04-11T13:39:30.617Z</time></trkpt><trkpt lat="46.0149004" lon="11.6963823"><ele>1134.5</ele><time>2026-04-11T13:39:31.617Z</time></trkpt><trkpt lat="46.0148512" lon="11.6962862"><ele>1137.3333333333333</ele><time>2026-04-11T13:39:32.616Z</time></trkpt><trkpt lat="46.0147805" lon="11.6961584"><ele>1140.1666666666667</ele><time>2026-04-11T13:39:34.617Z</time></trkpt><trkpt lat="46.0147908" lon="11.6960544"><ele>1143.0</ele><time>2026-04-11T13:39:37.617Z</time></trkpt><trkpt lat="46.0148667" lon="11.6960403"><ele>1136.4</ele><time>2026-04-11T13:39:40.616Z</time></trkpt><trkpt lat="46.014993" lon="11.6960268"><ele>1129.8</ele><time>2026-04-11T13:39:42.616Z</time></trkpt><trkpt lat="46.0150599" lon="11.6960173"><ele>1123.2</ele><time>2026-04-11T13:39:43.617Z</time></trkpt><trkpt lat="46.0151353" lon="11.6960069"><ele>1116.6</ele><time>2026-04-11T13:39:44.617Z</time></trkpt><trkpt lat="46.0152295" lon="11.6959784"><ele>1110.0</ele><time>2026-04-11T13:39:45.616Z</time></trkpt><trkpt lat="46.0153386" lon="11.6959421"><ele>1110.0</ele><time>2026-04-11T13:39:46.616Z</time></trkpt><trkpt lat="46.0154503" lon="11.6959064"><ele>1110.0</ele><time>2026-04-11T13:39:47.616Z</time></trkpt><trkpt lat="46.0155382" lon="11.6958727"><ele>1110.0</ele><time>2026-04-11T13:39:48.617Z</time></trkpt><trkpt lat="46.0156229" lon="11.6958102"><ele>1110.0</ele><time>2026-04-11T13:39:50.617Z</time></trkpt><trkpt lat="46.0156544" lon="11.6957017"><ele>1110.0</ele><time>2026-04-11T13:39:52.617Z</time></trkpt><trkpt lat="46.0156599" lon="11.695588"><ele>1110.0</ele><time>2026-04-11T13:39:53.617Z</time></trkpt><trkpt lat="46.0156557" lon="11.6954722"><ele>1110.0</ele><time>2026-04-11T13:39:54.616Z</time></trkpt><trkpt lat="46.0156477" lon="11.6953565"><ele>1110.0</ele><time>2026-04-11T13:39:55.617Z</time></trkpt><trkpt lat="46.0156341" lon="11.695236"><ele>1110.0</ele><time>2026-04-11T13:39:56.618Z</time></trkpt><trkpt lat="46.0156056" lon="11.6951197"><ele>1110.0</ele><time>2026-04-11T13:39:57.617Z</time></trkpt><trkpt lat="46.0155766" lon="11.6950031"><ele>1110.0</ele><time>2026-04-11T13:39:58.617Z</time></trkpt><trkpt lat="46.0155388" lon="11.6948873"><ele>1110.5</ele><time>2026-04-11T13:39:59.618Z</time></trkpt><trkpt lat="46.0154942" lon="11.6947571"><ele>1111.0</ele><time>2026-04-11T13:40:00.617Z</time></trkpt><trkpt lat="46.0154546" lon="11.6946292"><ele>1111.5</ele><time>2026-04-11T13:40:01.616Z</time></trkpt><trkpt lat="46.0154152" lon="11.694501"><ele>1112.0</ele><time>2026-04-11T13:40:02.618Z</time></trkpt><trkpt lat="46.0153844" lon="11.6944112"><ele>1112.5</ele><time>2026-04-11T13:40:03.617Z</time></trkpt><trkpt lat="46.0153442" lon="11.6943199"><ele>1113.0</ele><time>2026-04-11T13:40:04.617Z</time></trkpt><trkpt lat="46.0153066" lon="11.694244"><ele>1113.0</ele><time>2026-04-11T13:40:05.617Z</time></trkpt><trkpt lat="46.0152461" lon="11.6941538"><ele>1113.0</ele><time>2026-04-11T13:40:06.618Z</time></trkpt><trkpt lat="46.0151722" lon="11.6940732"><ele>1113.0</ele><time>2026-04-11T13:40:07.617Z</time></trkpt><trkpt lat="46.0150892" lon="11.6939936"><ele>1113.0</ele><time>2026-04-11T13:40:08.617Z</time></trkpt><trkpt lat="46.0150009" lon="11.6939113"><ele>1113.0</ele><time>2026-04-11T13:40:09.618Z</time></trkpt><trkpt lat="46.0149193" lon="11.6938482"><ele>1118.8333333333333</ele><time>2026-04-11T13:40:10.618Z</time></trkpt><trkpt lat="46.0148415" lon="11.6938087"><ele>1124.6666666666667</ele><time>2026-04-11T13:40:11.618Z</time></trkpt><trkpt lat="46.0147626" lon="11.6937882"><ele>1130.5</ele><time>2026-04-11T13:40:12.618Z</time></trkpt><trkpt lat="46.0146876" lon="11.6937716"><ele>1136.3333333333335</ele><time>2026-04-11T13:40:13.617Z</time></trkpt><trkpt lat="46.0146015" lon="11.6937329"><ele>1142.1666666666667</ele><time>2026-04-11T13:40:15.618Z</time></trkpt><trkpt lat="46.014687" lon="11.693638"><ele>1148.0</ele><time>2026-04-11T13:40:18.618Z</time></trkpt><trkpt lat="46.0148201" lon="11.6935509"><ele>1148.5</ele><time>2026-04-11T13:40:20.618Z</time></trkpt><trkpt lat="46.0149159" lon="11.6934932"><ele>1149.0</ele><time>2026-04-11T13:40:21.617Z</time></trkpt><trkpt lat="46.0150021" lon="11.6934344"><ele>1149.5</ele><time>2026-04-11T13:40:22.617Z</time></trkpt><trkpt lat="46.0150735" lon="11.6933667"><ele>1150.0</ele><time>2026-04-11T13:40:23.619Z</time></trkpt><trkpt lat="46.0151299" lon="11.6932895"><ele>1150.5</ele><time>2026-04-11T13:40:24.617Z</time></trkpt><trkpt lat="46.0151645" lon="11.6932038"><ele>1151.0</ele><time>2026-04-11T13:40:25.618Z</time></trkpt><trkpt lat="46.0151857" lon="11.6931139"><ele>1148.6666666666667</ele><time>2026-04-11T13:40:26.618Z</time></trkpt><trkpt lat="46.0151994" lon="11.6930134"><ele>1146.3333333333335</ele><time>2026-04-11T13:40:27.618Z</time></trkpt><trkpt lat="46.0152139" lon="11.6928949"><ele>1144.0</ele><time>2026-04-11T13:40:28.617Z</time></trkpt><trkpt lat="46.0152345" lon="11.6927778"><ele>1141.6666666666667</ele><time>2026-04-11T13:40:29.618Z</time></trkpt><trkpt lat="46.0152539" lon="11.6926821"><ele>1139.3333333333333</ele><time>2026-04-11T13:40:30.617Z</time></trkpt><trkpt lat="46.0153073" lon="11.6925504"><ele>1137.0</ele><time>2026-04-11T13:40:32.618Z</time></trkpt><trkpt lat="46.0153905" lon="11.6925304"><ele>1137.0</ele><time>2026-04-11T13:40:34.617Z</time></trkpt><trkpt lat="46.0155143" lon="11.6925949"><ele>1137.0</ele><time>2026-04-11T13:40:36.617Z</time></trkpt><trkpt lat="46.0155872" lon="11.6926515"><ele>1137.0</ele><time>2026-04-11T13:40:37.618Z</time></trkpt><trkpt lat="46.0156793" lon="11.6927088"><ele>1137.0</ele><time>2026-04-11T13:40:38.617Z</time></trkpt><trkpt lat="46.0157682" lon="11.6927534"><ele>1137.0</ele><time>2026-04-11T13:40:39.618Z</time></trkpt><trkpt lat="46.0158634" lon="11.6927961"><ele>1133.6666666666667</ele><time>2026-04-11T13:40:40.618Z</time></trkpt><trkpt lat="46.0159583" lon="11.6928234"><ele>1130.3333333333333</ele><time>2026-04-11T13:40:41.617Z</time></trkpt><trkpt lat="46.0160375" lon="11.6928218"><ele>1127.0</ele><time>2026-04-11T13:40:42.618Z</time></trkpt><trkpt lat="46.0161119" lon="11.6928156"><ele>1123.6666666666665</ele><time>2026-04-11T13:40:43.618Z</time></trkpt><trkpt lat="46.0161754" lon="11.692765"><ele>1120.3333333333333</ele><time>2026-04-11T13:40:44.618Z</time></trkpt><trkpt lat="46.016224" lon="11.6927042"><ele>1117.0</ele><time>2026-04-11T13:40:45.617Z</time></trkpt><trkpt lat="46.016275" lon="11.6926074"><ele>1117.0</ele><time>2026-04-11T13:40:46.617Z</time></trkpt><trkpt lat="46.0163291" lon="11.6925009"><ele>1117.0</ele><time>2026-04-11T13:40:47.618Z</time></trkpt><trkpt lat="46.0163767" lon="11.6924097"><ele>1117.0</ele><time>2026-04-11T13:40:48.617Z</time></trkpt><trkpt lat="46.0164111" lon="11.692321"><ele>1117.0</ele><time>2026-04-11T13:40:49.618Z</time></trkpt><trkpt lat="46.0164408" lon="11.6921603"><ele>1117.0</ele><time>2026-04-11T13:40:51.617Z</time></trkpt><trkpt lat="46.0164285" lon="11.6920072"><ele>1120.0</ele><time>2026-04-11T13:40:53.619Z</time></trkpt><trkpt lat="46.0164152" lon="11.6919168"><ele>1123.0</ele><time>2026-04-11T13:40:54.618Z</time></trkpt><trkpt lat="46.0163977" lon="11.6918133"><ele>1126.0</ele><time>2026-04-11T13:40:55.619Z</time></trkpt><trkpt lat="46.0163766" lon="11.6917097"><ele>1129.0</ele><time>2026-04-11T13:40:56.618Z</time></trkpt><trkpt lat="46.0163449" lon="11.6915962"><ele>1132.0</ele><time>2026-04-11T13:40:57.618Z</time></trkpt><trkpt lat="46.0162979" lon="11.6914876"><ele>1135.0</ele><time>2026-04-11T13:40:58.618Z</time></trkpt><trkpt lat="46.0162419" lon="11.6913918"><ele>1135.0</ele><time>2026-04-11T13:40:59.618Z</time></trkpt><trkpt lat="46.0161722" lon="11.6912967"><ele>1135.0</ele><time>2026-04-11T13:41:00.618Z</time></trkpt><trkpt lat="46.0161073" lon="11.6911937"><ele>1135.0</ele><time>2026-04-11T13:41:01.618Z</time></trkpt><trkpt lat="46.0160358" lon="11.6911012"><ele>1135.0</ele><time>2026-04-11T13:41:02.618Z</time></trkpt><trkpt lat="46.0159585" lon="11.6910121"><ele>1135.0</ele><time>2026-04-11T13:41:03.619Z</time></trkpt><trkpt lat="46.0158637" lon="11.6909207"><ele>1141.0</ele><time>2026-04-11T13:41:04.618Z</time></trkpt><trkpt lat="46.0157631" lon="11.6908331"><ele>1147.0</ele><time>2026-04-11T13:41:05.617Z</time></trkpt><trkpt lat="46.0156673" lon="11.6907464"><ele>1153.0</ele><time>2026-04-11T13:41:06.619Z</time></trkpt><trkpt lat="46.0156065" lon="11.6906754"><ele>1159.0</ele><time>2026-04-11T13:41:07.618Z</time></trkpt><trkpt lat="46.0155511" lon="11.6905716"><ele>1165.0</ele><time>2026-04-11T13:41:09.619Z</time></trkpt><trkpt lat="46.0155933" lon="11.6904962"><ele>1165.0</ele><time>2026-04-11T13:41:13.619Z</time></trkpt><trkpt lat="46.0156916" lon="11.6904751"><ele>1165.0</ele><time>2026-04-11T13:41:15.617Z</time></trkpt><trkpt lat="46.0157619" lon="11.6904442"><ele>1165.0</ele><time>2026-04-11T13:41:16.619Z</time></trkpt><trkpt lat="46.0158399" lon="11.6904181"><ele>1165.0</ele><time>2026-04-11T13:41:17.618Z</time></trkpt><trkpt lat="46.0159282" lon="11.6904037"><ele>1165.0</ele><time>2026-04-11T13:41:18.618Z</time></trkpt><trkpt lat="46.0160114" lon="11.6904002"><ele>1165.0</ele><time>2026-04-11T13:41:19.619Z</time></trkpt><trkpt lat="46.0160975" lon="11.6903965"><ele>1158.2</ele><time>2026-04-11T13:41:20.619Z</time></trkpt><trkpt lat="46.0161907" lon="11.6903994"><ele>1151.4</ele><time>2026-04-11T13:41:21.618Z</time></trkpt><trkpt lat="46.0162919" lon="11.6903893"><ele>1144.6</ele><time>2026-04-11T13:41:22.618Z</time></trkpt><trkpt lat="46.016406" lon="11.6903735"><ele>1137.8</ele><time>2026-04-11T13:41:23.619Z</time></trkpt><trkpt lat="46.0165046" lon="11.6903495"><ele>1131.0</ele><time>2026-04-11T13:41:24.619Z</time></trkpt><trkpt lat="46.016594" lon="11.6903169"><ele>1132.0</ele><time>2026-04-11T13:41:25.619Z</time></trkpt><trkpt lat="46.0166656" lon="11.6902889"><ele>1133.0</ele><time>2026-04-11T13:41:26.619Z</time></trkpt><trkpt lat="46.0167242" lon="11.6902221"><ele>1134.0</ele><time>2026-04-11T13:41:27.618Z</time></trkpt><trkpt lat="46.0167491" lon="11.6901196"><ele>1135.0</ele><time>2026-04-11T13:41:28.618Z</time></trkpt><trkpt lat="46.0167783" lon="11.6900169"><ele>1136.0</ele><time>2026-04-11T13:41:29.618Z</time></trkpt><trkpt lat="46.0168047" lon="11.689909"><ele>1137.0</ele><time>2026-04-11T13:41:30.618Z</time></trkpt><trkpt lat="46.0168301" lon="11.6898045"><ele>1137.0</ele><time>2026-04-11T13:41:31.618Z</time></trkpt><trkpt lat="46.0168271" lon="11.6896678"><ele>1137.0</ele><time>2026-04-11T13:41:33.618Z</time></trkpt><trkpt lat="46.0167668" lon="11.6895389"><ele>1137.0</ele><time>2026-04-11T13:41:35.618Z</time></trkpt><trkpt lat="46.0167193" lon="11.689451"><ele>1137.0</ele><time>2026-04-11T13:41:36.618Z</time></trkpt><trkpt lat="46.0166659" lon="11.689339"><ele>1137.0</ele><time>2026-04-11T13:41:37.618Z</time></trkpt><trkpt lat="46.0166092" lon="11.6892254"><ele>1143.8</ele><time>2026-04-11T13:41:38.619Z</time></trkpt><trkpt lat="46.0165586" lon="11.6891137"><ele>1150.6</ele><time>2026-04-11T13:41:39.618Z</time></trkpt><trkpt lat="46.0165161" lon="11.6889921"><ele>1157.3999999999999</ele><time>2026-04-11T13:41:40.619Z</time></trkpt><trkpt lat="46.0164735" lon="11.6888705"><ele>1164.2</ele><time>2026-04-11T13:41:41.619Z</time></trkpt><trkpt lat="46.0164222" lon="11.6887567"><ele>1171.0</ele><time>2026-04-11T13:41:42.619Z</time></trkpt><trkpt lat="46.016368" lon="11.6886507"><ele>1171.6666666666665</ele><time>2026-04-11T13:41:43.619Z</time></trkpt><trkpt lat="46.0163218" lon="11.6885582"><ele>1172.3333333333333</ele><time>2026-04-11T13:41:44.619Z</time></trkpt><trkpt lat="46.0162952" lon="11.6884559"><ele>1173.0</ele><time>2026-04-11T13:41:46.619Z</time></trkpt><trkpt lat="46.0163846" lon="11.6884054"><ele>1173.6666666666667</ele><time>2026-04-11T13:42:31.619Z</time></trkpt><trkpt lat="46.0165045" lon="11.6884109"><ele>1174.3333333333335</ele><time>2026-04-11T13:42:33.62Z</time></trkpt><trkpt lat="46.0165734" lon="11.6884167"><ele>1175.0</ele><time>2026-04-11T13:42:34.62Z</time></trkpt><trkpt lat="46.0166425" lon="11.6884277"><ele>1170.8333333333335</ele><time>2026-04-11T13:42:35.62Z</time></trkpt><trkpt lat="46.0167169" lon="11.6884387"><ele>1166.6666666666667</ele><time>2026-04-11T13:42:36.619Z</time></trkpt><trkpt lat="46.0167979" lon="11.6884519"><ele>1162.5</ele><time>2026-04-11T13:42:37.62Z</time></trkpt><trkpt lat="46.0168677" lon="11.6884591"><ele>1158.3333333333333</ele><time>2026-04-11T13:42:38.619Z</time></trkpt><trkpt lat="46.0169321" lon="11.6884598"><ele>1154.1666666666665</ele><time>2026-04-11T13:42:39.619Z</time></trkpt><trkpt lat="46.0170546" lon="11.6884334"><ele>1150.0</ele><time>2026-04-11T13:42:41.62Z</time></trkpt><trkpt lat="46.0171196" lon="11.6884057"><ele>1150.0</ele><time>2026-04-11T13:42:42.62Z</time></trkpt><trkpt lat="46.0171944" lon="11.6883772"><ele>1150.0</ele><time>2026-04-11T13:42:43.619Z</time></trkpt><trkpt lat="46.0172814" lon="11.6883219"><ele>1150.0</ele><time>2026-04-11T13:42:44.619Z</time></trkpt><trkpt lat="46.0173634" lon="11.6882576"><ele>1150.0</ele><time>2026-04-11T13:42:45.62Z</time></trkpt><trkpt lat="46.0174607" lon="11.6881782"><ele>1150.0</ele><time>2026-04-11T13:42:46.62Z</time></trkpt><trkpt lat="46.0175476" lon="11.6881164"><ele>1148.0</ele><time>2026-04-11T13:42:47.62Z</time></trkpt><trkpt lat="46.0176138" lon="11.6880595"><ele>1146.0</ele><time>2026-04-11T13:42:48.62Z</time></trkpt><trkpt lat="46.0176703" lon="11.6880035"><ele>1144.0</ele><time>2026-04-11T13:42:49.619Z</time></trkpt><trkpt lat="46.0177639" lon="11.687871"><ele>1142.0</ele><time>2026-04-11T13:42:51.62Z</time></trkpt><trkpt lat="46.0178275" lon="11.6877366"><ele>1140.0</ele><time>2026-04-11T13:42:53.62Z</time></trkpt><trkpt lat="46.0178569" lon="11.6876527"><ele>1143.6666666666667</ele><time>2026-04-11T13:42:54.62Z</time></trkpt><trkpt lat="46.0178852" lon="11.6875418"><ele>1147.3333333333333</ele><time>2026-04-11T13:42:55.621Z</time></trkpt><trkpt lat="46.0179121" lon="11.6874248"><ele>1151.0</ele><time>2026-04-11T13:42:56.62Z</time></trkpt><trkpt lat="46.0179382" lon="11.6873165"><ele>1154.6666666666665</ele><time>2026-04-11T13:42:57.619Z</time></trkpt><trkpt lat="46.0179548" lon="11.6872156"><ele>1158.3333333333333</ele><time>2026-04-11T13:42:58.62Z</time></trkpt><trkpt lat="46.0179568" lon="11.687056"><ele>1162.0</ele><time>2026-04-11T13:43:00.62Z</time></trkpt><trkpt lat="46.0179128" lon="11.6869149"><ele>1162.3333333333333</ele><time>2026-04-11T13:43:02.62Z</time></trkpt><trkpt lat="46.0178813" lon="11.6868202"><ele>1162.6666666666665</ele><time>2026-04-11T13:43:03.621Z</time></trkpt><trkpt lat="46.0178607" lon="11.6867295"><ele>1163.0</ele><time>2026-04-11T13:43:04.62Z</time></trkpt><trkpt lat="46.0178553" lon="11.6866138"><ele>1163.3333333333333</ele><time>2026-04-11T13:43:06.619Z</time></trkpt><trkpt lat="46.0178485" lon="11.686462"><ele>1163.6666666666667</ele><time>2026-04-11T13:43:09.62Z</time></trkpt><trkpt lat="46.0178021" lon="11.6863681"><ele>1164.0</ele><time>2026-04-11T13:43:11.619Z</time></trkpt><trkpt lat="46.0177352" lon="11.6863361"><ele>1164.0</ele><time>2026-04-11T13:43:13.619Z</time></trkpt><trkpt lat="46.0176539" lon="11.6863392"><ele>1164.0</ele><time>2026-04-11T13:43:16.62Z</time></trkpt><trkpt lat="46.0175895" lon="11.6863192"><ele>1164.0</ele><time>2026-04-11T13:43:18.62Z</time></trkpt><trkpt lat="46.0175001" lon="11.6862987"><ele>1164.0</ele><time>2026-04-11T13:43:20.619Z</time></trkpt><trkpt lat="46.0174192" lon="11.6862747"><ele>1164.0</ele><time>2026-04-11T13:43:23.62Z</time></trkpt><trkpt lat="46.0173264" lon="11.6862335"><ele>1164.0</ele><time>2026-04-11T13:43:25.62Z</time></trkpt><trkpt lat="46.0172116" lon="11.6861753"><ele>1167.5</ele><time>2026-04-11T13:43:27.619Z</time></trkpt><trkpt lat="46.0171515" lon="11.6861414"><ele>1171.0</ele><time>2026-04-11T13:43:28.62Z</time></trkpt><trkpt lat="46.0170489" lon="11.6860715"><ele>1174.5</ele><time>2026-04-11T13:43:30.62Z</time></trkpt><trkpt lat="46.0169946" lon="11.6860217"><ele>1178.0</ele><time>2026-04-11T13:43:31.62Z</time></trkpt><trkpt lat="46.0169417" lon="11.6859514"><ele>1181.5</ele><time>2026-04-11T13:43:32.62Z</time></trkpt><trkpt lat="46.0169041" lon="11.6858691"><ele>1185.0</ele><time>2026-04-11T13:43:33.621Z</time></trkpt><trkpt lat="46.0168492" lon="11.6857192"><ele>1185.0</ele><time>2026-04-11T13:43:35.62Z</time></trkpt><trkpt lat="46.016808" lon="11.685579"><ele>1185.0</ele><time>2026-04-11T13:43:37.62Z</time></trkpt><trkpt lat="46.0168171" lon="11.6854692"><ele>1185.0</ele><time>2026-04-11T13:43:40.62Z</time></trkpt><trkpt lat="46.0167693" lon="11.6855441"><ele>1185.0</ele><time>2026-04-11T13:43:46.621Z</time></trkpt><trkpt lat="46.0168205" lon="11.6856633"><ele>1185.0</ele><time>2026-04-11T13:43:48.62Z</time></trkpt><trkpt lat="46.0168583" lon="11.6857409"><ele>1185.0</ele><time>2026-04-11T13:43:49.62Z</time></trkpt><trkpt lat="46.0168945" lon="11.6858273"><ele>1185.0</ele><time>2026-04-11T13:43:50.621Z</time></trkpt><trkpt lat="46.016932" lon="11.6859307"><ele>1185.0</ele><time>2026-04-11T13:43:51.62Z</time></trkpt><trkpt lat="46.0169759" lon="11.6860385"><ele>1185.0</ele><time>2026-04-11T13:43:52.621Z</time></trkpt><trkpt lat="46.0170343" lon="11.6861336"><ele>1185.0</ele><time>2026-04-11T13:43:53.62Z</time></trkpt><trkpt lat="46.0170984" lon="11.6862008"><ele>1185.0</ele><time>2026-04-11T13:43:54.62Z</time></trkpt><trkpt lat="46.0171712" lon="11.6862433"><ele>1185.0</ele><time>2026-04-11T13:43:55.621Z</time></trkpt><trkpt lat="46.0172592" lon="11.6862847"><ele>1186.2</ele><time>2026-04-11T13:43:56.621Z</time></trkpt><trkpt lat="46.0173666" lon="11.6863308"><ele>1187.4</ele><time>2026-04-11T13:43:57.62Z</time></trkpt><trkpt lat="46.0174928" lon="11.6863549"><ele>1188.6</ele><time>2026-04-11T13:43:58.621Z</time></trkpt><trkpt lat="46.0176151" lon="11.686382"><ele>1189.8</ele><time>2026-04-11T13:43:59.621Z</time></trkpt><trkpt lat="46.0176986" lon="11.6864004"><ele>1191.0</ele><time>2026-04-11T13:44:00.621Z</time></trkpt><trkpt lat="46.0177811" lon="11.6864291"><ele>1186.5</ele><time>2026-04-11T13:44:02.62Z</time></trkpt><trkpt lat="46.0178224" lon="11.6865234"><ele>1182.0</ele><time>2026-04-11T13:44:04.621Z</time></trkpt><trkpt lat="46.0178358" lon="11.6866402"><ele>1177.5</ele><time>2026-04-11T13:44:06.62Z</time></trkpt><trkpt lat="46.0178468" lon="11.6867304"><ele>1173.0</ele><time>2026-04-11T13:44:10.62Z</time></trkpt><trkpt lat="46.0178452" lon="11.6868621"><ele>1168.5</ele><time>2026-04-11T13:44:15.62Z</time></trkpt><trkpt lat="46.0178705" lon="11.6869484"><ele>1164.0</ele><time>2026-04-11T13:44:17.62Z</time></trkpt><trkpt lat="46.0178915" lon="11.6868393"><ele>1164.0</ele><time>2026-04-11T13:44:26.621Z</time></trkpt><trkpt lat="46.0178309" lon="11.6867702"><ele>1164.0</ele><time>2026-04-11T13:44:29.621Z</time></trkpt><trkpt lat="46.0177726" lon="11.6867227"><ele>1164.0</ele><time>2026-04-11T13:44:31.621Z</time></trkpt><trkpt lat="46.0177128" lon="11.6866796"><ele>1164.0</ele><time>2026-04-11T13:44:35.622Z</time></trkpt><trkpt lat="46.0176366" lon="11.6867303"><ele>1164.0</ele><time>2026-04-11T13:45:05.621Z</time></trkpt><trkpt lat="46.0177044" lon="11.6867161"><ele>1164.0</ele><time>2026-04-11T13:45:14.622Z</time></trkpt><trkpt lat="46.0177949" lon="11.6867585"><ele>1164.0</ele><time>2026-04-11T13:45:17.621Z</time></trkpt><trkpt lat="46.0178697" lon="11.6868415"><ele>1164.0</ele><time>2026-04-11T13:45:19.623Z</time></trkpt><trkpt lat="46.0179088" lon="11.6869903"><ele>1164.0</ele><time>2026-04-11T13:45:21.621Z</time></trkpt><trkpt lat="46.0179359" lon="11.6871724"><ele>1164.0</ele><time>2026-04-11T13:45:23.622Z</time></trkpt><trkpt lat="46.0179282" lon="11.6873228"><ele>1164.0</ele><time>2026-04-11T13:45:25.622Z</time></trkpt><trkpt lat="46.0178786" lon="11.6874772"><ele>1163.7142857142858</ele><time>2026-04-11T13:45:27.621Z</time></trkpt><trkpt lat="46.0178485" lon="11.6875672"><ele>1163.4285714285713</ele><time>2026-04-11T13:45:28.623Z</time></trkpt><trkpt lat="46.0178227" lon="11.6876521"><ele>1163.142857142857</ele><time>2026-04-11T13:45:29.622Z</time></trkpt><trkpt lat="46.0177937" lon="11.6877328"><ele>1162.857142857143</ele><time>2026-04-11T13:45:30.622Z</time></trkpt><trkpt lat="46.0177559" lon="11.6878144"><ele>1162.5714285714284</ele><time>2026-04-11T13:45:31.623Z</time></trkpt><trkpt lat="46.0177105" lon="11.6878996"><ele>1162.2857142857142</ele><time>2026-04-11T13:45:32.621Z</time></trkpt><trkpt lat="46.017659" lon="11.687985"><ele>1162.0</ele><time>2026-04-11T13:45:33.622Z</time></trkpt><trkpt lat="46.0176065" lon="11.6880604"><ele>1159.6</ele><time>2026-04-11T13:45:34.621Z</time></trkpt><trkpt lat="46.0175471" lon="11.688115"><ele>1157.2</ele><time>2026-04-11T13:45:35.622Z</time></trkpt><trkpt lat="46.017487" lon="11.6881639"><ele>1154.8</ele><time>2026-04-11T13:45:36.621Z</time></trkpt><trkpt lat="46.017352" lon="11.6882551"><ele>1152.4</ele><time>2026-04-11T13:45:38.622Z</time></trkpt><trkpt lat="46.0172738" lon="11.6883044"><ele>1150.0</ele><time>2026-04-11T13:45:39.622Z</time></trkpt><trkpt lat="46.0171958" lon="11.6883574"><ele>1150.0</ele><time>2026-04-11T13:45:40.623Z</time></trkpt><trkpt lat="46.0171085" lon="11.6883953"><ele>1150.0</ele><time>2026-04-11T13:45:41.621Z</time></trkpt><trkpt lat="46.0170266" lon="11.6884242"><ele>1150.0</ele><time>2026-04-11T13:45:42.623Z</time></trkpt><trkpt lat="46.0169546" lon="11.6884436"><ele>1150.0</ele><time>2026-04-11T13:45:43.623Z</time></trkpt><trkpt lat="46.0168837" lon="11.6884551"><ele>1150.0</ele><time>2026-04-11T13:45:44.623Z</time></trkpt><trkpt lat="46.0168066" lon="11.6884503"><ele>1150.0</ele><time>2026-04-11T13:45:45.622Z</time></trkpt><trkpt lat="46.0167224" lon="11.6884296"><ele>1155.0</ele><time>2026-04-11T13:45:46.623Z</time></trkpt><trkpt lat="46.0166135" lon="11.6883956"><ele>1160.0</ele><time>2026-04-11T13:45:47.623Z</time></trkpt><trkpt lat="46.0164858" lon="11.6883676"><ele>1165.0</ele><time>2026-04-11T13:45:48.622Z</time></trkpt><trkpt lat="46.016381" lon="11.6883575"><ele>1170.0</ele><time>2026-04-11T13:45:49.622Z</time></trkpt><trkpt lat="46.0162986" lon="11.6883709"><ele>1175.0</ele><time>2026-04-11T13:45:50.623Z</time></trkpt><trkpt lat="46.016231" lon="11.6884342"><ele>1175.0</ele><time>2026-04-11T13:45:52.623Z</time></trkpt><trkpt lat="46.0162697" lon="11.688582"><ele>1175.0</ele><time>2026-04-11T13:45:54.622Z</time></trkpt><trkpt lat="46.016328" lon="11.6887022"><ele>1175.0</ele><time>2026-04-11T13:45:55.622Z</time></trkpt><trkpt lat="46.0163975" lon="11.6888493"><ele>1175.0</ele><time>2026-04-11T13:45:56.623Z</time></trkpt><trkpt lat="46.0164368" lon="11.6889886"><ele>1175.0</ele><time>2026-04-11T13:45:57.622Z</time></trkpt><trkpt lat="46.016491" lon="11.6891312"><ele>1174.2</ele><time>2026-04-11T13:45:58.622Z</time></trkpt><trkpt lat="46.0165612" lon="11.689302"><ele>1173.4</ele><time>2026-04-11T13:45:59.623Z</time></trkpt><trkpt lat="46.0166252" lon="11.6894758"><ele>1172.6</ele><time>2026-04-11T13:46:00.622Z</time></trkpt><trkpt lat="46.0166853" lon="11.6895759"><ele>1171.8</ele><time>2026-04-11T13:46:01.624Z</time></trkpt><trkpt lat="46.0167395" lon="11.6896571"><ele>1171.0</ele><time>2026-04-11T13:46:02.622Z</time></trkpt><trkpt lat="46.0167868" lon="11.689741"><ele>1168.0</ele><time>2026-04-11T13:46:03.623Z</time></trkpt><trkpt lat="46.0168" lon="11.689839"><ele>1165.0</ele><time>2026-04-11T13:46:04.622Z</time></trkpt><trkpt lat="46.016782" lon="11.6899551"><ele>1162.0</ele><time>2026-04-11T13:46:05.623Z</time></trkpt><trkpt lat="46.0167288" lon="11.6900955"><ele>1159.0</ele><time>2026-04-11T13:46:06.623Z</time></trkpt><trkpt lat="46.0166889" lon="11.6901807"><ele>1156.0</ele><time>2026-04-11T13:46:07.622Z</time></trkpt><trkpt lat="46.0166431" lon="11.6902528"><ele>1153.0</ele><time>2026-04-11T13:46:08.623Z</time></trkpt><trkpt lat="46.0165241" lon="11.6903126"><ele>1147.5</ele><time>2026-04-11T13:46:10.622Z</time></trkpt><trkpt lat="46.01643" lon="11.6903395"><ele>1142.0</ele><time>2026-04-11T13:46:11.623Z</time></trkpt><trkpt lat="46.0162946" lon="11.690353"><ele>1136.5</ele><time>2026-04-11T13:46:12.622Z</time></trkpt><trkpt lat="46.0161577" lon="11.690362"><ele>1131.0</ele><time>2026-04-11T13:46:13.623Z</time></trkpt><trkpt lat="46.0160205" lon="11.6903734"><ele>1131.0</ele><time>2026-04-11T13:46:14.622Z</time></trkpt><trkpt lat="46.0158994" lon="11.6904"><ele>1131.0</ele><time>2026-04-11T13:46:15.622Z</time></trkpt><trkpt lat="46.0157709" lon="11.6904356"><ele>1131.0</ele><time>2026-04-11T13:46:16.623Z</time></trkpt><trkpt lat="46.0156493" lon="11.6904685"><ele>1131.0</ele><time>2026-04-11T13:46:17.622Z</time></trkpt><trkpt lat="46.0155722" lon="11.6904973"><ele>1137.8</ele><time>2026-04-11T13:46:18.623Z</time></trkpt><trkpt lat="46.0154884" lon="11.6905823"><ele>1144.6</ele><time>2026-04-11T13:46:20.623Z</time></trkpt><trkpt lat="46.0154656" lon="11.6907307"><ele>1151.4</ele><time>2026-04-11T13:46:22.623Z</time></trkpt><trkpt lat="46.0154981" lon="11.6908281"><ele>1158.2</ele><time>2026-04-11T13:46:23.623Z</time></trkpt><trkpt lat="46.0155617" lon="11.6909438"><ele>1165.0</ele><time>2026-04-11T13:46:24.623Z</time></trkpt><trkpt lat="46.0156395" lon="11.6910741"><ele>1162.0</ele><time>2026-04-11T13:46:25.623Z</time></trkpt><trkpt lat="46.0157282" lon="11.691203"><ele>1159.0</ele><time>2026-04-11T13:46:26.623Z</time></trkpt><trkpt lat="46.015841" lon="11.6913596"><ele>1156.0</ele><time>2026-04-11T13:46:27.623Z</time></trkpt><trkpt lat="46.0159412" lon="11.6914779"><ele>1153.0</ele><time>2026-04-11T13:46:28.624Z</time></trkpt><trkpt lat="46.0160345" lon="11.6915792"><ele>1149.4</ele><time>2026-04-11T13:46:29.624Z</time></trkpt><trkpt lat="46.016119" lon="11.6916736"><ele>1145.8</ele><time>2026-04-11T13:46:30.624Z</time></trkpt><trkpt lat="46.0161876" lon="11.6917756"><ele>1142.2</ele><time>2026-04-11T13:46:31.623Z</time></trkpt><trkpt lat="46.0162583" lon="11.6918839"><ele>1138.6</ele><time>2026-04-11T13:46:32.624Z</time></trkpt><trkpt lat="46.0163299" lon="11.6920027"><ele>1135.0</ele><time>2026-04-11T13:46:33.624Z</time></trkpt><trkpt lat="46.0163767" lon="11.6921125"><ele>1131.4</ele><time>2026-04-11T13:46:34.623Z</time></trkpt><trkpt lat="46.0164011" lon="11.6922103"><ele>1127.8</ele><time>2026-04-11T13:46:35.624Z</time></trkpt><trkpt lat="46.0163971" lon="11.6923137"><ele>1124.2</ele><time>2026-04-11T13:46:36.623Z</time></trkpt><trkpt lat="46.0163602" lon="11.6924375"><ele>1120.6</ele><time>2026-04-11T13:46:37.624Z</time></trkpt><trkpt lat="46.0162986" lon="11.6925647"><ele>1117.0</ele><time>2026-04-11T13:46:38.623Z</time></trkpt><trkpt lat="46.0162215" lon="11.6926833"><ele>1120.3333333333333</ele><time>2026-04-11T13:46:39.623Z</time></trkpt><trkpt lat="46.0161642" lon="11.6927592"><ele>1123.6666666666665</ele><time>2026-04-11T13:46:40.623Z</time></trkpt><trkpt lat="46.0160691" lon="11.6927953"><ele>1127.0</ele><time>2026-04-11T13:46:42.623Z</time></trkpt><trkpt lat="46.0159957" lon="11.6927886"><ele>1130.3333333333333</ele><time>2026-04-11T13:46:43.623Z</time></trkpt><trkpt lat="46.0159207" lon="11.6927609"><ele>1133.6666666666667</ele><time>2026-04-11T13:46:44.624Z</time></trkpt><trkpt lat="46.0158125" lon="11.6927188"><ele>1137.0</ele><time>2026-04-11T13:46:45.624Z</time></trkpt><trkpt lat="46.0156862" lon="11.6926688"><ele>1137.0</ele><time>2026-04-11T13:46:46.623Z</time></trkpt><trkpt lat="46.0155639" lon="11.6926286"><ele>1137.0</ele><time>2026-04-11T13:46:47.624Z</time></trkpt><trkpt lat="46.015451" lon="11.6925964"><ele>1137.0</ele><time>2026-04-11T13:46:48.624Z</time></trkpt><trkpt lat="46.0153566" lon="11.6925849"><ele>1137.0</ele><time>2026-04-11T13:46:49.623Z</time></trkpt><trkpt lat="46.0152555" lon="11.6925852"><ele>1137.0</ele><time>2026-04-11T13:46:51.623Z</time></trkpt><trkpt lat="46.0151933" lon="11.6927613"><ele>1133.3333333333333</ele><time>2026-04-11T13:46:53.623Z</time></trkpt><trkpt lat="46.0151653" lon="11.6928665"><ele>1129.6666666666667</ele><time>2026-04-11T13:46:54.624Z</time></trkpt><trkpt lat="46.015149" lon="11.6929607"><ele>1126.0</ele><time>2026-04-11T13:46:55.624Z</time></trkpt><trkpt lat="46.0151307" lon="11.6930692"><ele>1122.3333333333335</ele><time>2026-04-11T13:46:56.623Z</time></trkpt><trkpt lat="46.0151102" lon="11.6931897"><ele>1118.6666666666667</ele><time>2026-04-11T13:46:57.623Z</time></trkpt><trkpt lat="46.0150887" lon="11.6932865"><ele>1115.0</ele><time>2026-04-11T13:46:58.623Z</time></trkpt><trkpt lat="46.015008" lon="11.6934199"><ele>1121.6</ele><time>2026-04-11T13:47:00.624Z</time></trkpt><trkpt lat="46.0149353" lon="11.6934783"><ele>1128.2</ele><time>2026-04-11T13:47:01.623Z</time></trkpt><trkpt lat="46.0148465" lon="11.693533"><ele>1134.8</ele><time>2026-04-11T13:47:02.623Z</time></trkpt><trkpt lat="46.014731" lon="11.6935851"><ele>1141.4</ele><time>2026-04-11T13:47:03.623Z</time></trkpt><trkpt lat="46.0146439" lon="11.6936324"><ele>1148.0</ele><time>2026-04-11T13:47:04.624Z</time></trkpt><trkpt lat="46.0145848" lon="11.6936714"><ele>1148.0</ele><time>2026-04-11T13:47:05.623Z</time></trkpt><trkpt lat="46.0145493" lon="11.6937544"><ele>1148.0</ele><time>2026-04-11T13:47:07.623Z</time></trkpt><trkpt lat="46.014611" lon="11.6938349"><ele>1148.0</ele><time>2026-04-11T13:47:09.625Z</time></trkpt><trkpt lat="46.0147358" lon="11.6939148"><ele>1148.0</ele><time>2026-04-11T13:47:11.623Z</time></trkpt><trkpt lat="46.0148049" lon="11.6939621"><ele>1148.0</ele><time>2026-04-11T13:47:12.624Z</time></trkpt><trkpt lat="46.0149072" lon="11.6940106"><ele>1141.0</ele><time>2026-04-11T13:47:13.624Z</time></trkpt><trkpt lat="46.0150189" lon="11.694083"><ele>1134.0</ele><time>2026-04-11T13:47:14.624Z</time></trkpt><trkpt lat="46.0151224" lon="11.6941727"><ele>1127.0</ele><time>2026-04-11T13:47:15.623Z</time></trkpt><trkpt lat="46.0152056" lon="11.6942368"><ele>1120.0</ele><time>2026-04-11T13:47:16.623Z</time></trkpt><trkpt lat="46.0152912" lon="11.6943115"><ele>1113.0</ele><time>2026-04-11T13:47:17.623Z</time></trkpt><trkpt lat="46.0153478" lon="11.6943805"><ele>1114.6</ele><time>2026-04-11T13:47:18.624Z</time></trkpt><trkpt lat="46.015386" lon="11.6944649"><ele>1116.1999999999998</ele><time>2026-04-11T13:47:19.624Z</time></trkpt><trkpt lat="46.0154226" lon="11.6945735"><ele>1117.8</ele><time>2026-04-11T13:47:20.623Z</time></trkpt><trkpt lat="46.015463" lon="11.6947007"><ele>1119.3999999999999</ele><time>2026-04-11T13:47:21.623Z</time></trkpt><trkpt lat="46.0154983" lon="11.6948485"><ele>1121.0</ele><time>2026-04-11T13:47:22.624Z</time></trkpt><trkpt lat="46.0155281" lon="11.6949807"><ele>1121.0</ele><time>2026-04-11T13:47:23.625Z</time></trkpt><trkpt lat="46.0155581" lon="11.6951074"><ele>1121.0</ele><time>2026-04-11T13:47:24.624Z</time></trkpt><trkpt lat="46.0156002" lon="11.6952362"><ele>1121.0</ele><time>2026-04-11T13:47:25.624Z</time></trkpt><trkpt lat="46.0156334" lon="11.6953586"><ele>1121.0</ele><time>2026-04-11T13:47:26.623Z</time></trkpt><trkpt lat="46.0156589" lon="11.6954766"><ele>1121.0</ele><time>2026-04-11T13:47:27.623Z</time></trkpt><trkpt lat="46.0156737" lon="11.695592"><ele>1119.1666666666667</ele><time>2026-04-11T13:47:28.625Z</time></trkpt><trkpt lat="46.0156744" lon="11.6956851"><ele>1117.3333333333335</ele><time>2026-04-11T13:47:29.624Z</time></trkpt><trkpt lat="46.0156488" lon="11.695774"><ele>1115.5</ele><time>2026-04-11T13:47:31.625Z</time></trkpt><trkpt lat="46.0155609" lon="11.695858"><ele>1113.6666666666667</ele><time>2026-04-11T13:47:33.625Z</time></trkpt><trkpt lat="46.0154894" lon="11.6958702"><ele>1111.8333333333333</ele><time>2026-04-11T13:47:34.623Z</time></trkpt><trkpt lat="46.015402" lon="11.6959"><ele>1110.0</ele><time>2026-04-11T13:47:35.625Z</time></trkpt><trkpt lat="46.0153124" lon="11.6959242"><ele>1110.0</ele><time>2026-04-11T13:47:36.625Z</time></trkpt><trkpt lat="46.0152333" lon="11.695938"><ele>1110.0</ele><time>2026-04-11T13:47:37.624Z</time></trkpt><trkpt lat="46.0151439" lon="11.695961"><ele>1110.0</ele><time>2026-04-11T13:47:38.624Z</time></trkpt><trkpt lat="46.0150557" lon="11.6959817"><ele>1110.0</ele><time>2026-04-11T13:47:39.625Z</time></trkpt><trkpt lat="46.0149748" lon="11.6960083"><ele>1110.0</ele><time>2026-04-11T13:47:40.623Z</time></trkpt><trkpt lat="46.014908" lon="11.6960328"><ele>1110.0</ele><time>2026-04-11T13:47:41.624Z</time></trkpt><trkpt lat="46.0147854" lon="11.6960458"><ele>1118.0</ele><time>2026-04-11T13:47:43.625Z</time></trkpt><trkpt lat="46.0147053" lon="11.6961357"><ele>1126.0</ele><time>2026-04-11T13:47:45.625Z</time></trkpt><trkpt lat="46.0147092" lon="11.6962881"><ele>1134.0</ele><time>2026-04-11T13:47:47.626Z</time></trkpt><trkpt lat="46.0147364" lon="11.6963749"><ele>1142.0</ele><time>2026-04-11T13:47:48.623Z</time></trkpt><trkpt lat="46.014802" lon="11.6964826"><ele>1150.0</ele><time>2026-04-11T13:47:49.625Z</time></trkpt><trkpt lat="46.0148715" lon="11.6965937"><ele>1150.0</ele><time>2026-04-11T13:47:50.625Z</time></trkpt><trkpt lat="46.0149504" lon="11.696702"><ele>1150.0</ele><time>2026-04-11T13:47:51.624Z</time></trkpt><trkpt lat="46.0150215" lon="11.6968093"><ele>1150.0</ele><time>2026-04-11T13:47:52.625Z</time></trkpt><trkpt lat="46.0150961" lon="11.6969009"><ele>1150.0</ele><time>2026-04-11T13:47:53.625Z</time></trkpt><trkpt lat="46.015151" lon="11.6969733"><ele>1150.0</ele><time>2026-04-11T13:47:54.625Z</time></trkpt><trkpt lat="46.0152177" lon="11.6970971"><ele>1145.2</ele><time>2026-04-11T13:47:55.625Z</time></trkpt><trkpt lat="46.0152769" lon="11.6972063"><ele>1140.4</ele><time>2026-04-11T13:47:56.624Z</time></trkpt><trkpt lat="46.0153388" lon="11.6973175"><ele>1135.6</ele><time>2026-04-11T13:47:57.624Z</time></trkpt><trkpt lat="46.0153968" lon="11.6974249"><ele>1130.8</ele><time>2026-04-11T13:47:58.624Z</time></trkpt><trkpt lat="46.0154506" lon="11.6975327"><ele>1126.0</ele><time>2026-04-11T13:47:59.624Z</time></trkpt><trkpt lat="46.0155083" lon="11.6976032"><ele>1126.0</ele><time>2026-04-11T13:48:00.625Z</time></trkpt><trkpt lat="46.0155786" lon="11.6976826"><ele>1126.0</ele><time>2026-04-11T13:48:01.625Z</time></trkpt><trkpt lat="46.0156491" lon="11.6977731"><ele>1126.0</ele><time>2026-04-11T13:48:02.624Z</time></trkpt><trkpt lat="46.0157156" lon="11.697858"><ele>1126.0</ele><time>2026-04-11T13:48:03.625Z</time></trkpt><trkpt lat="46.0157682" lon="11.6979519"><ele>1126.0</ele><time>2026-04-11T13:48:04.624Z</time></trkpt><trkpt lat="46.0158227" lon="11.6980652"><ele>1127.3999999999999</ele><time>2026-04-11T13:48:05.625Z</time></trkpt><trkpt lat="46.0158632" lon="11.6981477"><ele>1128.8</ele><time>2026-04-11T13:48:06.625Z</time></trkpt><trkpt lat="46.0159014" lon="11.6982858"><ele>1130.1999999999998</ele><time>2026-04-11T13:48:08.624Z</time></trkpt><trkpt lat="46.0158657" lon="11.6984492"><ele>1131.6</ele><time>2026-04-11T13:48:10.625Z</time></trkpt><trkpt lat="46.0158317" lon="11.6985383"><ele>1133.0</ele><time>2026-04-11T13:48:11.625Z</time></trkpt><trkpt lat="46.0157726" lon="11.6986611"><ele>1133.0</ele><time>2026-04-11T13:48:12.625Z</time></trkpt><trkpt lat="46.0156952" lon="11.6988033"><ele>1133.0</ele><time>2026-04-11T13:48:13.624Z</time></trkpt><trkpt lat="46.0156174" lon="11.6989646"><ele>1133.0</ele><time>2026-04-11T13:48:14.625Z</time></trkpt><trkpt lat="46.0155584" lon="11.6990979"><ele>1133.0</ele><time>2026-04-11T13:48:15.625Z</time></trkpt><trkpt lat="46.0154963" lon="11.6991932"><ele>1133.0</ele><time>2026-04-11T13:48:16.624Z</time></trkpt><trkpt lat="46.0154798" lon="11.6992891"><ele>1133.0</ele><time>2026-04-11T13:48:20.624Z</time></trkpt><trkpt lat="46.0155619" lon="11.6993214"><ele>1133.0</ele><time>2026-04-11T13:48:23.624Z</time></trkpt><trkpt lat="46.0156518" lon="11.6993409"><ele>1133.0</ele><time>2026-04-11T13:48:45.626Z</time></trkpt><trkpt lat="46.0157856" lon="11.6993606"><ele>1133.0</ele><time>2026-04-11T13:48:47.624Z</time></trkpt><trkpt lat="46.0158741" lon="11.6993787"><ele>1128.0</ele><time>2026-04-11T13:48:48.624Z</time></trkpt><trkpt lat="46.0159541" lon="11.6994039"><ele>1123.0</ele><time>2026-04-11T13:48:49.625Z</time></trkpt><trkpt lat="46.0160304" lon="11.6994412"><ele>1118.0</ele><time>2026-04-11T13:48:50.626Z</time></trkpt><trkpt lat="46.0161061" lon="11.6994807"><ele>1113.0</ele><time>2026-04-11T13:48:51.625Z</time></trkpt><trkpt lat="46.016166" lon="11.6995396"><ele>1108.0</ele><time>2026-04-11T13:48:52.625Z</time></trkpt><trkpt lat="46.016221" lon="11.6995996"><ele>1103.0</ele><time>2026-04-11T13:48:53.624Z</time></trkpt><trkpt lat="46.0162821" lon="11.6997086"><ele>1103.0</ele><time>2026-04-11T13:48:55.624Z</time></trkpt><trkpt lat="46.0162543" lon="11.6998405"><ele>1103.0</ele><time>2026-04-11T13:48:57.626Z</time></trkpt><trkpt lat="46.0162235" lon="11.6999343"><ele>1103.0</ele><time>2026-04-11T13:48:58.625Z</time></trkpt><trkpt lat="46.0161883" lon="11.700059"><ele>1103.0</ele><time>2026-04-11T13:48:59.625Z</time></trkpt><trkpt lat="46.0161517" lon="11.7001924"><ele>1103.0</ele><time>2026-04-11T13:49:00.625Z</time></trkpt><trkpt lat="46.0161103" lon="11.7003317"><ele>1101.2</ele><time>2026-04-11T13:49:01.626Z</time></trkpt><trkpt lat="46.0160704" lon="11.7004618"><ele>1099.4</ele><time>2026-04-11T13:49:02.625Z</time></trkpt><trkpt lat="46.0160202" lon="11.7005766"><ele>1097.6000000000001</ele><time>2026-04-11T13:49:03.626Z</time></trkpt><trkpt lat="46.015959" lon="11.7006958"><ele>1095.8</ele><time>2026-04-11T13:49:04.626Z</time></trkpt><trkpt lat="46.0158988" lon="11.7007968"><ele>1094.0</ele><time>2026-04-11T13:49:05.625Z</time></trkpt><trkpt lat="46.0158411" lon="11.7008851"><ele>1094.2</ele><time>2026-04-11T13:49:06.625Z</time></trkpt><trkpt lat="46.0157738" lon="11.7009695"><ele>1094.4</ele><time>2026-04-11T13:49:07.626Z</time></trkpt><trkpt lat="46.01571" lon="11.7010602"><ele>1094.6</ele><time>2026-04-11T13:49:08.626Z</time></trkpt><trkpt lat="46.0157184" lon="11.7012176"><ele>1094.8</ele><time>2026-04-11T13:49:10.626Z</time></trkpt><trkpt lat="46.0157784" lon="11.701334"><ele>1095.0</ele><time>2026-04-11T13:49:11.626Z</time></trkpt><trkpt lat="46.0158477" lon="11.7014545"><ele>1095.0</ele><time>2026-04-11T13:49:12.625Z</time></trkpt><trkpt lat="46.0159335" lon="11.7015956"><ele>1095.0</ele><time>2026-04-11T13:49:13.626Z</time></trkpt><trkpt lat="46.0159901" lon="11.7016786"><ele>1095.0</ele><time>2026-04-11T13:49:14.625Z</time></trkpt><trkpt lat="46.016051" lon="11.7018252"><ele>1095.0</ele><time>2026-04-11T13:49:16.625Z</time></trkpt><trkpt lat="46.0160557" lon="11.7019291"><ele>1095.0</ele><time>2026-04-11T13:49:17.627Z</time></trkpt><trkpt lat="46.0160478" lon="11.7020622"><ele>1095.2</ele><time>2026-04-11T13:49:18.626Z</time></trkpt><trkpt lat="46.0160289" lon="11.702211"><ele>1095.4</ele><time>2026-04-11T13:49:19.626Z</time></trkpt><trkpt lat="46.0160309" lon="11.702348"><ele>1095.6</ele><time>2026-04-11T13:49:20.626Z</time></trkpt><trkpt lat="46.0160742" lon="11.7024943"><ele>1095.8</ele><time>2026-04-11T13:49:21.625Z</time></trkpt><trkpt lat="46.0161331" lon="11.7026319"><ele>1096.0</ele><time>2026-04-11T13:49:22.626Z</time></trkpt><trkpt lat="46.0161669" lon="11.7027339"><ele>1095.0</ele><time>2026-04-11T13:49:23.625Z</time></trkpt><trkpt lat="46.0161949" lon="11.7028798"><ele>1094.0</ele><time>2026-04-11T13:49:25.625Z</time></trkpt><trkpt lat="46.0161132" lon="11.7029991"><ele>1093.0</ele><time>2026-04-11T13:49:27.626Z</time></trkpt><trkpt lat="46.0160517" lon="11.7030759"><ele>1092.0</ele><time>2026-04-11T13:49:28.627Z</time></trkpt><trkpt lat="46.0159883" lon="11.7031584"><ele>1091.0</ele><time>2026-04-11T13:49:29.625Z</time></trkpt><trkpt lat="46.0159201" lon="11.7032543"><ele>1091.0</ele><time>2026-04-11T13:49:30.626Z</time></trkpt><trkpt lat="46.0158645" lon="11.7033497"><ele>1091.0</ele><time>2026-04-11T13:49:31.626Z</time></trkpt><trkpt lat="46.0158356" lon="11.7034452"><ele>1091.0</ele><time>2026-04-11T13:49:32.625Z</time></trkpt><trkpt lat="46.015835" lon="11.7035458"><ele>1091.0</ele><time>2026-04-11T13:49:33.626Z</time></trkpt><trkpt lat="46.0158487" lon="11.7036559"><ele>1091.0</ele><time>2026-04-11T13:49:34.625Z</time></trkpt><trkpt lat="46.0158895" lon="11.7037724"><ele>1091.0</ele><time>2026-04-11T13:49:35.626Z</time></trkpt><trkpt lat="46.0159331" lon="11.7038656"><ele>1090.0</ele><time>2026-04-11T13:49:36.626Z</time></trkpt><trkpt lat="46.0159654" lon="11.7039622"><ele>1089.0</ele><time>2026-04-11T13:49:37.626Z</time></trkpt><trkpt lat="46.01598" lon="11.7040736"><ele>1088.0</ele><time>2026-04-11T13:49:38.626Z</time></trkpt><trkpt lat="46.0159659" lon="11.7041676"><ele>1087.0</ele><time>2026-04-11T13:49:39.626Z</time></trkpt><trkpt lat="46.0159233" lon="11.704324"><ele>1086.0</ele><time>2026-04-11T13:49:41.626Z</time></trkpt><trkpt lat="46.01587" lon="11.7044053"><ele>1085.0</ele><time>2026-04-11T13:49:42.626Z</time></trkpt><trkpt lat="46.0158129" lon="11.7044969"><ele>1084.8333333333335</ele><time>2026-04-11T13:49:43.626Z</time></trkpt><trkpt lat="46.0157749" lon="11.7045831"><ele>1084.6666666666667</ele><time>2026-04-11T13:49:44.625Z</time></trkpt><trkpt lat="46.0157612" lon="11.7046841"><ele>1084.5</ele><time>2026-04-11T13:49:45.626Z</time></trkpt><trkpt lat="46.015781" lon="11.7048026"><ele>1084.3333333333333</ele><time>2026-04-11T13:49:46.626Z</time></trkpt><trkpt lat="46.0158254" lon="11.7049397"><ele>1084.1666666666665</ele><time>2026-04-11T13:49:47.626Z</time></trkpt><trkpt lat="46.0158919" lon="11.7050687"><ele>1084.0</ele><time>2026-04-11T13:49:48.626Z</time></trkpt><trkpt lat="46.0159616" lon="11.7051693"><ele>1085.0</ele><time>2026-04-11T13:49:49.627Z</time></trkpt><trkpt lat="46.0160032" lon="11.7052618"><ele>1086.0</ele><time>2026-04-11T13:49:50.626Z</time></trkpt><trkpt lat="46.0160441" lon="11.705367"><ele>1087.0</ele><time>2026-04-11T13:49:51.625Z</time></trkpt><trkpt lat="46.0160653" lon="11.7054992"><ele>1088.0</ele><time>2026-04-11T13:49:52.626Z</time></trkpt><trkpt lat="46.0160655" lon="11.7056433"><ele>1089.0</ele><time>2026-04-11T13:49:53.627Z</time></trkpt><trkpt lat="46.0160851" lon="11.7057393"><ele>1090.0</ele><time>2026-04-11T13:49:54.627Z</time></trkpt><trkpt lat="46.0161348" lon="11.7058263"><ele>1090.0</ele><time>2026-04-11T13:49:55.627Z</time></trkpt><trkpt lat="46.0162123" lon="11.7059173"><ele>1090.0</ele><time>2026-04-11T13:49:56.625Z</time></trkpt><trkpt lat="46.0163118" lon="11.7060403"><ele>1090.0</ele><time>2026-04-11T13:49:57.627Z</time></trkpt><trkpt lat="46.0163972" lon="11.7061526"><ele>1090.0</ele><time>2026-04-11T13:49:58.626Z</time></trkpt><trkpt lat="46.0164614" lon="11.7062479"><ele>1090.0</ele><time>2026-04-11T13:49:59.627Z</time></trkpt><trkpt lat="46.0164918" lon="11.7063413"><ele>1091.5</ele><time>2026-04-11T13:50:00.626Z</time></trkpt><trkpt lat="46.0165141" lon="11.7065132"><ele>1093.0</ele><time>2026-04-11T13:50:02.627Z</time></trkpt><trkpt lat="46.0164606" lon="11.7067285"><ele>1094.5</ele><time>2026-04-11T13:50:04.626Z</time></trkpt><trkpt lat="46.0164194" lon="11.7068338"><ele>1096.0</ele><time>2026-04-11T13:50:05.626Z</time></trkpt><trkpt lat="46.0163629" lon="11.7069638"><ele>1096.0</ele><time>2026-04-11T13:50:06.626Z</time></trkpt><trkpt lat="46.0163248" lon="11.7070949"><ele>1096.0</ele><time>2026-04-11T13:50:07.626Z</time></trkpt><trkpt lat="46.0162968" lon="11.7072226"><ele>1096.0</ele><time>2026-04-11T13:50:08.627Z</time></trkpt><trkpt lat="46.0163025" lon="11.7073538"><ele>1096.0</ele><time>2026-04-11T13:50:09.627Z</time></trkpt><trkpt lat="46.0163364" lon="11.707498"><ele>1096.0</ele><time>2026-04-11T13:50:10.627Z</time></trkpt><trkpt lat="46.0163756" lon="11.7076492"><ele>1096.0</ele><time>2026-04-11T13:50:11.627Z</time></trkpt><trkpt lat="46.0164106" lon="11.7077934"><ele>1096.0</ele><time>2026-04-11T13:50:12.626Z</time></trkpt><trkpt lat="46.0164418" lon="11.7079402"><ele>1096.0</ele><time>2026-04-11T13:50:13.627Z</time></trkpt><trkpt lat="46.0164699" lon="11.7080815"><ele>1096.0</ele><time>2026-04-11T13:50:14.627Z</time></trkpt><trkpt lat="46.0164985" lon="11.7082238"><ele>1096.0</ele><time>2026-04-11T13:50:15.626Z</time></trkpt><trkpt lat="46.0165158" lon="11.7083727"><ele>1096.0</ele><time>2026-04-11T13:50:16.626Z</time></trkpt><trkpt lat="46.0165275" lon="11.7085517"><ele>1096.0</ele><time>2026-04-11T13:50:17.627Z</time></trkpt><trkpt lat="46.0165335" lon="11.7087317"><ele>1096.0</ele><time>2026-04-11T13:50:18.626Z</time></trkpt><trkpt lat="46.0165402" lon="11.7088999"><ele>1096.0</ele><time>2026-04-11T13:50:19.627Z</time></trkpt><trkpt lat="46.0165543" lon="11.7090717"><ele>1096.3333333333333</ele><time>2026-04-11T13:50:20.627Z</time></trkpt><trkpt lat="46.0165806" lon="11.7092793"><ele>1096.6666666666667</ele><time>2026-04-11T13:50:21.626Z</time></trkpt><trkpt lat="46.0166145" lon="11.7095095"><ele>1097.0</ele><time>2026-04-11T13:50:22.627Z</time></trkpt><trkpt lat="46.0166375" lon="11.7097273"><ele>1090.5</ele><time>2026-04-11T13:50:23.626Z</time></trkpt><trkpt lat="46.0166598" lon="11.7099221"><ele>1084.0</ele><time>2026-04-11T13:50:24.627Z</time></trkpt><trkpt lat="46.0166802" lon="11.7101081"><ele>1077.5</ele><time>2026-04-11T13:50:25.627Z</time></trkpt><trkpt lat="46.0166967" lon="11.7102547"><ele>1071.0</ele><time>2026-04-11T13:50:26.626Z</time></trkpt><trkpt lat="46.016708" lon="11.7103816"><ele>1071.0</ele><time>2026-04-11T13:50:27.627Z</time></trkpt><trkpt lat="46.0167073" lon="11.7104732"><ele>1071.0</ele><time>2026-04-11T13:50:28.627Z</time></trkpt><trkpt lat="46.0166885" lon="11.7106053"><ele>1071.0</ele><time>2026-04-11T13:50:30.627Z</time></trkpt><trkpt lat="46.0165964" lon="11.7107728"><ele>1071.0</ele><time>2026-04-11T13:50:32.627Z</time></trkpt><trkpt lat="46.0165196" lon="11.7108821"><ele>1071.0</ele><time>2026-04-11T13:50:33.627Z</time></trkpt><trkpt lat="46.0164483" lon="11.7109974"><ele>1066.6</ele><time>2026-04-11T13:50:34.627Z</time></trkpt><trkpt lat="46.0163834" lon="11.7111094"><ele>1062.1999999999998</ele><time>2026-04-11T13:50:35.626Z</time></trkpt><trkpt lat="46.0163207" lon="11.7112263"><ele>1057.8000000000002</ele><time>2026-04-11T13:50:36.626Z</time></trkpt><trkpt lat="46.0162564" lon="11.7113452"><ele>1053.4</ele><time>2026-04-11T13:50:37.628Z</time></trkpt><trkpt lat="46.0161976" lon="11.7114607"><ele>1049.0</ele><time>2026-04-11T13:50:38.628Z</time></trkpt><trkpt lat="46.0161435" lon="11.7115776"><ele>1049.0</ele><time>2026-04-11T13:50:39.626Z</time></trkpt><trkpt lat="46.016092" lon="11.7116775"><ele>1049.0</ele><time>2026-04-11T13:50:40.627Z</time></trkpt><trkpt lat="46.0160425" lon="11.7117609"><ele>1049.0</ele><time>2026-04-11T13:50:41.628Z</time></trkpt><trkpt lat="46.0159559" lon="11.7118472"><ele>1049.0</ele><time>2026-04-11T13:50:43.626Z</time></trkpt><trkpt lat="46.0158819" lon="11.7118555"><ele>1049.0</ele><time>2026-04-11T13:50:45.627Z</time></trkpt><trkpt lat="46.015779" lon="11.7118164"><ele>1049.0</ele><time>2026-04-11T13:50:47.626Z</time></trkpt><trkpt lat="46.0156828" lon="11.7117626"><ele>1044.8</ele><time>2026-04-11T13:50:48.627Z</time></trkpt><trkpt lat="46.0155678" lon="11.7116948"><ele>1040.6000000000001</ele><time>2026-04-11T13:50:49.627Z</time></trkpt><trkpt lat="46.0154585" lon="11.7116277"><ele>1036.4</ele><time>2026-04-11T13:50:50.627Z</time></trkpt><trkpt lat="46.0153658" lon="11.7115642"><ele>1032.2</ele><time>2026-04-11T13:50:51.626Z</time></trkpt><trkpt lat="46.0152756" lon="11.7115077"><ele>1028.0</ele><time>2026-04-11T13:50:52.626Z</time></trkpt><trkpt lat="46.0151859" lon="11.7114349"><ele>1028.0</ele><time>2026-04-11T13:50:53.628Z</time></trkpt><trkpt lat="46.0150872" lon="11.7113657"><ele>1028.0</ele><time>2026-04-11T13:50:54.628Z</time></trkpt><trkpt lat="46.0149972" lon="11.7113023"><ele>1028.0</ele><time>2026-04-11T13:50:55.628Z</time></trkpt><trkpt lat="46.0149154" lon="11.7112424"><ele>1028.0</ele><time>2026-04-11T13:50:56.627Z</time></trkpt><trkpt lat="46.014835" lon="11.7111822"><ele>1028.0</ele><time>2026-04-11T13:50:57.627Z</time></trkpt><trkpt lat="46.0147556" lon="11.7111334"><ele>1031.0</ele><time>2026-04-11T13:50:58.627Z</time></trkpt><trkpt lat="46.0146699" lon="11.7110839"><ele>1034.0</ele><time>2026-04-11T13:50:59.627Z</time></trkpt><trkpt lat="46.0145935" lon="11.7110482"><ele>1037.0</ele><time>2026-04-11T13:51:00.627Z</time></trkpt><trkpt lat="46.0145283" lon="11.7110216"><ele>1040.0</ele><time>2026-04-11T13:51:01.626Z</time></trkpt><trkpt lat="46.0144638" lon="11.710987"><ele>1043.0</ele><time>2026-04-11T13:51:02.628Z</time></trkpt><trkpt lat="46.014388" lon="11.7109428"><ele>1046.0</ele><time>2026-04-11T13:51:03.628Z</time></trkpt><trkpt lat="46.0143181" lon="11.7108903"><ele>1046.0</ele><time>2026-04-11T13:51:04.628Z</time></trkpt><trkpt lat="46.0142529" lon="11.7108377"><ele>1046.0</ele><time>2026-04-11T13:51:05.628Z</time></trkpt><trkpt lat="46.0141872" lon="11.7107858"><ele>1046.0</ele><time>2026-04-11T13:51:06.627Z</time></trkpt><trkpt lat="46.0141185" lon="11.7107385"><ele>1046.0</ele><time>2026-04-11T13:51:07.627Z</time></trkpt><trkpt lat="46.0140465" lon="11.7107261"><ele>1046.0</ele><time>2026-04-11T13:51:08.627Z</time></trkpt><trkpt lat="46.0139697" lon="11.7107466"><ele>1046.0</ele><time>2026-04-11T13:51:09.627Z</time></trkpt><trkpt lat="46.0138914" lon="11.710774"><ele>1045.0</ele><time>2026-04-11T13:51:10.627Z</time></trkpt><trkpt lat="46.0138047" lon="11.7108122"><ele>1044.0</ele><time>2026-04-11T13:51:11.628Z</time></trkpt><trkpt lat="46.0137221" lon="11.710835"><ele>1043.0</ele><time>2026-04-11T13:51:12.627Z</time></trkpt><trkpt lat="46.0136404" lon="11.7108525"><ele>1042.0</ele><time>2026-04-11T13:51:13.627Z</time></trkpt><trkpt lat="46.0135481" lon="11.7108683"><ele>1041.0</ele><time>2026-04-11T13:51:14.627Z</time></trkpt><trkpt lat="46.0134509" lon="11.7108781"><ele>1040.0</ele><time>2026-04-11T13:51:15.627Z</time></trkpt><trkpt lat="46.0133529" lon="11.7108973"><ele>1038.0</ele><time>2026-04-11T13:51:16.627Z</time></trkpt><trkpt lat="46.0132548" lon="11.710903"><ele>1036.0</ele><time>2026-04-11T13:51:17.628Z</time></trkpt><trkpt lat="46.0131504" lon="11.710912"><ele>1034.0</ele><time>2026-04-11T13:51:18.627Z</time></trkpt><trkpt lat="46.0130438" lon="11.710895"><ele>1032.0</ele><time>2026-04-11T13:51:19.627Z</time></trkpt><trkpt lat="46.0129321" lon="11.7108879"><ele>1030.0</ele><time>2026-04-11T13:51:20.628Z</time></trkpt><trkpt lat="46.0128211" lon="11.7108747"><ele>1030.0</ele><time>2026-04-11T13:51:21.627Z</time></trkpt><trkpt lat="46.0127127" lon="11.710859"><ele>1030.0</ele><time>2026-04-11T13:51:22.628Z</time></trkpt><trkpt lat="46.0125982" lon="11.7108444"><ele>1030.0</ele><time>2026-04-11T13:51:23.627Z</time></trkpt><trkpt lat="46.0124819" lon="11.7108258"><ele>1030.0</ele><time>2026-04-11T13:51:24.627Z</time></trkpt><trkpt lat="46.0123665" lon="11.710811"><ele>1029.6</ele><time>2026-04-11T13:51:25.627Z</time></trkpt><trkpt lat="46.0122606" lon="11.7107993"><ele>1029.2</ele><time>2026-04-11T13:51:26.627Z</time></trkpt><trkpt lat="46.0121812" lon="11.7107984"><ele>1028.8</ele><time>2026-04-11T13:51:27.628Z</time></trkpt><trkpt lat="46.0120749" lon="11.7107894"><ele>1028.4</ele><time>2026-04-11T13:51:29.628Z</time></trkpt><trkpt lat="46.0119657" lon="11.7107225"><ele>1028.0</ele><time>2026-04-11T13:51:31.627Z</time></trkpt><trkpt lat="46.011904" lon="11.7106526"><ele>1028.0</ele><time>2026-04-11T13:51:32.628Z</time></trkpt><trkpt lat="46.0118389" lon="11.7105657"><ele>1028.0</ele><time>2026-04-11T13:51:33.627Z</time></trkpt><trkpt lat="46.0117741" lon="11.710478"><ele>1028.0</ele><time>2026-04-11T13:51:34.627Z</time></trkpt><trkpt lat="46.0117091" lon="11.7103872"><ele>1028.0</ele><time>2026-04-11T13:51:35.628Z</time></trkpt><trkpt lat="46.0116424" lon="11.7103278"><ele>1028.0</ele><time>2026-04-11T13:51:36.627Z</time></trkpt><trkpt lat="46.0115738" lon="11.7103151"><ele>1028.0</ele><time>2026-04-11T13:51:37.628Z</time></trkpt><trkpt lat="46.0114986" lon="11.7103504"><ele>1033.2</ele><time>2026-04-11T13:51:38.627Z</time></trkpt><trkpt lat="46.0114183" lon="11.7104163"><ele>1038.4</ele><time>2026-04-11T13:51:39.628Z</time></trkpt><trkpt lat="46.0113395" lon="11.7105164"><ele>1043.6000000000001</ele><time>2026-04-11T13:51:40.627Z</time></trkpt><trkpt lat="46.011278" lon="11.710631"><ele>1048.8</ele><time>2026-04-11T13:51:41.627Z</time></trkpt><trkpt lat="46.0112286" lon="11.7107514"><ele>1054.0</ele><time>2026-04-11T13:51:42.627Z</time></trkpt><trkpt lat="46.011199" lon="11.7108704"><ele>1054.0</ele><time>2026-04-11T13:51:43.627Z</time></trkpt><trkpt lat="46.011187" lon="11.7110013"><ele>1054.0</ele><time>2026-04-11T13:51:44.628Z</time></trkpt><trkpt lat="46.0111887" lon="11.7111373"><ele>1054.0</ele><time>2026-04-11T13:51:45.629Z</time></trkpt><trkpt lat="46.0112085" lon="11.7112282"><ele>1054.0</ele><time>2026-04-11T13:51:46.628Z</time></trkpt><trkpt lat="46.0111849" lon="11.7113733"><ele>1054.0</ele><time>2026-04-11T13:51:49.628Z</time></trkpt><trkpt lat="46.0111572" lon="11.7114663"><ele>1054.0</ele><time>2026-04-11T13:51:50.628Z</time></trkpt><trkpt lat="46.0111054" lon="11.711573"><ele>1050.6666666666665</ele><time>2026-04-11T13:51:51.629Z</time></trkpt><trkpt lat="46.0110295" lon="11.7116987"><ele>1047.3333333333333</ele><time>2026-04-11T13:51:52.629Z</time></trkpt><trkpt lat="46.0109017" lon="11.7118631"><ele>1044.0</ele><time>2026-04-11T13:51:53.627Z</time></trkpt><trkpt lat="46.0107783" lon="11.712025"><ele>1044.0</ele><time>2026-04-11T13:51:54.627Z</time></trkpt><trkpt lat="46.0106255" lon="11.7121642"><ele>1044.0</ele><time>2026-04-11T13:51:55.627Z</time></trkpt><trkpt lat="46.0104858" lon="11.7122514"><ele>1044.0</ele><time>2026-04-11T13:51:56.627Z</time></trkpt><trkpt lat="46.0103909" lon="11.7122975"><ele>1044.0</ele><time>2026-04-11T13:51:57.628Z</time></trkpt><trkpt lat="46.0103627" lon="11.712379"><ele>1044.0</ele><time>2026-04-11T13:52:01.628Z</time></trkpt><trkpt lat="46.0104231" lon="11.7124383"><ele>1044.0</ele><time>2026-04-11T13:52:30.629Z</time></trkpt><trkpt lat="46.0105129" lon="11.7124434"><ele>1044.0</ele><time>2026-04-11T13:52:32.628Z</time></trkpt><trkpt lat="46.0106499" lon="11.7124491"><ele>1044.0</ele><time>2026-04-11T13:52:34.629Z</time></trkpt><trkpt lat="46.0107238" lon="11.7124532"><ele>1044.0</ele><time>2026-04-11T13:52:35.628Z</time></trkpt><trkpt lat="46.0108112" lon="11.7124366"><ele>1041.8</ele><time>2026-04-11T13:52:36.629Z</time></trkpt><trkpt lat="46.0109052" lon="11.7124157"><ele>1039.6000000000001</ele><time>2026-04-11T13:52:37.63Z</time></trkpt><trkpt lat="46.0110201" lon="11.7123937"><ele>1037.4</ele><time>2026-04-11T13:52:38.629Z</time></trkpt><trkpt lat="46.0111372" lon="11.7123697"><ele>1035.2</ele><time>2026-04-11T13:52:39.629Z</time></trkpt><trkpt lat="46.0112353" lon="11.7123475"><ele>1033.0</ele><time>2026-04-11T13:52:40.629Z</time></trkpt><trkpt lat="46.0113317" lon="11.712339"><ele>1033.0</ele><time>2026-04-11T13:52:41.629Z</time></trkpt><trkpt lat="46.0114157" lon="11.7123353"><ele>1033.0</ele><time>2026-04-11T13:52:42.629Z</time></trkpt><trkpt lat="46.0114943" lon="11.7123296"><ele>1033.0</ele><time>2026-04-11T13:52:43.629Z</time></trkpt><trkpt lat="46.0115624" lon="11.712328"><ele>1033.0</ele><time>2026-04-11T13:52:44.628Z</time></trkpt><trkpt lat="46.0116261" lon="11.7123248"><ele>1033.0</ele><time>2026-04-11T13:52:45.629Z</time></trkpt><trkpt lat="46.0117" lon="11.7123346"><ele>1033.0</ele><time>2026-04-11T13:52:46.629Z</time></trkpt><trkpt lat="46.0117812" lon="11.7123647"><ele>1032.2</ele><time>2026-04-11T13:52:47.628Z</time></trkpt><trkpt lat="46.0118667" lon="11.7124044"><ele>1031.4</ele><time>2026-04-11T13:52:48.628Z</time></trkpt><trkpt lat="46.0119535" lon="11.712446"><ele>1030.6000000000001</ele><time>2026-04-11T13:52:49.629Z</time></trkpt><trkpt lat="46.0120345" lon="11.7124854"><ele>1029.8</ele><time>2026-04-11T13:52:50.629Z</time></trkpt><trkpt lat="46.0121202" lon="11.7125327"><ele>1029.0</ele><time>2026-04-11T13:52:51.628Z</time></trkpt><trkpt lat="46.0122092" lon="11.7125737"><ele>1029.0</ele><time>2026-04-11T13:52:52.628Z</time></trkpt><trkpt lat="46.0122986" lon="11.7126076"><ele>1029.0</ele><time>2026-04-11T13:52:53.629Z</time></trkpt><trkpt lat="46.0123882" lon="11.7126406"><ele>1029.0</ele><time>2026-04-11T13:52:54.63Z</time></trkpt><trkpt lat="46.012478" lon="11.7126815"><ele>1029.0</ele><time>2026-04-11T13:52:55.629Z</time></trkpt><trkpt lat="46.0125636" lon="11.7127261"><ele>1029.0</ele><time>2026-04-11T13:52:56.628Z</time></trkpt><trkpt lat="46.0126615" lon="11.7127665"><ele>1034.0</ele><time>2026-04-11T13:52:57.628Z</time></trkpt><trkpt lat="46.012755" lon="11.712808"><ele>1039.0</ele><time>2026-04-11T13:52:58.629Z</time></trkpt><trkpt lat="46.0128478" lon="11.7128622"><ele>1044.0</ele><time>2026-04-11T13:52:59.63Z</time></trkpt><trkpt lat="46.0129344" lon="11.7129097"><ele>1049.0</ele><time>2026-04-11T13:53:00.628Z</time></trkpt><trkpt lat="46.0130193" lon="11.7129588"><ele>1054.0</ele><time>2026-04-11T13:53:01.628Z</time></trkpt><trkpt lat="46.0131061" lon="11.7130025"><ele>1054.0</ele><time>2026-04-11T13:53:02.63Z</time></trkpt><trkpt lat="46.0131835" lon="11.7130482"><ele>1054.0</ele><time>2026-04-11T13:53:03.629Z</time></trkpt><trkpt lat="46.0132579" lon="11.7130947"><ele>1054.0</ele><time>2026-04-11T13:53:04.628Z</time></trkpt><trkpt lat="46.0133334" lon="11.7131577"><ele>1054.0</ele><time>2026-04-11T13:53:05.629Z</time></trkpt><trkpt lat="46.0133975" lon="11.7132276"><ele>1054.0</ele><time>2026-04-11T13:53:06.628Z</time></trkpt><trkpt lat="46.0134589" lon="11.7133312"><ele>1054.0</ele><time>2026-04-11T13:53:07.629Z</time></trkpt><trkpt lat="46.0135172" lon="11.7134346"><ele>1053.1666666666665</ele><time>2026-04-11T13:53:08.628Z</time></trkpt><trkpt lat="46.013579" lon="11.7135341"><ele>1052.3333333333333</ele><time>2026-04-11T13:53:09.629Z</time></trkpt><trkpt lat="46.0136408" lon="11.713614"><ele>1051.5</ele><time>2026-04-11T13:53:10.629Z</time></trkpt><trkpt lat="46.0137061" lon="11.713677"><ele>1050.6666666666667</ele><time>2026-04-11T13:53:11.629Z</time></trkpt><trkpt lat="46.013761" lon="11.713739"><ele>1049.8333333333335</ele><time>2026-04-11T13:53:12.63Z</time></trkpt><trkpt lat="46.0138142" lon="11.7138155"><ele>1049.0</ele><time>2026-04-11T13:53:13.63Z</time></trkpt><trkpt lat="46.0138579" lon="11.7138873"><ele>1049.0</ele><time>2026-04-11T13:53:14.63Z</time></trkpt><trkpt lat="46.0138869" lon="11.7139737"><ele>1049.0</ele><time>2026-04-11T13:53:15.629Z</time></trkpt><trkpt lat="46.0138986" lon="11.7141355"><ele>1049.0</ele><time>2026-04-11T13:53:17.63Z</time></trkpt><trkpt lat="46.0138764" lon="11.7142226"><ele>1049.0</ele><time>2026-04-11T13:53:18.63Z</time></trkpt><trkpt lat="46.0138443" lon="11.7143409"><ele>1049.0</ele><time>2026-04-11T13:53:19.629Z</time></trkpt><trkpt lat="46.0138133" lon="11.7144693"><ele>1049.0</ele><time>2026-04-11T13:53:20.629Z</time></trkpt><trkpt lat="46.0138208" lon="11.7146035"><ele>1050.6666666666667</ele><time>2026-04-11T13:53:21.63Z</time></trkpt><trkpt lat="46.0138375" lon="11.7147371"><ele>1052.3333333333335</ele><time>2026-04-11T13:53:22.629Z</time></trkpt><trkpt lat="46.0138757" lon="11.714866"><ele>1054.0</ele><time>2026-04-11T13:53:23.629Z</time></trkpt><trkpt lat="46.0139277" lon="11.7149805"><ele>1055.6666666666667</ele><time>2026-04-11T13:53:24.629Z</time></trkpt><trkpt lat="46.0139788" lon="11.7150765"><ele>1057.3333333333333</ele><time>2026-04-11T13:53:25.629Z</time></trkpt><trkpt lat="46.0140285" lon="11.7151603"><ele>1059.0</ele><time>2026-04-11T13:53:26.63Z</time></trkpt><trkpt lat="46.0140685" lon="11.715255"><ele>1060.0</ele><time>2026-04-11T13:53:27.629Z</time></trkpt><trkpt lat="46.0141044" lon="11.7153669"><ele>1061.0</ele><time>2026-04-11T13:53:28.63Z</time></trkpt><trkpt lat="46.0141344" lon="11.7154898"><ele>1062.0</ele><time>2026-04-11T13:53:29.629Z</time></trkpt><trkpt lat="46.0141595" lon="11.7156126"><ele>1063.0</ele><time>2026-04-11T13:53:30.629Z</time></trkpt><trkpt lat="46.0141786" lon="11.71574"><ele>1064.0</ele><time>2026-04-11T13:53:31.629Z</time></trkpt><trkpt lat="46.014189" lon="11.7158588"><ele>1065.0</ele><time>2026-04-11T13:53:32.63Z</time></trkpt><trkpt lat="46.0142008" lon="11.7159802"><ele>1064.8333333333333</ele><time>2026-04-11T13:53:33.63Z</time></trkpt><trkpt lat="46.0142017" lon="11.7160831"><ele>1064.6666666666667</ele><time>2026-04-11T13:53:34.63Z</time></trkpt><trkpt lat="46.0141996" lon="11.7161854"><ele>1064.5</ele><time>2026-04-11T13:53:35.631Z</time></trkpt><trkpt lat="46.0141805" lon="11.7162921"><ele>1064.3333333333335</ele><time>2026-04-11T13:53:36.629Z</time></trkpt><trkpt lat="46.0141468" lon="11.7163973"><ele>1064.1666666666667</ele><time>2026-04-11T13:53:37.629Z</time></trkpt><trkpt lat="46.0140966" lon="11.7165016"><ele>1064.0</ele><time>2026-04-11T13:53:38.629Z</time></trkpt><trkpt lat="46.0140401" lon="11.716612"><ele>1064.0</ele><time>2026-04-11T13:53:39.63Z</time></trkpt><trkpt lat="46.0139779" lon="11.7167037"><ele>1064.0</ele><time>2026-04-11T13:53:40.629Z</time></trkpt><trkpt lat="46.0139084" lon="11.7167797"><ele>1064.0</ele><time>2026-04-11T13:53:41.63Z</time></trkpt><trkpt lat="46.0138371" lon="11.7168525"><ele>1064.0</ele><time>2026-04-11T13:53:42.63Z</time></trkpt><trkpt lat="46.0137534" lon="11.716932"><ele>1064.0</ele><time>2026-04-11T13:53:43.631Z</time></trkpt><trkpt lat="46.0136767" lon="11.7170078"><ele>1062.75</ele><time>2026-04-11T13:53:44.63Z</time></trkpt><trkpt lat="46.0135731" lon="11.7171222"><ele>1061.5</ele><time>2026-04-11T13:53:46.63Z</time></trkpt><trkpt lat="46.0136303" lon="11.7172687"><ele>1060.25</ele><time>2026-04-11T13:53:48.63Z</time></trkpt><trkpt lat="46.0137187" lon="11.71737"><ele>1059.0</ele><time>2026-04-11T13:53:49.63Z</time></trkpt><trkpt lat="46.0138342" lon="11.7174427"><ele>1059.0</ele><time>2026-04-11T13:53:50.629Z</time></trkpt><trkpt lat="46.0139557" lon="11.7174789"><ele>1059.0</ele><time>2026-04-11T13:53:51.629Z</time></trkpt><trkpt lat="46.0140701" lon="11.7175207"><ele>1059.0</ele><time>2026-04-11T13:53:52.631Z</time></trkpt><trkpt lat="46.0141552" lon="11.7175524"><ele>1059.0</ele><time>2026-04-11T13:53:53.629Z</time></trkpt><trkpt lat="46.0142232" lon="11.7175925"><ele>1059.0</ele><time>2026-04-11T13:53:54.631Z</time></trkpt><trkpt lat="46.014319" lon="11.7177072"><ele>1052.75</ele><time>2026-04-11T13:53:56.629Z</time></trkpt><trkpt lat="46.0143707" lon="11.7178212"><ele>1046.5</ele><time>2026-04-11T13:53:57.63Z</time></trkpt><trkpt lat="46.0144292" lon="11.7180088"><ele>1040.25</ele><time>2026-04-11T13:53:58.63Z</time></trkpt><trkpt lat="46.0144782" lon="11.7181951"><ele>1034.0</ele><time>2026-04-11T13:53:59.63Z</time></trkpt><trkpt lat="46.014522" lon="11.718387"><ele>1034.0</ele><time>2026-04-11T13:54:00.631Z</time></trkpt><trkpt lat="46.0145617" lon="11.7185561"><ele>1034.0</ele><time>2026-04-11T13:54:01.629Z</time></trkpt><trkpt lat="46.0145903" lon="11.7186849"><ele>1034.0</ele><time>2026-04-11T13:54:02.629Z</time></trkpt><trkpt lat="46.0146071" lon="11.7187878"><ele>1034.0</ele><time>2026-04-11T13:54:03.631Z</time></trkpt><trkpt lat="46.0146112" lon="11.7188889"><ele>1034.0</ele><time>2026-04-11T13:54:04.63Z</time></trkpt><trkpt lat="46.0146041" lon="11.7189943"><ele>1034.0</ele><time>2026-04-11T13:54:05.63Z</time></trkpt><trkpt lat="46.0145992" lon="11.7191007"><ele>1034.2</ele><time>2026-04-11T13:54:06.63Z</time></trkpt><trkpt lat="46.0145831" lon="11.7192041"><ele>1034.4</ele><time>2026-04-11T13:54:07.63Z</time></trkpt><trkpt lat="46.0145569" lon="11.7193112"><ele>1034.6</ele><time>2026-04-11T13:54:08.63Z</time></trkpt><trkpt lat="46.0145198" lon="11.7194461"><ele>1034.8</ele><time>2026-04-11T13:54:09.63Z</time></trkpt><trkpt lat="46.0144846" lon="11.7195838"><ele>1035.0</ele><time>2026-04-11T13:54:10.63Z</time></trkpt><trkpt lat="46.0144277" lon="11.7197135"><ele>1035.6</ele><time>2026-04-11T13:54:11.63Z</time></trkpt><trkpt lat="46.014387" lon="11.719814"><ele>1036.2</ele><time>2026-04-11T13:54:12.631Z</time></trkpt><trkpt lat="46.0143619" lon="11.7199051"><ele>1036.8</ele><time>2026-04-11T13:54:13.631Z</time></trkpt><trkpt lat="46.0143581" lon="11.7200548"><ele>1037.4</ele><time>2026-04-11T13:54:15.629Z</time></trkpt><trkpt lat="46.0144402" lon="11.7202117"><ele>1038.0</ele><time>2026-04-11T13:54:17.631Z</time></trkpt><trkpt lat="46.0145176" lon="11.7202565"><ele>1038.6666666666667</ele><time>2026-04-11T13:54:18.631Z</time></trkpt><trkpt lat="46.0145859" lon="11.7202958"><ele>1039.3333333333333</ele><time>2026-04-11T13:54:19.63Z</time></trkpt><trkpt lat="46.0146533" lon="11.7203266"><ele>1040.0</ele><time>2026-04-11T13:54:20.631Z</time></trkpt><trkpt lat="46.0147434" lon="11.7204719"><ele>1040.6666666666665</ele><time>2026-04-11T13:54:22.63Z</time></trkpt><trkpt lat="46.0147502" lon="11.7205796"><ele>1041.3333333333333</ele><time>2026-04-11T13:54:23.63Z</time></trkpt><trkpt lat="46.014731" lon="11.7207018"><ele>1042.0</ele><time>2026-04-11T13:54:24.63Z</time></trkpt><trkpt lat="46.0146932" lon="11.7208071"><ele>1042.0</ele><time>2026-04-11T13:54:25.63Z</time></trkpt><trkpt lat="46.0146468" lon="11.7209054"><ele>1042.0</ele><time>2026-04-11T13:54:26.631Z</time></trkpt><trkpt lat="46.0145978" lon="11.7209985"><ele>1042.0</ele><time>2026-04-11T13:54:27.631Z</time></trkpt><trkpt lat="46.0145411" lon="11.7210878"><ele>1042.0</ele><time>2026-04-11T13:54:28.631Z</time></trkpt><trkpt lat="46.0143969" lon="11.7212381"><ele>1042.0</ele><time>2026-04-11T13:54:30.63Z</time></trkpt><trkpt lat="46.0143195" lon="11.7213117"><ele>1042.0</ele><time>2026-04-11T13:54:31.631Z</time></trkpt><trkpt lat="46.0142707" lon="11.7214"><ele>1042.0</ele><time>2026-04-11T13:54:32.63Z</time></trkpt><trkpt lat="46.0142603" lon="11.7215308"><ele>1042.0</ele><time>2026-04-11T13:54:33.631Z</time></trkpt><trkpt lat="46.0142536" lon="11.7216663"><ele>1042.0</ele><time>2026-04-11T13:54:34.631Z</time></trkpt><trkpt lat="46.0142272" lon="11.721807"><ele>1042.0</ele><time>2026-04-11T13:54:35.631Z</time></trkpt><trkpt lat="46.0142054" lon="11.721916"><ele>1042.0</ele><time>2026-04-11T13:54:36.631Z</time></trkpt><trkpt lat="46.0142018" lon="11.7220132"><ele>1042.2</ele><time>2026-04-11T13:54:37.631Z</time></trkpt><trkpt lat="46.014274" lon="11.7221439"><ele>1042.4</ele><time>2026-04-11T13:54:39.631Z</time></trkpt><trkpt lat="46.0143838" lon="11.722191"><ele>1042.6</ele><time>2026-04-11T13:54:41.63Z</time></trkpt><trkpt lat="46.0144549" lon="11.7221963"><ele>1042.8</ele><time>2026-04-11T13:54:42.631Z</time></trkpt><trkpt lat="46.0145236" lon="11.7221949"><ele>1043.0</ele><time>2026-04-11T13:54:43.631Z</time></trkpt><trkpt lat="46.0146188" lon="11.7222205"><ele>1043.0</ele><time>2026-04-11T13:54:45.63Z</time></trkpt><trkpt lat="46.0146791" lon="11.7223062"><ele>1043.0</ele><time>2026-04-11T13:54:47.631Z</time></trkpt><trkpt lat="46.0147024" lon="11.7224015"><ele>1043.0</ele><time>2026-04-11T13:54:48.63Z</time></trkpt><trkpt lat="46.0147084" lon="11.7224991"><ele>1043.0</ele><time>2026-04-11T13:54:49.63Z</time></trkpt><trkpt lat="46.0146895" lon="11.7226763"><ele>1043.0</ele><time>2026-04-11T13:54:50.63Z</time></trkpt><trkpt lat="46.0146553" lon="11.7228533"><ele>1042.0</ele><time>2026-04-11T13:54:51.63Z</time></trkpt><trkpt lat="46.014621" lon="11.7229733"><ele>1041.0</ele><time>2026-04-11T13:54:52.63Z</time></trkpt><trkpt lat="46.0145878" lon="11.7230665"><ele>1040.0</ele><time>2026-04-11T13:54:53.631Z</time></trkpt><trkpt lat="46.0145385" lon="11.7231566"><ele>1039.0</ele><time>2026-04-11T13:54:54.63Z</time></trkpt><trkpt lat="46.0144562" lon="11.7232617"><ele>1038.0</ele><time>2026-04-11T13:54:55.63Z</time></trkpt><trkpt lat="46.0143446" lon="11.7234539"><ele>1038.0</ele><time>2026-04-11T13:54:57.63Z</time></trkpt><trkpt lat="46.0143358" lon="11.7235513"><ele>1038.0</ele><time>2026-04-11T13:54:58.63Z</time></trkpt><trkpt lat="46.0143655" lon="11.7236651"><ele>1038.0</ele><time>2026-04-11T13:54:59.631Z</time></trkpt><trkpt lat="46.0144094" lon="11.7237703"><ele>1038.0</ele><time>2026-04-11T13:55:00.63Z</time></trkpt><trkpt lat="46.0144439" lon="11.7238777"><ele>1038.0</ele><time>2026-04-11T13:55:01.632Z</time></trkpt><trkpt lat="46.0144616" lon="11.7239851"><ele>1038.0</ele><time>2026-04-11T13:55:02.631Z</time></trkpt><trkpt lat="46.0144622" lon="11.7240929"><ele>1038.3333333333333</ele><time>2026-04-11T13:55:03.631Z</time></trkpt><trkpt lat="46.014461" lon="11.7242002"><ele>1038.6666666666667</ele><time>2026-04-11T13:55:04.63Z</time></trkpt><trkpt lat="46.0144465" lon="11.7243149"><ele>1039.0</ele><time>2026-04-11T13:55:05.631Z</time></trkpt><trkpt lat="46.014431" lon="11.7244344"><ele>1039.3333333333335</ele><time>2026-04-11T13:55:06.631Z</time></trkpt><trkpt lat="46.0144146" lon="11.7245628"><ele>1039.6666666666667</ele><time>2026-04-11T13:55:07.631Z</time></trkpt><trkpt lat="46.0143973" lon="11.7246747"><ele>1040.0</ele><time>2026-04-11T13:55:08.631Z</time></trkpt><trkpt lat="46.0143768" lon="11.7247725"><ele>1037.8333333333335</ele><time>2026-04-11T13:55:09.631Z</time></trkpt><trkpt lat="46.0143487" lon="11.7248541"><ele>1035.6666666666667</ele><time>2026-04-11T13:55:10.631Z</time></trkpt><trkpt lat="46.0142646" lon="11.7249853"><ele>1033.5</ele><time>2026-04-11T13:55:12.632Z</time></trkpt><trkpt lat="46.0141974" lon="11.7250299"><ele>1031.3333333333333</ele><time>2026-04-11T13:55:13.632Z</time></trkpt><trkpt lat="46.0141231" lon="11.7250719"><ele>1029.1666666666665</ele><time>2026-04-11T13:55:14.631Z</time></trkpt><trkpt lat="46.0140357" lon="11.7251088"><ele>1027.0</ele><time>2026-04-11T13:55:15.632Z</time></trkpt><trkpt lat="46.0139382" lon="11.7251339"><ele>1031.8</ele><time>2026-04-11T13:55:16.631Z</time></trkpt><trkpt lat="46.0138439" lon="11.7251634"><ele>1036.6</ele><time>2026-04-11T13:55:17.632Z</time></trkpt><trkpt lat="46.0137653" lon="11.7251909"><ele>1041.3999999999999</ele><time>2026-04-11T13:55:18.631Z</time></trkpt><trkpt lat="46.0137103" lon="11.7252395"><ele>1046.2</ele><time>2026-04-11T13:55:19.63Z</time></trkpt><trkpt lat="46.0136874" lon="11.7254173"><ele>1051.0</ele><time>2026-04-11T13:55:21.63Z</time></trkpt><trkpt lat="46.0137205" lon="11.7255422"><ele>1051.0</ele><time>2026-04-11T13:55:22.631Z</time></trkpt><trkpt lat="46.0137763" lon="11.7256718"><ele>1051.0</ele><time>2026-04-11T13:55:23.631Z</time></trkpt><trkpt lat="46.0138485" lon="11.7257925"><ele>1051.0</ele><time>2026-04-11T13:55:24.631Z</time></trkpt><trkpt lat="46.0139141" lon="11.7258987"><ele>1051.0</ele><time>2026-04-11T13:55:25.632Z</time></trkpt><trkpt lat="46.0139637" lon="11.7260167"><ele>1051.0</ele><time>2026-04-11T13:55:26.631Z</time></trkpt><trkpt lat="46.0139877" lon="11.7261469"><ele>1050.3333333333333</ele><time>2026-04-11T13:55:27.632Z</time></trkpt><trkpt lat="46.0140061" lon="11.7262816"><ele>1049.6666666666665</ele><time>2026-04-11T13:55:28.631Z</time></trkpt><trkpt lat="46.0140257" lon="11.7263893"><ele>1049.0</ele><time>2026-04-11T13:55:29.631Z</time></trkpt><trkpt lat="46.0140391" lon="11.7264813"><ele>1048.3333333333333</ele><time>2026-04-11T13:55:30.632Z</time></trkpt><trkpt lat="46.0140252" lon="11.7266569"><ele>1047.6666666666667</ele><time>2026-04-11T13:55:32.631Z</time></trkpt><trkpt lat="46.0139928" lon="11.7267461"><ele>1047.0</ele><time>2026-04-11T13:55:33.632Z</time></trkpt><trkpt lat="46.0139474" lon="11.726845"><ele>1044.6</ele><time>2026-04-11T13:55:34.632Z</time></trkpt><trkpt lat="46.0138986" lon="11.7269667"><ele>1042.2</ele><time>2026-04-11T13:55:35.633Z</time></trkpt><trkpt lat="46.0138565" lon="11.7270982"><ele>1039.8</ele><time>2026-04-11T13:55:36.632Z</time></trkpt><trkpt lat="46.013821" lon="11.7272323"><ele>1037.4</ele><time>2026-04-11T13:55:37.632Z</time></trkpt><trkpt lat="46.0137846" lon="11.7273629"><ele>1035.0</ele><time>2026-04-11T13:55:38.632Z</time></trkpt><trkpt lat="46.0137453" lon="11.7274851"><ele>1035.0</ele><time>2026-04-11T13:55:39.632Z</time></trkpt><trkpt lat="46.0137008" lon="11.7275996"><ele>1035.0</ele><time>2026-04-11T13:55:40.632Z</time></trkpt><trkpt lat="46.013651" lon="11.7276911"><ele>1035.0</ele><time>2026-04-11T13:55:41.632Z</time></trkpt><trkpt lat="46.0135916" lon="11.7277625"><ele>1035.0</ele><time>2026-04-11T13:55:42.631Z</time></trkpt><trkpt lat="46.0135254" lon="11.7278113"><ele>1035.0</ele><time>2026-04-11T13:55:43.631Z</time></trkpt><trkpt lat="46.0134504" lon="11.7278444"><ele>1035.0</ele><time>2026-04-11T13:55:44.632Z</time></trkpt><trkpt lat="46.013375" lon="11.7278718"><ele>1035.0</ele><time>2026-04-11T13:55:45.631Z</time></trkpt><trkpt lat="46.013311" lon="11.7278772"><ele>1035.0</ele><time>2026-04-11T13:55:46.632Z</time></trkpt><trkpt lat="46.0132386" lon="11.7278671"><ele>1035.0</ele><time>2026-04-11T13:55:47.632Z</time></trkpt><trkpt lat="46.0131602" lon="11.7278562"><ele>1035.0</ele><time>2026-04-11T13:55:48.632Z</time></trkpt><trkpt lat="46.0130714" lon="11.7278471"><ele>1035.0</ele><time>2026-04-11T13:55:49.632Z</time></trkpt><trkpt lat="46.0129864" lon="11.7278675"><ele>1035.0</ele><time>2026-04-11T13:55:50.631Z</time></trkpt><trkpt lat="46.0129081" lon="11.7279071"><ele>1035.0</ele><time>2026-04-11T13:55:51.632Z</time></trkpt><trkpt lat="46.0128352" lon="11.7279632"><ele>1035.0</ele><time>2026-04-11T13:55:52.632Z</time></trkpt><trkpt lat="46.0127706" lon="11.7280377"><ele>1035.0</ele><time>2026-04-11T13:55:53.631Z</time></trkpt><trkpt lat="46.0127103" lon="11.7281388"><ele>1035.0</ele><time>2026-04-11T13:55:54.633Z</time></trkpt><trkpt lat="46.0126502" lon="11.7282418"><ele>1035.0</ele><time>2026-04-11T13:55:55.631Z</time></trkpt><trkpt lat="46.0125791" lon="11.7283533"><ele>1035.0</ele><time>2026-04-11T13:55:56.632Z</time></trkpt><trkpt lat="46.0125121" lon="11.7284787"><ele>1035.0</ele><time>2026-04-11T13:55:57.632Z</time></trkpt><trkpt lat="46.0124497" lon="11.7286047"><ele>1035.0</ele><time>2026-04-11T13:55:58.631Z</time></trkpt><trkpt lat="46.0123955" lon="11.7287129"><ele>1035.0</ele><time>2026-04-11T13:55:59.632Z</time></trkpt><trkpt lat="46.0123407" lon="11.7287975"><ele>1035.0</ele><time>2026-04-11T13:56:00.633Z</time></trkpt><trkpt lat="46.0122711" lon="11.7288664"><ele>1035.4</ele><time>2026-04-11T13:56:01.632Z</time></trkpt><trkpt lat="46.0121931" lon="11.7289193"><ele>1035.8</ele><time>2026-04-11T13:56:02.632Z</time></trkpt><trkpt lat="46.0121128" lon="11.728968"><ele>1036.2</ele><time>2026-04-11T13:56:03.632Z</time></trkpt><trkpt lat="46.0120152" lon="11.7290322"><ele>1036.6</ele><time>2026-04-11T13:56:04.633Z</time></trkpt><trkpt lat="46.0119168" lon="11.7291069"><ele>1037.0</ele><time>2026-04-11T13:56:05.633Z</time></trkpt><trkpt lat="46.011826" lon="11.7291824"><ele>1037.0</ele><time>2026-04-11T13:56:06.631Z</time></trkpt><trkpt lat="46.0117376" lon="11.7292618"><ele>1037.0</ele><time>2026-04-11T13:56:07.632Z</time></trkpt><trkpt lat="46.0116396" lon="11.7293692"><ele>1037.0</ele><time>2026-04-11T13:56:08.632Z</time></trkpt><trkpt lat="46.0115542" lon="11.7294637"><ele>1037.0</ele><time>2026-04-11T13:56:09.632Z</time></trkpt><trkpt lat="46.0114842" lon="11.7295429"><ele>1037.0</ele><time>2026-04-11T13:56:10.632Z</time></trkpt><trkpt lat="46.0114298" lon="11.7296144"><ele>1035.6666666666667</ele><time>2026-04-11T13:56:11.631Z</time></trkpt><trkpt lat="46.0113732" lon="11.7296746"><ele>1034.3333333333335</ele><time>2026-04-11T13:56:12.632Z</time></trkpt><trkpt lat="46.0112885" lon="11.7297032"><ele>1033.0</ele><time>2026-04-11T13:56:13.633Z</time></trkpt><trkpt lat="46.0112051" lon="11.7297135"><ele>1031.6666666666667</ele><time>2026-04-11T13:56:14.632Z</time></trkpt><trkpt lat="46.0111137" lon="11.7297191"><ele>1030.3333333333333</ele><time>2026-04-11T13:56:15.632Z</time></trkpt><trkpt lat="46.0110074" lon="11.7297149"><ele>1029.0</ele><time>2026-04-11T13:56:16.633Z</time></trkpt><trkpt lat="46.0109066" lon="11.7297425"><ele>1029.1666666666667</ele><time>2026-04-11T13:56:17.632Z</time></trkpt><trkpt lat="46.0108233" lon="11.7297785"><ele>1029.3333333333333</ele><time>2026-04-11T13:56:18.632Z</time></trkpt><trkpt lat="46.0107503" lon="11.7298249"><ele>1029.5</ele><time>2026-04-11T13:56:19.632Z</time></trkpt><trkpt lat="46.0106985" lon="11.7298867"><ele>1029.6666666666665</ele><time>2026-04-11T13:56:20.632Z</time></trkpt><trkpt lat="46.0106609" lon="11.7300382"><ele>1029.8333333333333</ele><time>2026-04-11T13:56:22.633Z</time></trkpt><trkpt lat="46.0106922" lon="11.7301539"><ele>1030.0</ele><time>2026-04-11T13:56:23.631Z</time></trkpt><trkpt lat="46.0107311" lon="11.7302627"><ele>1030.0</ele><time>2026-04-11T13:56:24.631Z</time></trkpt><trkpt lat="46.0107578" lon="11.7303549"><ele>1030.0</ele><time>2026-04-11T13:56:25.633Z</time></trkpt><trkpt lat="46.01076" lon="11.730454"><ele>1030.0</ele><time>2026-04-11T13:56:26.632Z</time></trkpt><trkpt lat="46.0107447" lon="11.730554"><ele>1030.0</ele><time>2026-04-11T13:56:27.633Z</time></trkpt><trkpt lat="46.0107104" lon="11.730654"><ele>1030.0</ele><time>2026-04-11T13:56:28.633Z</time></trkpt><trkpt lat="46.0106591" lon="11.7307642"><ele>1030.0</ele><time>2026-04-11T13:56:29.633Z</time></trkpt><trkpt lat="46.0105871" lon="11.7308627"><ele>1030.0</ele><time>2026-04-11T13:56:30.633Z</time></trkpt><trkpt lat="46.0104997" lon="11.7309351"><ele>1030.0</ele><time>2026-04-11T13:56:31.632Z</time></trkpt><trkpt lat="46.0104079" lon="11.7309847"><ele>1030.0</ele><time>2026-04-11T13:56:32.633Z</time></trkpt><trkpt lat="46.0103251" lon="11.7310391"><ele>1030.0</ele><time>2026-04-11T13:56:33.632Z</time></trkpt><trkpt lat="46.0102527" lon="11.7311157"><ele>1030.0</ele><time>2026-04-11T13:56:34.633Z</time></trkpt><trkpt lat="46.0101937" lon="11.731216"><ele>1028.8</ele><time>2026-04-11T13:56:35.633Z</time></trkpt><trkpt lat="46.0101489" lon="11.731336"><ele>1027.6</ele><time>2026-04-11T13:56:36.633Z</time></trkpt><trkpt lat="46.0101109" lon="11.7314646"><ele>1026.4</ele><time>2026-04-11T13:56:37.633Z</time></trkpt><trkpt lat="46.0100678" lon="11.7315829"><ele>1025.2</ele><time>2026-04-11T13:56:38.632Z</time></trkpt><trkpt lat="46.01002" lon="11.7317023"><ele>1024.0</ele><time>2026-04-11T13:56:39.633Z</time></trkpt><trkpt lat="46.0099732" lon="11.7318232"><ele>1023.4999999999999</ele><time>2026-04-11T13:56:40.632Z</time></trkpt><trkpt lat="46.0099289" lon="11.7319437"><ele>1023.0</ele><time>2026-04-11T13:56:41.632Z</time></trkpt><trkpt lat="46.0098879" lon="11.7320673"><ele>1022.5</ele><time>2026-04-11T13:56:42.632Z</time></trkpt><trkpt lat="46.0098474" lon="11.7321864"><ele>1022.0</ele><time>2026-04-11T13:56:43.632Z</time></trkpt><trkpt lat="46.0098092" lon="11.7322994"><ele>1021.4999999999999</ele><time>2026-04-11T13:56:44.633Z</time></trkpt><trkpt lat="46.0097771" lon="11.7324051"><ele>1021.0</ele><time>2026-04-11T13:56:45.633Z</time></trkpt><trkpt lat="46.0097532" lon="11.7324945"><ele>1020.9999999999999</ele><time>2026-04-11T13:56:46.632Z</time></trkpt><trkpt lat="46.0097081" lon="11.7326303"><ele>1021.0</ele><time>2026-04-11T13:56:48.633Z</time></trkpt><trkpt lat="46.0096656" lon="11.732701"><ele>1021.0</ele><time>2026-04-11T13:56:49.633Z</time></trkpt><trkpt lat="46.0096092" lon="11.732791"><ele>1021.0</ele><time>2026-04-11T13:56:50.632Z</time></trkpt><trkpt lat="46.009549" lon="11.7328901"><ele>1020.9999999999999</ele><time>2026-04-11T13:56:51.632Z</time></trkpt><trkpt lat="46.0094943" lon="11.7329805"><ele>1021.0</ele><time>2026-04-11T13:56:52.632Z</time></trkpt><trkpt lat="46.0094369" lon="11.7330541"><ele>1018.9999999999999</ele><time>2026-04-11T13:56:53.634Z</time></trkpt><trkpt lat="46.0093696" lon="11.7331084"><ele>1017.0</ele><time>2026-04-11T13:56:54.632Z</time></trkpt><trkpt lat="46.0092948" lon="11.7331396"><ele>1015.0</ele><time>2026-04-11T13:56:55.633Z</time></trkpt><trkpt lat="46.0092245" lon="11.7331421"><ele>1013.0</ele><time>2026-04-11T13:56:56.633Z</time></trkpt><trkpt lat="46.0091555" lon="11.7331065"><ele>1010.9999999999999</ele><time>2026-04-11T13:56:57.633Z</time></trkpt><trkpt lat="46.0090854" lon="11.7330311"><ele>1009.0</ele><time>2026-04-11T13:56:58.633Z</time></trkpt><trkpt lat="46.0090303" lon="11.7329174"><ele>1006.1666666666666</ele><time>2026-04-11T13:56:59.633Z</time></trkpt><trkpt lat="46.0089868" lon="11.73279"><ele>1003.3333333333333</ele><time>2026-04-11T13:57:00.633Z</time></trkpt><trkpt lat="46.0089466" lon="11.7326684"><ele>1000.5</ele><time>2026-04-11T13:57:01.633Z</time></trkpt><trkpt lat="46.0089142" lon="11.7325636"><ele>997.6666666666667</ele><time>2026-04-11T13:57:02.633Z</time></trkpt><trkpt lat="46.008883" lon="11.7324715"><ele>994.8333333333334</ele><time>2026-04-11T13:57:03.634Z</time></trkpt><trkpt lat="46.0088545" lon="11.7323654"><ele>992.0</ele><time>2026-04-11T13:57:04.632Z</time></trkpt><trkpt lat="46.0088328" lon="11.732252"><ele>992.0000000000001</ele><time>2026-04-11T13:57:05.632Z</time></trkpt><trkpt lat="46.0088233" lon="11.7321392"><ele>992.0</ele><time>2026-04-11T13:57:06.634Z</time></trkpt><trkpt lat="46.0088347" lon="11.7320255"><ele>992.0</ele><time>2026-04-11T13:57:07.632Z</time></trkpt><trkpt lat="46.0088522" lon="11.7319043"><ele>992.0</ele><time>2026-04-11T13:57:08.633Z</time></trkpt><trkpt lat="46.0088651" lon="11.7317784"><ele>992.0000000000001</ele><time>2026-04-11T13:57:09.632Z</time></trkpt><trkpt lat="46.0088649" lon="11.7316466"><ele>992.0</ele><time>2026-04-11T13:57:10.634Z</time></trkpt><trkpt lat="46.0088598" lon="11.7315254"><ele>994.1666666666667</ele><time>2026-04-11T13:57:11.634Z</time></trkpt><trkpt lat="46.0088572" lon="11.731417"><ele>996.3333333333334</ele><time>2026-04-11T13:57:12.632Z</time></trkpt><trkpt lat="46.0088524" lon="11.7313054"><ele>998.5</ele><time>2026-04-11T13:57:13.633Z</time></trkpt><trkpt lat="46.0088435" lon="11.7311868"><ele>1000.6666666666667</ele><time>2026-04-11T13:57:14.634Z</time></trkpt><trkpt lat="46.0088366" lon="11.7310726"><ele>1002.8333333333334</ele><time>2026-04-11T13:57:15.632Z</time></trkpt><trkpt lat="46.0088319" lon="11.7309783"><ele>1005.0</ele><time>2026-04-11T13:57:16.633Z</time></trkpt><trkpt lat="46.0088101" lon="11.7308555"><ele>1005.0000000000001</ele><time>2026-04-11T13:57:18.634Z</time></trkpt><trkpt lat="46.0087359" lon="11.7308591"><ele>1005.0</ele><time>2026-04-11T13:57:20.632Z</time></trkpt><trkpt lat="46.0086911" lon="11.7309351"><ele>1005.0000000000001</ele><time>2026-04-11T13:57:21.632Z</time></trkpt><trkpt lat="46.0086709" lon="11.7310276"><ele>1005.0000000000001</ele><time>2026-04-11T13:57:22.634Z</time></trkpt><trkpt lat="46.0086775" lon="11.731126"><ele>1005.0</ele><time>2026-04-11T13:57:23.632Z</time></trkpt><trkpt lat="46.0086911" lon="11.7312214"><ele>1005.0000000000001</ele><time>2026-04-11T13:57:24.633Z</time></trkpt><trkpt lat="46.0087017" lon="11.7313212"><ele>1005.0000000000001</ele><time>2026-04-11T13:57:25.634Z</time></trkpt><trkpt lat="46.0087067" lon="11.7314349"><ele>1005.0</ele><time>2026-04-11T13:57:26.633Z</time></trkpt><trkpt lat="46.0087084" lon="11.7315498"><ele>1005.0</ele><time>2026-04-11T13:57:27.634Z</time></trkpt><trkpt lat="46.0087105" lon="11.7316503"><ele>1005.0</ele><time>2026-04-11T13:57:28.633Z</time></trkpt><trkpt lat="46.0087028" lon="11.7318254"><ele>1005.0</ele><time>2026-04-11T13:57:30.634Z</time></trkpt><trkpt lat="46.0086872" lon="11.7319265"><ele>1005.0</ele><time>2026-04-11T13:57:31.633Z</time></trkpt><trkpt lat="46.0086677" lon="11.7320368"><ele>1005.0</ele><time>2026-04-11T13:57:32.633Z</time></trkpt><trkpt lat="46.0086496" lon="11.7321499"><ele>1002.8333333333334</ele><time>2026-04-11T13:57:33.634Z</time></trkpt><trkpt lat="46.0086376" lon="11.7322649"><ele>1000.6666666666667</ele><time>2026-04-11T13:57:34.634Z</time></trkpt><trkpt lat="46.0086226" lon="11.7323786"><ele>998.5</ele><time>2026-04-11T13:57:35.634Z</time></trkpt><trkpt lat="46.0086068" lon="11.7325083"><ele>996.3333333333334</ele><time>2026-04-11T13:57:36.634Z</time></trkpt><trkpt lat="46.0085974" lon="11.7326384"><ele>994.1666666666667</ele><time>2026-04-11T13:57:37.633Z</time></trkpt><trkpt lat="46.0086033" lon="11.7327828"><ele>992.0</ele><time>2026-04-11T13:57:38.635Z</time></trkpt><trkpt lat="46.0086329" lon="11.7329266"><ele>989.2</ele><time>2026-04-11T13:57:39.634Z</time></trkpt><trkpt lat="46.0086764" lon="11.7330705"><ele>986.4000000000001</ele><time>2026-04-11T13:57:40.634Z</time></trkpt><trkpt lat="46.0087191" lon="11.7332139"><ele>983.5999999999999</ele><time>2026-04-11T13:57:41.633Z</time></trkpt><trkpt lat="46.0087587" lon="11.7333517"><ele>980.8</ele><time>2026-04-11T13:57:42.633Z</time></trkpt><trkpt lat="46.0087987" lon="11.7334834"><ele>978.0</ele><time>2026-04-11T13:57:43.633Z</time></trkpt><trkpt lat="46.0088398" lon="11.7336036"><ele>975.1666666666666</ele><time>2026-04-11T13:57:44.633Z</time></trkpt><trkpt lat="46.0088718" lon="11.7337202"><ele>972.3333333333333</ele><time>2026-04-11T13:57:45.633Z</time></trkpt><trkpt lat="46.0088978" lon="11.7338476"><ele>969.5</ele><time>2026-04-11T13:57:46.633Z</time></trkpt><trkpt lat="46.0089132" lon="11.7339697"><ele>966.6666666666666</ele><time>2026-04-11T13:57:47.634Z</time></trkpt><trkpt lat="46.0089197" lon="11.7340809"><ele>963.8333333333333</ele><time>2026-04-11T13:57:48.634Z</time></trkpt><trkpt lat="46.0089268" lon="11.7341936"><ele>961.0</ele><time>2026-04-11T13:57:49.633Z</time></trkpt><trkpt lat="46.008947" lon="11.7342817"><ele>958.6666666666666</ele><time>2026-04-11T13:57:50.633Z</time></trkpt><trkpt lat="46.0090215" lon="11.7343949"><ele>956.3333333333333</ele><time>2026-04-11T13:57:52.634Z</time></trkpt><trkpt lat="46.0090937" lon="11.7344177"><ele>954.0</ele><time>2026-04-11T13:57:55.633Z</time></trkpt><trkpt lat="46.0090294" lon="11.7345089"><ele>951.6666666666667</ele><time>2026-04-11T13:57:59.633Z</time></trkpt><trkpt lat="46.0089489" lon="11.7345784"><ele>949.3333333333334</ele><time>2026-04-11T13:58:01.634Z</time></trkpt><trkpt lat="46.008883" lon="11.7345615"><ele>947.0</ele><time>2026-04-11T13:58:03.633Z</time></trkpt><trkpt lat="46.008808" lon="11.7344991"><ele>947.0</ele><time>2026-04-11T13:58:05.633Z</time></trkpt><trkpt lat="46.0087465" lon="11.7344167"><ele>947.0</ele><time>2026-04-11T13:58:07.633Z</time></trkpt><trkpt lat="46.0086893" lon="11.7343257"><ele>947.0</ele><time>2026-04-11T13:58:09.633Z</time></trkpt><trkpt lat="46.008647" lon="11.7342352"><ele>947.0</ele><time>2026-04-11T13:58:11.635Z</time></trkpt><trkpt lat="46.0085997" lon="11.7341116"><ele>947.0</ele><time>2026-04-11T13:58:13.633Z</time></trkpt><trkpt lat="46.008532" lon="11.7339857"><ele>949.0</ele><time>2026-04-11T13:58:15.633Z</time></trkpt><trkpt lat="46.0084897" lon="11.7339138"><ele>950.9999999999999</ele><time>2026-04-11T13:58:16.633Z</time></trkpt><trkpt lat="46.0084448" lon="11.7338438"><ele>953.0</ele><time>2026-04-11T13:58:17.635Z</time></trkpt><trkpt lat="46.0084016" lon="11.7337682"><ele>955.0</ele><time>2026-04-11T13:58:18.635Z</time></trkpt><trkpt lat="46.0083522" lon="11.7336904"><ele>956.9999999999999</ele><time>2026-04-11T13:58:19.635Z</time></trkpt><trkpt lat="46.0083046" lon="11.7336191"><ele>959.0</ele><time>2026-04-11T13:58:20.635Z</time></trkpt><trkpt lat="46.0082573" lon="11.7335481"><ele>961.0</ele><time>2026-04-11T13:58:21.635Z</time></trkpt><trkpt lat="46.0082121" lon="11.73347"><ele>963.3333333333333</ele><time>2026-04-11T13:58:22.634Z</time></trkpt><trkpt lat="46.0081728" lon="11.7333991"><ele>965.6666666666666</ele><time>2026-04-11T13:58:23.634Z</time></trkpt><trkpt lat="46.0081269" lon="11.7332832"><ele>968.0</ele><time>2026-04-11T13:58:25.635Z</time></trkpt><trkpt lat="46.0080776" lon="11.7331811"><ele>970.3333333333333</ele><time>2026-04-11T13:58:28.634Z</time></trkpt><trkpt lat="46.0080191" lon="11.7332232"><ele>972.6666666666666</ele><time>2026-04-11T13:58:31.633Z</time></trkpt><trkpt lat="46.0079939" lon="11.7333342"><ele>975.0</ele><time>2026-04-11T13:58:33.634Z</time></trkpt><trkpt lat="46.0079571" lon="11.7334758"><ele>972.6666666666666</ele><time>2026-04-11T13:58:35.635Z</time></trkpt><trkpt lat="46.007951" lon="11.7335895"><ele>970.3333333333333</ele><time>2026-04-11T13:58:37.634Z</time></trkpt><trkpt lat="46.007978" lon="11.7337115"><ele>968.0</ele><time>2026-04-11T13:58:39.635Z</time></trkpt><trkpt lat="46.0079837" lon="11.7338072"><ele>965.6666666666666</ele><time>2026-04-11T13:58:40.634Z</time></trkpt><trkpt lat="46.0079884" lon="11.733903"><ele>963.3333333333333</ele><time>2026-04-11T13:58:41.634Z</time></trkpt><trkpt lat="46.0079997" lon="11.7339933"><ele>961.0</ele><time>2026-04-11T13:58:42.634Z</time></trkpt><trkpt lat="46.0080263" lon="11.7341672"><ele>961.0</ele><time>2026-04-11T13:58:44.634Z</time></trkpt><trkpt lat="46.0080304" lon="11.7343221"><ele>960.9999999999999</ele><time>2026-04-11T13:58:46.635Z</time></trkpt><trkpt lat="46.0080047" lon="11.7344723"><ele>960.9999999999999</ele><time>2026-04-11T13:58:48.634Z</time></trkpt><trkpt lat="46.0079708" lon="11.7346194"><ele>961.0</ele><time>2026-04-11T13:58:50.634Z</time></trkpt><trkpt lat="46.0079152" lon="11.7347763"><ele>961.0</ele><time>2026-04-11T13:58:52.634Z</time></trkpt><trkpt lat="46.0078918" lon="11.7348736"><ele>958.4</ele><time>2026-04-11T13:58:53.635Z</time></trkpt><trkpt lat="46.0078763" lon="11.7349681"><ele>955.8</ele><time>2026-04-11T13:58:54.634Z</time></trkpt><trkpt lat="46.0078617" lon="11.7350571"><ele>953.1999999999999</ele><time>2026-04-11T13:58:55.635Z</time></trkpt><trkpt lat="46.0078194" lon="11.7352269"><ele>950.5999999999999</ele><time>2026-04-11T13:58:57.635Z</time></trkpt><trkpt lat="46.0078175" lon="11.7353754"><ele>948.0</ele><time>2026-04-11T13:58:59.634Z</time></trkpt><trkpt lat="46.0078274" lon="11.7355172"><ele>943.2</ele><time>2026-04-11T13:59:01.635Z</time></trkpt><trkpt lat="46.0078055" lon="11.7357104"><ele>938.4</ele><time>2026-04-11T13:59:03.634Z</time></trkpt><trkpt lat="46.0077791" lon="11.7358462"><ele>933.6000000000001</ele><time>2026-04-11T13:59:04.634Z</time></trkpt><trkpt lat="46.0077532" lon="11.7359994"><ele>928.8000000000001</ele><time>2026-04-11T13:59:05.635Z</time></trkpt><trkpt lat="46.0077238" lon="11.7361295"><ele>924.0</ele><time>2026-04-11T13:59:06.634Z</time></trkpt><trkpt lat="46.0076865" lon="11.7362325"><ele>926.8333333333334</ele><time>2026-04-11T13:59:07.634Z</time></trkpt><trkpt lat="46.0076399" lon="11.7363368"><ele>929.6666666666667</ele><time>2026-04-11T13:59:08.634Z</time></trkpt><trkpt lat="46.0075902" lon="11.7364466"><ele>932.5</ele><time>2026-04-11T13:59:09.634Z</time></trkpt><trkpt lat="46.0075416" lon="11.7365453"><ele>935.3333333333334</ele><time>2026-04-11T13:59:10.634Z</time></trkpt><trkpt lat="46.0074889" lon="11.7366417"><ele>938.1666666666667</ele><time>2026-04-11T13:59:11.634Z</time></trkpt><trkpt lat="46.0074336" lon="11.7367416"><ele>941.0</ele><time>2026-04-11T13:59:12.635Z</time></trkpt><trkpt lat="46.0073751" lon="11.7368417"><ele>935.4</ele><time>2026-04-11T13:59:13.636Z</time></trkpt><trkpt lat="46.007312" lon="11.7369562"><ele>929.8</ele><time>2026-04-11T13:59:14.634Z</time></trkpt><trkpt lat="46.0072473" lon="11.7370851"><ele>924.1999999999999</ele><time>2026-04-11T13:59:15.634Z</time></trkpt><trkpt lat="46.0071951" lon="11.7372142"><ele>918.5999999999999</ele><time>2026-04-11T13:59:16.635Z</time></trkpt><trkpt lat="46.0071503" lon="11.7373385"><ele>913.0</ele><time>2026-04-11T13:59:17.634Z</time></trkpt><trkpt lat="46.0071129" lon="11.7374555"><ele>913.0</ele><time>2026-04-11T13:59:18.636Z</time></trkpt><trkpt lat="46.0070741" lon="11.7375736"><ele>913.0</ele><time>2026-04-11T13:59:19.636Z</time></trkpt><trkpt lat="46.0070324" lon="11.7376874"><ele>913.0</ele><time>2026-04-11T13:59:20.636Z</time></trkpt><trkpt lat="46.0069769" lon="11.7377989"><ele>913.0</ele><time>2026-04-11T13:59:21.636Z</time></trkpt><trkpt lat="46.0069153" lon="11.7379148"><ele>913.0</ele><time>2026-04-11T13:59:22.635Z</time></trkpt><trkpt lat="46.006854" lon="11.7380316"><ele>914.5999999999999</ele><time>2026-04-11T13:59:23.636Z</time></trkpt><trkpt lat="46.0067953" lon="11.7381482"><ele>916.1999999999999</ele><time>2026-04-11T13:59:24.636Z</time></trkpt><trkpt lat="46.0067414" lon="11.7382668"><ele>917.8</ele><time>2026-04-11T13:59:25.636Z</time></trkpt><trkpt lat="46.0066886" lon="11.7383842"><ele>919.4</ele><time>2026-04-11T13:59:26.635Z</time></trkpt><trkpt lat="46.0066299" lon="11.7385081"><ele>921.0</ele><time>2026-04-11T13:59:27.634Z</time></trkpt><trkpt lat="46.0065749" lon="11.7386316"><ele>913.1999999999999</ele><time>2026-04-11T13:59:28.635Z</time></trkpt><trkpt lat="46.00652" lon="11.7387482"><ele>905.3999999999999</ele><time>2026-04-11T13:59:29.635Z</time></trkpt><trkpt lat="46.0064644" lon="11.7388531"><ele>897.6</ele><time>2026-04-11T13:59:30.635Z</time></trkpt><trkpt lat="46.006395" lon="11.7389559"><ele>889.8</ele><time>2026-04-11T13:59:31.636Z</time></trkpt><trkpt lat="46.0063239" lon="11.7390676"><ele>882.0</ele><time>2026-04-11T13:59:32.634Z</time></trkpt><trkpt lat="46.0062561" lon="11.7391987"><ele>882.0</ele><time>2026-04-11T13:59:33.634Z</time></trkpt><trkpt lat="46.0061936" lon="11.739324"><ele>882.0</ele><time>2026-04-11T13:59:34.635Z</time></trkpt><trkpt lat="46.0061424" lon="11.7394365"><ele>882.0</ele><time>2026-04-11T13:59:35.635Z</time></trkpt><trkpt lat="46.0061001" lon="11.7395476"><ele>882.0</ele><time>2026-04-11T13:59:36.635Z</time></trkpt><trkpt lat="46.0060657" lon="11.7396619"><ele>882.0</ele><time>2026-04-11T13:59:37.635Z</time></trkpt><trkpt lat="46.0060306" lon="11.7397759"><ele>877.0</ele><time>2026-04-11T13:59:38.635Z</time></trkpt><trkpt lat="46.0059965" lon="11.7398723"><ele>872.0</ele><time>2026-04-11T13:59:39.635Z</time></trkpt><trkpt lat="46.0059584" lon="11.7400093"><ele>867.0</ele><time>2026-04-11T13:59:41.636Z</time></trkpt><trkpt lat="46.0059407" lon="11.7400966"><ele>862.0</ele><time>2026-04-11T13:59:43.636Z</time></trkpt><trkpt lat="46.0058704" lon="11.7401945"><ele>857.0</ele><time>2026-04-11T13:59:45.635Z</time></trkpt><trkpt lat="46.0058022" lon="11.7402609"><ele>852.0</ele><time>2026-04-11T13:59:46.636Z</time></trkpt><trkpt lat="46.005715" lon="11.7403373"><ele>851.2</ele><time>2026-04-11T13:59:47.635Z</time></trkpt><trkpt lat="46.0056245" lon="11.7404328"><ele>850.4000000000001</ele><time>2026-04-11T13:59:48.635Z</time></trkpt><trkpt lat="46.0055449" lon="11.7405427"><ele>849.5999999999999</ele><time>2026-04-11T13:59:49.635Z</time></trkpt><trkpt lat="46.0054735" lon="11.7406499"><ele>848.8</ele><time>2026-04-11T13:59:50.635Z</time></trkpt><trkpt lat="46.0054058" lon="11.7407537"><ele>848.0</ele><time>2026-04-11T13:59:51.635Z</time></trkpt><trkpt lat="46.0053459" lon="11.7408527"><ele>848.0</ele><time>2026-04-11T13:59:52.636Z</time></trkpt><trkpt lat="46.0052965" lon="11.7409842"><ele>848.0</ele><time>2026-04-11T13:59:53.635Z</time></trkpt><trkpt lat="46.0052439" lon="11.741122"><ele>848.0</ele><time>2026-04-11T13:59:54.635Z</time></trkpt><trkpt lat="46.0051921" lon="11.741242"><ele>848.0</ele><time>2026-04-11T13:59:55.635Z</time></trkpt><trkpt lat="46.0051472" lon="11.7413507"><ele>848.0</ele><time>2026-04-11T13:59:56.636Z</time></trkpt><trkpt lat="46.0051125" lon="11.7414599"><ele>845.5000000000001</ele><time>2026-04-11T13:59:57.635Z</time></trkpt><trkpt lat="46.0050947" lon="11.7415538"><ele>843.0</ele><time>2026-04-11T13:59:58.635Z</time></trkpt><trkpt lat="46.005068" lon="11.7416481"><ele>840.5</ele><time>2026-04-11T13:59:59.636Z</time></trkpt><trkpt lat="46.0050322" lon="11.7417347"><ele>838.0</ele><time>2026-04-11T14:00:00.635Z</time></trkpt><trkpt lat="46.0049719" lon="11.7418309"><ele>835.5000000000001</ele><time>2026-04-11T14:00:01.635Z</time></trkpt><trkpt lat="46.0048987" lon="11.7419359"><ele>833.0</ele><time>2026-04-11T14:00:02.635Z</time></trkpt><trkpt lat="46.0048184" lon="11.7420636"><ele>833.0000000000001</ele><time>2026-04-11T14:00:03.635Z</time></trkpt><trkpt lat="46.0047585" lon="11.7421743"><ele>833.0</ele><time>2026-04-11T14:00:04.636Z</time></trkpt><trkpt lat="46.0047102" lon="11.7422755"><ele>833.0</ele><time>2026-04-11T14:00:05.635Z</time></trkpt><trkpt lat="46.004668" lon="11.7423875"><ele>833.0</ele><time>2026-04-11T14:00:06.635Z</time></trkpt><trkpt lat="46.0046437" lon="11.7424961"><ele>833.0000000000001</ele><time>2026-04-11T14:00:07.635Z</time></trkpt><trkpt lat="46.004618" lon="11.7425962"><ele>833.0</ele><time>2026-04-11T14:00:08.636Z</time></trkpt><trkpt lat="46.0045818" lon="11.7427142"><ele>826.3333333333334</ele><time>2026-04-11T14:00:09.635Z</time></trkpt><trkpt lat="46.0045584" lon="11.7428217"><ele>819.6666666666667</ele><time>2026-04-11T14:00:10.635Z</time></trkpt><trkpt lat="46.0045348" lon="11.7429265"><ele>813.0</ele><time>2026-04-11T14:00:11.636Z</time></trkpt><trkpt lat="46.004522" lon="11.7430394"><ele>806.3333333333333</ele><time>2026-04-11T14:00:12.635Z</time></trkpt><trkpt lat="46.0045209" lon="11.7431568"><ele>799.6666666666666</ele><time>2026-04-11T14:00:13.636Z</time></trkpt><trkpt lat="46.0045178" lon="11.7432961"><ele>793.0</ele><time>2026-04-11T14:00:14.635Z</time></trkpt><trkpt lat="46.0045085" lon="11.7434217"><ele>793.0</ele><time>2026-04-11T14:00:15.635Z</time></trkpt><trkpt lat="46.0044935" lon="11.7435227"><ele>793.0</ele><time>2026-04-11T14:00:16.636Z</time></trkpt><trkpt lat="46.0044636" lon="11.743611"><ele>793.0</ele><time>2026-04-11T14:00:17.636Z</time></trkpt><trkpt lat="46.0043972" lon="11.7437466"><ele>793.0</ele><time>2026-04-11T14:00:19.636Z</time></trkpt><trkpt lat="46.0043271" lon="11.7438145"><ele>793.0</ele><time>2026-04-11T14:00:21.636Z</time></trkpt><trkpt lat="46.004222" lon="11.743872"><ele>780.5999999999999</ele><time>2026-04-11T14:00:26.635Z</time></trkpt><trkpt lat="46.004134" lon="11.7438899"><ele>768.1999999999999</ele><time>2026-04-11T14:00:27.637Z</time></trkpt><trkpt lat="46.0040304" lon="11.7438929"><ele>755.8</ele><time>2026-04-11T14:00:28.637Z</time></trkpt><trkpt lat="46.0039336" lon="11.7438885"><ele>743.4</ele><time>2026-04-11T14:00:29.636Z</time></trkpt><trkpt lat="46.0038368" lon="11.7438688"><ele>731.0</ele><time>2026-04-11T14:00:30.637Z</time></trkpt><trkpt lat="46.0037452" lon="11.7438451"><ele>731.0</ele><time>2026-04-11T14:00:31.636Z</time></trkpt><trkpt lat="46.0036501" lon="11.7438111"><ele>731.0</ele><time>2026-04-11T14:00:32.636Z</time></trkpt><trkpt lat="46.0035577" lon="11.7437518"><ele>731.0</ele><time>2026-04-11T14:00:33.635Z</time></trkpt><trkpt lat="46.003469" lon="11.7436704"><ele>731.0</ele><time>2026-04-11T14:00:34.636Z</time></trkpt><trkpt lat="46.00339" lon="11.74357"><ele>731.0</ele><time>2026-04-11T14:00:35.635Z</time></trkpt><trkpt lat="46.0033131" lon="11.7434653"><ele>734.1666666666666</ele><time>2026-04-11T14:00:36.636Z</time></trkpt><trkpt lat="46.0032396" lon="11.7433677"><ele>737.3333333333333</ele><time>2026-04-11T14:00:37.636Z</time></trkpt><trkpt lat="46.0031711" lon="11.7432855"><ele>740.5</ele><time>2026-04-11T14:00:38.636Z</time></trkpt><trkpt lat="46.0031052" lon="11.7432208"><ele>743.6666666666666</ele><time>2026-04-11T14:00:39.637Z</time></trkpt><trkpt lat="46.0030379" lon="11.7431841"><ele>746.8333333333334</ele><time>2026-04-11T14:00:40.636Z</time></trkpt><trkpt lat="46.0029745" lon="11.7431669"><ele>750.0</ele><time>2026-04-11T14:00:41.637Z</time></trkpt><trkpt lat="46.0029087" lon="11.7431821"><ele>750.0</ele><time>2026-04-11T14:00:43.636Z</time></trkpt><trkpt lat="46.0028476" lon="11.7432193"><ele>750.0</ele><time>2026-04-11T14:00:45.636Z</time></trkpt><trkpt lat="46.0027244" lon="11.743231"><ele>750.0</ele><time>2026-04-11T14:00:47.636Z</time></trkpt><trkpt lat="46.0026464" lon="11.7432242"><ele>750.0</ele><time>2026-04-11T14:00:48.636Z</time></trkpt><trkpt lat="46.0025675" lon="11.7432192"><ele>750.0</ele><time>2026-04-11T14:00:49.636Z</time></trkpt><trkpt lat="46.0024936" lon="11.7432232"><ele>750.0</ele><time>2026-04-11T14:00:50.637Z</time></trkpt><trkpt lat="46.0024224" lon="11.7432206"><ele>745.1666666666666</ele><time>2026-04-11T14:00:51.636Z</time></trkpt><trkpt lat="46.0023584" lon="11.7431923"><ele>740.3333333333334</ele><time>2026-04-11T14:00:52.636Z</time></trkpt><trkpt lat="46.002295" lon="11.7431536"><ele>735.5</ele><time>2026-04-11T14:00:53.636Z</time></trkpt><trkpt lat="46.0022255" lon="11.7431117"><ele>730.6666666666667</ele><time>2026-04-11T14:00:54.636Z</time></trkpt><trkpt lat="46.0021482" lon="11.7430728"><ele>725.8333333333334</ele><time>2026-04-11T14:00:55.636Z</time></trkpt><trkpt lat="46.0020623" lon="11.743043"><ele>721.0</ele><time>2026-04-11T14:00:56.636Z</time></trkpt><trkpt lat="46.0019864" lon="11.7430205"><ele>721.0</ele><time>2026-04-11T14:00:57.636Z</time></trkpt><trkpt lat="46.0019101" lon="11.7430082"><ele>721.0</ele><time>2026-04-11T14:00:58.636Z</time></trkpt><trkpt lat="46.0018267" lon="11.7429904"><ele>721.0</ele><time>2026-04-11T14:00:59.636Z</time></trkpt><trkpt lat="46.0017289" lon="11.7429712"><ele>721.0</ele><time>2026-04-11T14:01:00.636Z</time></trkpt><trkpt lat="46.0016356" lon="11.7429734"><ele>721.0</ele><time>2026-04-11T14:01:01.636Z</time></trkpt><trkpt lat="46.0015542" lon="11.7429871"><ele>721.0</ele><time>2026-04-11T14:01:02.636Z</time></trkpt><trkpt lat="46.001475" lon="11.7429969"><ele>718.0</ele><time>2026-04-11T14:01:03.636Z</time></trkpt><trkpt lat="46.0014063" lon="11.7429939"><ele>715.0</ele><time>2026-04-11T14:01:04.636Z</time></trkpt><trkpt lat="46.0012924" lon="11.7429479"><ele>712.0</ele><time>2026-04-11T14:01:06.637Z</time></trkpt><trkpt lat="46.0012043" lon="11.7428758"><ele>709.0</ele><time>2026-04-11T14:01:08.636Z</time></trkpt><trkpt lat="46.0011313" lon="11.7428689"><ele>706.0</ele><time>2026-04-11T14:01:12.637Z</time></trkpt><trkpt lat="46.0010289" lon="11.7428554"><ele>706.0</ele><time>2026-04-11T14:01:14.636Z</time></trkpt><trkpt lat="46.0009588" lon="11.7428216"><ele>706.0</ele><time>2026-04-11T14:01:15.636Z</time></trkpt><trkpt lat="46.0008597" lon="11.7427795"><ele>706.0</ele><time>2026-04-11T14:01:16.637Z</time></trkpt><trkpt lat="46.0007561" lon="11.7427299"><ele>706.0</ele><time>2026-04-11T14:01:17.637Z</time></trkpt><trkpt lat="46.0006452" lon="11.7426573"><ele>706.0</ele><time>2026-04-11T14:01:18.637Z</time></trkpt><trkpt lat="46.0005419" lon="11.7425874"><ele>707.0</ele><time>2026-04-11T14:01:19.637Z</time></trkpt><trkpt lat="46.0004484" lon="11.7425405"><ele>708.0</ele><time>2026-04-11T14:01:20.636Z</time></trkpt><trkpt lat="46.0003613" lon="11.7425144"><ele>709.0</ele><time>2026-04-11T14:01:21.638Z</time></trkpt><trkpt lat="46.0002542" lon="11.742489"><ele>710.0</ele><time>2026-04-11T14:01:22.637Z</time></trkpt><trkpt lat="46.0001564" lon="11.7424572"><ele>711.0</ele><time>2026-04-11T14:01:23.638Z</time></trkpt><trkpt lat="46.0000669" lon="11.7424306"><ele>711.0</ele><time>2026-04-11T14:01:24.637Z</time></trkpt><trkpt lat="45.9999773" lon="11.742399"><ele>711.0</ele><time>2026-04-11T14:01:25.637Z</time></trkpt><trkpt lat="45.9998869" lon="11.742391"><ele>711.0</ele><time>2026-04-11T14:01:26.637Z</time></trkpt><trkpt lat="45.9997812" lon="11.7424077"><ele>711.0</ele><time>2026-04-11T14:01:27.636Z</time></trkpt><trkpt lat="45.9996946" lon="11.7424261"><ele>711.0</ele><time>2026-04-11T14:01:28.637Z</time></trkpt><trkpt lat="45.9996167" lon="11.7424408"><ele>711.0</ele><time>2026-04-11T14:01:29.638Z</time></trkpt><trkpt lat="45.9995422" lon="11.7424563"><ele>711.0</ele><time>2026-04-11T14:01:30.636Z</time></trkpt><trkpt lat="45.9994096" lon="11.7424389"><ele>711.0</ele><time>2026-04-11T14:01:32.637Z</time></trkpt><trkpt lat="45.9993289" lon="11.7424313"><ele>711.0</ele><time>2026-04-11T14:01:33.637Z</time></trkpt><trkpt lat="45.9992363" lon="11.7424298"><ele>711.0</ele><time>2026-04-11T14:01:34.636Z</time></trkpt><trkpt lat="45.9991599" lon="11.7424231"><ele>710.0</ele><time>2026-04-11T14:01:35.636Z</time></trkpt><trkpt lat="45.999069" lon="11.742438"><ele>709.0</ele><time>2026-04-11T14:01:36.637Z</time></trkpt><trkpt lat="45.9990023" lon="11.7424784"><ele>708.0</ele><time>2026-04-11T14:01:37.637Z</time></trkpt><trkpt lat="45.9989146" lon="11.7425564"><ele>707.0</ele><time>2026-04-11T14:01:39.637Z</time></trkpt><trkpt lat="45.9988808" lon="11.7426439"><ele>706.0</ele><time>2026-04-11T14:01:42.636Z</time></trkpt><trkpt lat="45.9987993" lon="11.7427059"><ele>705.0</ele><time>2026-04-11T14:01:45.637Z</time></trkpt><trkpt lat="45.9987252" lon="11.7427353"><ele>700.4</ele><time>2026-04-11T14:01:46.637Z</time></trkpt><trkpt lat="45.9986522" lon="11.7427642"><ele>695.8</ele><time>2026-04-11T14:01:47.637Z</time></trkpt><trkpt lat="45.9985783" lon="11.7427915"><ele>691.2</ele><time>2026-04-11T14:01:48.637Z</time></trkpt><trkpt lat="45.9984847" lon="11.7428232"><ele>686.6</ele><time>2026-04-11T14:01:50.638Z</time></trkpt><trkpt lat="45.9984012" lon="11.7428798"><ele>682.0</ele><time>2026-04-11T14:01:52.637Z</time></trkpt><trkpt lat="45.9982967" lon="11.7429537"><ele>683.2</ele><time>2026-04-11T14:01:54.637Z</time></trkpt><trkpt lat="45.9981985" lon="11.7429791"><ele>684.4000000000001</ele><time>2026-04-11T14:01:56.637Z</time></trkpt><trkpt lat="45.9981315" lon="11.7429183"><ele>685.5999999999999</ele><time>2026-04-11T14:01:58.637Z</time></trkpt><trkpt lat="45.9980519" lon="11.7427904"><ele>686.8</ele><time>2026-04-11T14:02:00.637Z</time></trkpt><trkpt lat="45.9979973" lon="11.7427105"><ele>688.0</ele><time>2026-04-11T14:02:01.637Z</time></trkpt><trkpt lat="45.9979328" lon="11.7426252"><ele>688.0</ele><time>2026-04-11T14:02:02.638Z</time></trkpt><trkpt lat="45.9978744" lon="11.7425703"><ele>688.0</ele><time>2026-04-11T14:02:03.637Z</time></trkpt><trkpt lat="45.997812" lon="11.7425332"><ele>688.0</ele><time>2026-04-11T14:02:04.638Z</time></trkpt><trkpt lat="45.99771" lon="11.7424919"><ele>688.0</ele><time>2026-04-11T14:02:06.638Z</time></trkpt><trkpt lat="45.9976157" lon="11.7424472"><ele>688.0</ele><time>2026-04-11T14:02:08.638Z</time></trkpt><trkpt lat="45.9975235" lon="11.7424409"><ele>688.0</ele><time>2026-04-11T14:02:10.637Z</time></trkpt><trkpt lat="45.9974553" lon="11.7424558"><ele>682.6666666666667</ele><time>2026-04-11T14:02:11.638Z</time></trkpt><trkpt lat="45.9973874" lon="11.7424772"><ele>677.3333333333334</ele><time>2026-04-11T14:02:12.638Z</time></trkpt><trkpt lat="45.9973246" lon="11.7424889"><ele>672.0</ele><time>2026-04-11T14:02:13.637Z</time></trkpt><trkpt lat="45.9972074" lon="11.7425259"><ele>666.6666666666666</ele><time>2026-04-11T14:02:15.638Z</time></trkpt><trkpt lat="45.9971421" lon="11.7425823"><ele>661.3333333333333</ele><time>2026-04-11T14:02:16.637Z</time></trkpt><trkpt lat="45.9970547" lon="11.7426838"><ele>656.0</ele><time>2026-04-11T14:02:18.638Z</time></trkpt><trkpt lat="45.9969692" lon="11.7427621"><ele>654.3333333333333</ele><time>2026-04-11T14:02:20.637Z</time></trkpt><trkpt lat="45.9969217" lon="11.7428979"><ele>652.6666666666666</ele><time>2026-04-11T14:02:22.638Z</time></trkpt><trkpt lat="45.9968984" lon="11.742983"><ele>651.0</ele><time>2026-04-11T14:02:23.638Z</time></trkpt><trkpt lat="45.9968704" lon="11.7431012"><ele>649.3333333333334</ele><time>2026-04-11T14:02:25.637Z</time></trkpt><trkpt lat="45.9968074" lon="11.7431632"><ele>647.6666666666667</ele><time>2026-04-11T14:02:28.638Z</time></trkpt><trkpt lat="45.9967445" lon="11.7432342"><ele>646.0</ele><time>2026-04-11T14:02:31.637Z</time></trkpt><trkpt lat="45.9967271" lon="11.7433341"><ele>646.0</ele><time>2026-04-11T14:02:33.638Z</time></trkpt><trkpt lat="45.9967576" lon="11.743472"><ele>646.0</ele><time>2026-04-11T14:02:45.638Z</time></trkpt><trkpt lat="45.9967829" lon="11.7435877"><ele>646.0</ele><time>2026-04-11T14:02:47.637Z</time></trkpt><trkpt lat="45.9968864" lon="11.7436654"><ele>646.0</ele><time>2026-04-11T14:02:49.639Z</time></trkpt><trkpt lat="45.9969651" lon="11.7436914"><ele>646.0</ele><time>2026-04-11T14:02:50.638Z</time></trkpt><trkpt lat="45.9970248" lon="11.7437557"><ele>645.1999999999999</ele><time>2026-04-11T14:02:51.639Z</time></trkpt><trkpt lat="45.9970718" lon="11.743861"><ele>644.4</ele><time>2026-04-11T14:02:52.638Z</time></trkpt><trkpt lat="45.9970923" lon="11.7439872"><ele>643.6</ele><time>2026-04-11T14:02:53.639Z</time></trkpt><trkpt lat="45.997096" lon="11.7440955"><ele>642.8</ele><time>2026-04-11T14:02:54.639Z</time></trkpt><trkpt lat="45.9970658" lon="11.7442503"><ele>642.0</ele><time>2026-04-11T14:02:56.639Z</time></trkpt><trkpt lat="45.9970133" lon="11.7443502"><ele>644.2</ele><time>2026-04-11T14:02:58.638Z</time></trkpt><trkpt lat="45.9969074" lon="11.7444814"><ele>646.4000000000001</ele><time>2026-04-11T14:03:00.638Z</time></trkpt><trkpt lat="45.9968631" lon="11.7445743"><ele>648.5999999999999</ele><time>2026-04-11T14:03:01.638Z</time></trkpt><trkpt lat="45.996831" lon="11.7446633"><ele>650.8</ele><time>2026-04-11T14:03:02.638Z</time></trkpt><trkpt lat="45.9967912" lon="11.7448031"><ele>653.0</ele><time>2026-04-11T14:03:04.639Z</time></trkpt><trkpt lat="45.9967474" lon="11.7449398"><ele>653.0</ele><time>2026-04-11T14:03:06.638Z</time></trkpt><trkpt lat="45.9967595" lon="11.7450389"><ele>653.0</ele><time>2026-04-11T14:03:08.639Z</time></trkpt><trkpt lat="45.9968227" lon="11.7451802"><ele>653.0</ele><time>2026-04-11T14:03:10.638Z</time></trkpt><trkpt lat="45.9968369" lon="11.7453407"><ele>653.0</ele><time>2026-04-11T14:03:12.639Z</time></trkpt><trkpt lat="45.996824" lon="11.7454351"><ele>653.0</ele><time>2026-04-11T14:03:13.639Z</time></trkpt><trkpt lat="45.9967741" lon="11.7455312"><ele>653.0</ele><time>2026-04-11T14:03:15.639Z</time></trkpt><trkpt lat="45.9967533" lon="11.7454269"><ele>653.0</ele><time>2026-04-11T14:03:19.639Z</time></trkpt><trkpt lat="45.9967812" lon="11.7453215"><ele>653.0</ele><time>2026-04-11T14:03:21.639Z</time></trkpt><trkpt lat="45.9967525" lon="11.7452025"><ele>653.0</ele><time>2026-04-11T14:03:23.638Z</time></trkpt><trkpt lat="45.9967206" lon="11.7450462"><ele>653.0</ele><time>2026-04-11T14:03:25.639Z</time></trkpt><trkpt lat="45.9967184" lon="11.744871"><ele>653.0</ele><time>2026-04-11T14:03:27.638Z</time></trkpt><trkpt lat="45.9967409" lon="11.7447818"><ele>653.0</ele><time>2026-04-11T14:03:28.639Z</time></trkpt><trkpt lat="45.9967785" lon="11.7446849"><ele>653.0</ele><time>2026-04-11T14:03:29.638Z</time></trkpt><trkpt lat="45.9968159" lon="11.7445827"><ele>653.0</ele><time>2026-04-11T14:03:30.64Z</time></trkpt><trkpt lat="45.9968515" lon="11.7444956"><ele>653.0</ele><time>2026-04-11T14:03:31.639Z</time></trkpt><trkpt lat="45.9969026" lon="11.7443605"><ele>653.0</ele><time>2026-04-11T14:03:33.639Z</time></trkpt><trkpt lat="45.9969245" lon="11.7442641"><ele>653.0</ele><time>2026-04-11T14:03:35.638Z</time></trkpt><trkpt lat="45.9969175" lon="11.7441611"><ele>650.8</ele><time>2026-04-11T14:03:38.639Z</time></trkpt><trkpt lat="45.9968809" lon="11.7440839"><ele>648.5999999999999</ele><time>2026-04-11T14:03:41.639Z</time></trkpt><trkpt lat="45.9967865" lon="11.7439789"><ele>646.4000000000001</ele><time>2026-04-11T14:03:50.639Z</time></trkpt><trkpt lat="45.9967437" lon="11.7441013"><ele>644.2</ele><time>2026-04-11T14:03:53.639Z</time></trkpt><trkpt lat="45.9966741" lon="11.7442093"><ele>642.0</ele><time>2026-04-11T14:03:55.64Z</time></trkpt><trkpt lat="45.9966012" lon="11.7442426"><ele>642.0</ele><time>2026-04-11T14:03:59.639Z</time></trkpt><trkpt lat="45.9966663" lon="11.7441722"><ele>642.0</ele><time>2026-04-11T14:04:06.639Z</time></trkpt><trkpt lat="45.9967252" lon="11.7440659"><ele>642.0</ele><time>2026-04-11T14:04:09.64Z</time></trkpt><trkpt lat="45.9967437" lon="11.7439592"><ele>642.0</ele><time>2026-04-11T14:04:10.639Z</time></trkpt><trkpt lat="45.9967263" lon="11.743834"><ele>642.0</ele><time>2026-04-11T14:04:12.639Z</time></trkpt><trkpt lat="45.9966618" lon="11.743709"><ele>642.0</ele><time>2026-04-11T14:04:14.64Z</time></trkpt><trkpt lat="45.9967201" lon="11.7436512"><ele>642.0</ele><time>2026-04-11T14:04:18.64Z</time></trkpt><trkpt lat="45.9967579" lon="11.7435631"><ele>642.0</ele><time>2026-04-11T14:04:22.64Z</time></trkpt><trkpt lat="45.9967821" lon="11.743409"><ele>642.0</ele><time>2026-04-11T14:04:24.639Z</time></trkpt><trkpt lat="45.9967888" lon="11.7432766"><ele>642.0</ele><time>2026-04-11T14:04:26.639Z</time></trkpt><trkpt lat="45.9968299" lon="11.7432023"><ele>642.0</ele><time>2026-04-11T14:04:32.64Z</time></trkpt><trkpt lat="45.9969319" lon="11.7432436"><ele>642.0</ele><time>2026-04-11T14:04:37.639Z</time></trkpt><trkpt lat="45.9969965" lon="11.7433281"><ele>642.0</ele><time>2026-04-11T14:04:39.64Z</time></trkpt><trkpt lat="45.9970557" lon="11.7433933"><ele>642.0</ele><time>2026-04-11T14:04:41.64Z</time></trkpt><trkpt lat="45.9971341" lon="11.7434477"><ele>642.0</ele><time>2026-04-11T14:04:43.639Z</time></trkpt><trkpt lat="45.9972216" lon="11.7435008"><ele>642.0</ele><time>2026-04-11T14:04:45.64Z</time></trkpt><trkpt lat="45.997295" lon="11.7434965"><ele>642.0</ele><time>2026-04-11T14:04:47.64Z</time></trkpt><trkpt lat="45.9973492" lon="11.7435553"><ele>642.0</ele><time>2026-04-11T14:04:49.639Z</time></trkpt><trkpt lat="45.9973881" lon="11.7436745"><ele>642.0</ele><time>2026-04-11T14:04:51.641Z</time></trkpt><trkpt lat="45.9974282" lon="11.7438368"><ele>642.0</ele><time>2026-04-11T14:04:53.641Z</time></trkpt><trkpt lat="45.9974537" lon="11.7439836"><ele>642.0</ele><time>2026-04-11T14:04:55.641Z</time></trkpt><trkpt lat="45.9974199" lon="11.7440658"><ele>642.0</ele><time>2026-04-11T14:04:57.641Z</time></trkpt><trkpt lat="45.9973473" lon="11.7441948"><ele>642.0</ele><time>2026-04-11T14:04:59.64Z</time></trkpt><trkpt lat="45.9973044" lon="11.7442672"><ele>644.2</ele><time>2026-04-11T14:05:00.64Z</time></trkpt><trkpt lat="45.9972285" lon="11.7444"><ele>646.4000000000001</ele><time>2026-04-11T14:05:02.641Z</time></trkpt><trkpt lat="45.9971654" lon="11.7445138"><ele>648.5999999999999</ele><time>2026-04-11T14:05:04.641Z</time></trkpt><trkpt lat="45.9971347" lon="11.7446445"><ele>650.8</ele><time>2026-04-11T14:05:06.641Z</time></trkpt><trkpt lat="45.9971103" lon="11.7447362"><ele>653.0</ele><time>2026-04-11T14:05:09.641Z</time></trkpt><trkpt lat="45.9971273" lon="11.7449162"><ele>653.0</ele><time>2026-04-11T14:05:11.64Z</time></trkpt><trkpt lat="45.9971591" lon="11.7450284"><ele>653.0</ele><time>2026-04-11T14:05:12.64Z</time></trkpt><trkpt lat="45.9972093" lon="11.7451534"><ele>653.0</ele><time>2026-04-11T14:05:14.64Z</time></trkpt><trkpt lat="45.9972375" lon="11.7453252"><ele>653.0</ele><time>2026-04-11T14:05:16.64Z</time></trkpt><trkpt lat="45.9972427" lon="11.7454775"><ele>653.0</ele><time>2026-04-11T14:05:18.641Z</time></trkpt><trkpt lat="45.997244" lon="11.7455913"><ele>654.0</ele><time>2026-04-11T14:05:20.64Z</time></trkpt><trkpt lat="45.9972384" lon="11.7456892"><ele>655.0</ele><time>2026-04-11T14:05:21.641Z</time></trkpt><trkpt lat="45.9971937" lon="11.7458408"><ele>656.0</ele><time>2026-04-11T14:05:23.641Z</time></trkpt><trkpt lat="45.9971622" lon="11.7459214"><ele>657.0</ele><time>2026-04-11T14:05:24.64Z</time></trkpt><trkpt lat="45.997129" lon="11.7460147"><ele>658.0</ele><time>2026-04-11T14:05:25.641Z</time></trkpt><trkpt lat="45.9970991" lon="11.7461178"><ele>659.0</ele><time>2026-04-11T14:05:27.64Z</time></trkpt><trkpt lat="45.9970096" lon="11.7461995"><ele>660.1666666666666</ele><time>2026-04-11T14:05:29.641Z</time></trkpt><trkpt lat="45.996942" lon="11.7462561"><ele>661.3333333333333</ele><time>2026-04-11T14:05:31.641Z</time></trkpt><trkpt lat="45.9968697" lon="11.746342"><ele>662.5</ele><time>2026-04-11T14:05:34.641Z</time></trkpt><trkpt lat="45.9968512" lon="11.7464489"><ele>663.6666666666666</ele><time>2026-04-11T14:05:37.64Z</time></trkpt><trkpt lat="45.9969088" lon="11.7465091"><ele>664.8333333333334</ele><time>2026-04-11T14:05:39.641Z</time></trkpt><trkpt lat="45.9969702" lon="11.7465533"><ele>666.0</ele><time>2026-04-11T14:05:40.641Z</time></trkpt><trkpt lat="45.9970344" lon="11.746601"><ele>666.0</ele><time>2026-04-11T14:05:41.64Z</time></trkpt><trkpt lat="45.9971261" lon="11.7466888"><ele>666.0</ele><time>2026-04-11T14:05:43.642Z</time></trkpt><trkpt lat="45.9972022" lon="11.7467426"><ele>666.0</ele><time>2026-04-11T14:05:45.641Z</time></trkpt><trkpt lat="45.9972238" lon="11.7468821"><ele>666.0</ele><time>2026-04-11T14:05:48.641Z</time></trkpt><trkpt lat="45.997219" lon="11.7470293"><ele>666.0</ele><time>2026-04-11T14:05:50.641Z</time></trkpt><trkpt lat="45.9971564" lon="11.7471196"><ele>669.4</ele><time>2026-04-11T14:05:52.64Z</time></trkpt><trkpt lat="45.9970214" lon="11.7471198"><ele>672.8</ele><time>2026-04-11T14:05:54.641Z</time></trkpt><trkpt lat="45.9969441" lon="11.7470723"><ele>676.1999999999999</ele><time>2026-04-11T14:05:55.64Z</time></trkpt><trkpt lat="45.9968681" lon="11.7470052"><ele>679.5999999999999</ele><time>2026-04-11T14:05:56.642Z</time></trkpt><trkpt lat="45.9967969" lon="11.746945"><ele>683.0</ele><time>2026-04-11T14:05:57.642Z</time></trkpt><trkpt lat="45.9967243" lon="11.7469108"><ele>681.2</ele><time>2026-04-11T14:05:58.641Z</time></trkpt><trkpt lat="45.9966076" lon="11.7469044"><ele>679.4</ele><time>2026-04-11T14:06:00.642Z</time></trkpt><trkpt lat="45.9965415" lon="11.7469244"><ele>677.6</ele><time>2026-04-11T14:06:01.642Z</time></trkpt><trkpt lat="45.9964521" lon="11.7469731"><ele>675.8000000000001</ele><time>2026-04-11T14:06:02.641Z</time></trkpt><trkpt lat="45.996344" lon="11.7470477"><ele>674.0</ele><time>2026-04-11T14:06:03.642Z</time></trkpt><trkpt lat="45.9962413" lon="11.747131"><ele>674.0</ele><time>2026-04-11T14:06:04.641Z</time></trkpt><trkpt lat="45.9961314" lon="11.7472114"><ele>674.0</ele><time>2026-04-11T14:06:05.641Z</time></trkpt><trkpt lat="45.9960395" lon="11.7473035"><ele>674.0</ele><time>2026-04-11T14:06:06.642Z</time></trkpt><trkpt lat="45.9959497" lon="11.7474107"><ele>674.0</ele><time>2026-04-11T14:06:07.641Z</time></trkpt><trkpt lat="45.9958513" lon="11.7475294"><ele>674.0</ele><time>2026-04-11T14:06:08.641Z</time></trkpt><trkpt lat="45.9957825" lon="11.7476519"><ele>674.0</ele><time>2026-04-11T14:06:09.641Z</time></trkpt><trkpt lat="45.9957118" lon="11.7477738"><ele>674.0</ele><time>2026-04-11T14:06:10.642Z</time></trkpt><trkpt lat="45.9956393" lon="11.747894"><ele>674.0</ele><time>2026-04-11T14:06:11.642Z</time></trkpt><trkpt lat="45.9955687" lon="11.7480172"><ele>674.0</ele><time>2026-04-11T14:06:12.642Z</time></trkpt><trkpt lat="45.9955057" lon="11.7481474"><ele>674.0</ele><time>2026-04-11T14:06:13.641Z</time></trkpt><trkpt lat="45.9954494" lon="11.7482873"><ele>674.0</ele><time>2026-04-11T14:06:14.641Z</time></trkpt><trkpt lat="45.9953956" lon="11.748428"><ele>674.0</ele><time>2026-04-11T14:06:15.641Z</time></trkpt><trkpt lat="45.9953399" lon="11.7485633"><ele>674.0</ele><time>2026-04-11T14:06:16.641Z</time></trkpt><trkpt lat="45.9952858" lon="11.7486936"><ele>674.0</ele><time>2026-04-11T14:06:17.642Z</time></trkpt><trkpt lat="45.9952306" lon="11.748827"><ele>678.5</ele><time>2026-04-11T14:06:18.642Z</time></trkpt><trkpt lat="45.9951772" lon="11.7489666"><ele>683.0</ele><time>2026-04-11T14:06:19.641Z</time></trkpt><trkpt lat="45.9951304" lon="11.7491186"><ele>687.5</ele><time>2026-04-11T14:06:20.641Z</time></trkpt><trkpt lat="45.9950931" lon="11.7492773"><ele>692.0</ele><time>2026-04-11T14:06:21.641Z</time></trkpt><trkpt lat="45.9950715" lon="11.7494399"><ele>693.0</ele><time>2026-04-11T14:06:22.641Z</time></trkpt><trkpt lat="45.9950576" lon="11.7495981"><ele>694.0</ele><time>2026-04-11T14:06:23.641Z</time></trkpt><trkpt lat="45.9950512" lon="11.7497517"><ele>695.0</ele><time>2026-04-11T14:06:24.642Z</time></trkpt><trkpt lat="45.9950526" lon="11.7499008"><ele>696.0</ele><time>2026-04-11T14:06:25.642Z</time></trkpt><trkpt lat="45.9950575" lon="11.7500473"><ele>697.0</ele><time>2026-04-11T14:06:26.642Z</time></trkpt><trkpt lat="45.9950582" lon="11.7501906"><ele>698.2</ele><time>2026-04-11T14:06:27.643Z</time></trkpt><trkpt lat="45.995051" lon="11.7503266"><ele>699.4000000000001</ele><time>2026-04-11T14:06:28.642Z</time></trkpt><trkpt lat="45.9950286" lon="11.7504566"><ele>700.5999999999999</ele><time>2026-04-11T14:06:29.641Z</time></trkpt><trkpt lat="45.9949847" lon="11.7505784"><ele>701.8</ele><time>2026-04-11T14:06:30.643Z</time></trkpt><trkpt lat="45.9949255" lon="11.7506903"><ele>703.0</ele><time>2026-04-11T14:06:31.642Z</time></trkpt><trkpt lat="45.9948533" lon="11.7507975"><ele>693.0</ele><time>2026-04-11T14:06:32.642Z</time></trkpt><trkpt lat="45.9947894" lon="11.7509205"><ele>683.0</ele><time>2026-04-11T14:06:33.643Z</time></trkpt><trkpt lat="45.9947411" lon="11.7510614"><ele>673.0</ele><time>2026-04-11T14:06:34.642Z</time></trkpt><trkpt lat="45.9947056" lon="11.7512139"><ele>663.0</ele><time>2026-04-11T14:06:35.641Z</time></trkpt><trkpt lat="45.9946747" lon="11.7513719"><ele>653.0</ele><time>2026-04-11T14:06:36.642Z</time></trkpt><trkpt lat="45.994641" lon="11.7515351"><ele>653.0</ele><time>2026-04-11T14:06:37.642Z</time></trkpt><trkpt lat="45.9946033" lon="11.7517007"><ele>653.0</ele><time>2026-04-11T14:06:38.642Z</time></trkpt><trkpt lat="45.9945666" lon="11.7518647"><ele>653.0</ele><time>2026-04-11T14:06:39.643Z</time></trkpt><trkpt lat="45.9945303" lon="11.752029"><ele>653.0</ele><time>2026-04-11T14:06:40.641Z</time></trkpt><trkpt lat="45.9944984" lon="11.7521943"><ele>653.75</ele><time>2026-04-11T14:06:41.642Z</time></trkpt><trkpt lat="45.9944695" lon="11.7523592"><ele>654.5</ele><time>2026-04-11T14:06:42.642Z</time></trkpt><trkpt lat="45.9944437" lon="11.752526"><ele>655.25</ele><time>2026-04-11T14:06:43.643Z</time></trkpt><trkpt lat="45.9944228" lon="11.7526941"><ele>656.0</ele><time>2026-04-11T14:06:44.642Z</time></trkpt><trkpt lat="45.9944039" lon="11.7528615"><ele>656.25</ele><time>2026-04-11T14:06:45.641Z</time></trkpt><trkpt lat="45.9943866" lon="11.753024"><ele>656.5</ele><time>2026-04-11T14:06:46.643Z</time></trkpt><trkpt lat="45.9943738" lon="11.7531816"><ele>656.75</ele><time>2026-04-11T14:06:47.642Z</time></trkpt><trkpt lat="45.994367" lon="11.7533418"><ele>657.0</ele><time>2026-04-11T14:06:48.642Z</time></trkpt><trkpt lat="45.9943686" lon="11.7535057"><ele>655.2</ele><time>2026-04-11T14:06:49.642Z</time></trkpt><trkpt lat="45.9943741" lon="11.7536677"><ele>653.4000000000001</ele><time>2026-04-11T14:06:50.642Z</time></trkpt><trkpt lat="45.9943792" lon="11.753828"><ele>651.5999999999999</ele><time>2026-04-11T14:06:51.643Z</time></trkpt><trkpt lat="45.9943843" lon="11.7539875"><ele>649.8</ele><time>2026-04-11T14:06:52.642Z</time></trkpt><trkpt lat="45.9943883" lon="11.7541448"><ele>648.0</ele><time>2026-04-11T14:06:53.642Z</time></trkpt><trkpt lat="45.9943903" lon="11.7542968"><ele>646.5999999999999</ele><time>2026-04-11T14:06:54.643Z</time></trkpt><trkpt lat="45.994389" lon="11.7544467"><ele>645.1999999999999</ele><time>2026-04-11T14:06:55.641Z</time></trkpt><trkpt lat="45.9943978" lon="11.7545878"><ele>643.8</ele><time>2026-04-11T14:06:56.642Z</time></trkpt><trkpt lat="45.9944294" lon="11.7547236"><ele>642.4</ele><time>2026-04-11T14:06:57.643Z</time></trkpt><trkpt lat="45.994461" lon="11.7548572"><ele>641.0</ele><time>2026-04-11T14:06:58.641Z</time></trkpt><trkpt lat="45.9944617" lon="11.755009"><ele>641.0</ele><time>2026-04-11T14:06:59.642Z</time></trkpt><trkpt lat="45.9944383" lon="11.7551641"><ele>641.0</ele><time>2026-04-11T14:07:00.643Z</time></trkpt><trkpt lat="45.994424" lon="11.7553105"><ele>641.0</ele><time>2026-04-11T14:07:01.641Z</time></trkpt><trkpt lat="45.9944297" lon="11.7554339"><ele>641.0</ele><time>2026-04-11T14:07:02.642Z</time></trkpt><trkpt lat="45.9944399" lon="11.7555285"><ele>641.0</ele><time>2026-04-11T14:07:03.642Z</time></trkpt><trkpt lat="45.9943927" lon="11.7556595"><ele>641.1666666666666</ele><time>2026-04-11T14:07:05.642Z</time></trkpt><trkpt lat="45.9943242" lon="11.7556966"><ele>641.3333333333333</ele><time>2026-04-11T14:07:06.642Z</time></trkpt><trkpt lat="45.9942464" lon="11.7557341"><ele>641.5</ele><time>2026-04-11T14:07:07.642Z</time></trkpt><trkpt lat="45.9941836" lon="11.7558156"><ele>641.6666666666666</ele><time>2026-04-11T14:07:08.643Z</time></trkpt><trkpt lat="45.9941583" lon="11.755937"><ele>641.8333333333334</ele><time>2026-04-11T14:07:09.643Z</time></trkpt><trkpt lat="45.9941574" lon="11.7560694"><ele>642.0</ele><time>2026-04-11T14:07:10.643Z</time></trkpt><trkpt lat="45.9941595" lon="11.7562024"><ele>635.2</ele><time>2026-04-11T14:07:11.643Z</time></trkpt><trkpt lat="45.9941552" lon="11.7563364"><ele>628.4000000000001</ele><time>2026-04-11T14:07:12.643Z</time></trkpt><trkpt lat="45.994146" lon="11.7564745"><ele>621.5999999999999</ele><time>2026-04-11T14:07:13.642Z</time></trkpt><trkpt lat="45.9941374" lon="11.7566123"><ele>614.8</ele><time>2026-04-11T14:07:14.642Z</time></trkpt><trkpt lat="45.9941324" lon="11.7567493"><ele>608.0</ele><time>2026-04-11T14:07:15.643Z</time></trkpt><trkpt lat="45.9941289" lon="11.7568865"><ele>606.0</ele><time>2026-04-11T14:07:16.643Z</time></trkpt><trkpt lat="45.9941256" lon="11.7570237"><ele>604.0</ele><time>2026-04-11T14:07:17.643Z</time></trkpt><trkpt lat="45.9941253" lon="11.7571574"><ele>602.0</ele><time>2026-04-11T14:07:18.643Z</time></trkpt><trkpt lat="45.9941336" lon="11.7572966"><ele>600.0</ele><time>2026-04-11T14:07:19.642Z</time></trkpt><trkpt lat="45.9941547" lon="11.757438"><ele>598.0</ele><time>2026-04-11T14:07:20.642Z</time></trkpt><trkpt lat="45.9941979" lon="11.757581"><ele>601.4</ele><time>2026-04-11T14:07:21.643Z</time></trkpt><trkpt lat="45.9942498" lon="11.7577155"><ele>604.8</ele><time>2026-04-11T14:07:22.643Z</time></trkpt><trkpt lat="45.994298" lon="11.7578403"><ele>608.2</ele><time>2026-04-11T14:07:23.642Z</time></trkpt><trkpt lat="45.9943433" lon="11.7579591"><ele>611.6</ele><time>2026-04-11T14:07:24.642Z</time></trkpt><trkpt lat="45.9943767" lon="11.7580651"><ele>615.0</ele><time>2026-04-11T14:07:25.642Z</time></trkpt><trkpt lat="45.9944015" lon="11.7581692"><ele>615.0</ele><time>2026-04-11T14:07:26.642Z</time></trkpt><trkpt lat="45.9944347" lon="11.7582663"><ele>615.0</ele><time>2026-04-11T14:07:27.643Z</time></trkpt><trkpt lat="45.9944776" lon="11.7583631"><ele>615.0</ele><time>2026-04-11T14:07:28.643Z</time></trkpt><trkpt lat="45.994514" lon="11.7584625"><ele>615.0</ele><time>2026-04-11T14:07:29.642Z</time></trkpt><trkpt lat="45.99455" lon="11.7585555"><ele>615.0</ele><time>2026-04-11T14:07:30.643Z</time></trkpt><trkpt lat="45.9945816" lon="11.7586474"><ele>615.0</ele><time>2026-04-11T14:07:31.644Z</time></trkpt><trkpt lat="45.9946063" lon="11.7587449"><ele>613.8333333333334</ele><time>2026-04-11T14:07:32.644Z</time></trkpt><trkpt lat="45.9946291" lon="11.7588589"><ele>612.6666666666666</ele><time>2026-04-11T14:07:33.642Z</time></trkpt><trkpt lat="45.9946488" lon="11.7589648"><ele>611.5</ele><time>2026-04-11T14:07:34.642Z</time></trkpt><trkpt lat="45.9946656" lon="11.7590763"><ele>610.3333333333333</ele><time>2026-04-11T14:07:35.642Z</time></trkpt><trkpt lat="45.9946853" lon="11.759182"><ele>609.1666666666666</ele><time>2026-04-11T14:07:36.643Z</time></trkpt><trkpt lat="45.9947111" lon="11.7592862"><ele>608.0</ele><time>2026-04-11T14:07:37.642Z</time></trkpt><trkpt lat="45.9947404" lon="11.7593874"><ele>607.1999999999999</ele><time>2026-04-11T14:07:38.642Z</time></trkpt><trkpt lat="45.9947769" lon="11.7594782"><ele>606.4</ele><time>2026-04-11T14:07:39.643Z</time></trkpt><trkpt lat="45.9948259" lon="11.7596171"><ele>605.5999999999999</ele><time>2026-04-11T14:07:41.642Z</time></trkpt><trkpt lat="45.9948051" lon="11.7597599"><ele>604.8</ele><time>2026-04-11T14:07:44.643Z</time></trkpt><trkpt lat="45.9948252" lon="11.7599251"><ele>604.0</ele><time>2026-04-11T14:07:46.642Z</time></trkpt><trkpt lat="45.9948607" lon="11.7600134"><ele>604.0</ele><time>2026-04-11T14:07:49.642Z</time></trkpt><trkpt lat="45.9949251" lon="11.7599636"><ele>604.0</ele><time>2026-04-11T14:07:52.642Z</time></trkpt><trkpt lat="45.9949724" lon="11.7598889"><ele>604.0</ele><time>2026-04-11T14:07:53.643Z</time></trkpt><trkpt lat="45.9950001" lon="11.7597891"><ele>604.0</ele><time>2026-04-11T14:07:54.644Z</time></trkpt></trkseg></trk></gpx>